GFSGL_con_mlcape_000.txt.gz
CAPE
1001 851 710 920 786 1 0 0 0 0 0 0 0 0 0 0 0 0 0 0 0 0 12 27 26 33 37 23 0 0 0 0 0 0 0 0 0 0 0 0 0 0 0
1049 801 539 535 305 0 0 0 0 0 0 0 0 0 0 0 0 0 0 0 0 0 0 29 46 53 28 30 21 3 0 0 0 0 0 0 0 0 0 0 0 0 0
1107 638 459 341 257 22 0 0 0 0 0 0 0 0 0 0 0 0 0 0 0 0 9 31 24 31 0 0 0 0 0 11 1 0 0 0 0 0 0 0 0 0 0
868 614 541 409 335 41 0 0 0 0 0 0 0 0 0 0 0 0 0 0 0 5 27 48 10 1 0 0 0 0 0 5 21 5 0 0 0 0 0 0 0 0 0
833 612 647 500 189 8 12 2 0 2 15 5 0 0 0 0 0 0 0 0 3 44 41 27 4 0 0 0 0 0 0 0 17 6 0 0 0 0 0 0 0 0 0
858 726 572 218 79 0 18 71 58 171 89 23 3 0 0 0 2 0 19 23 28 56 34 6 0 0 0 0 7 15 11 0 24 25 0 0 0 0 0 0 0 0 1
919 839 546 155 77 11 3 0 109 204 93 6 4 4 9 22 16 22 35 37 55 31 12 0 0 0 0 0 0 0 20 56 88 73 0 0 0 0 0 1 0 1 5
930 907 484 278 59 0 0 0 62 1 0 2 19 43 24 85 69 46 74 28 26 26 6 0 0 0 0 0 0 0 3 1 0 0 0 0 0 0 4 3 3 6 2
930 880 585 354 254 127 0 0 3 2 17 47 97 120 93 102 136 133 41 46 26 14 1 0 0 0 0 0 0 0 0 0 0 0 0 0 0 0 0 2 0 2 9
854 832 652 395 200 45 0 0 0 14 24 43 96 95 79 89 133 22 50 39 30 0 0 0 0 0 0 0 0 0 0 0 0 0 0 0 1 0 0 1 1 7 8
687 662 677 536 151 9 0 0 1 18 26 56 14 0 5 6 46 44 7 41 8 0 0 0 0 0 0 0 0 0 0 0 0 0 0 0 0 0 0 0 0 2 2
561 475 391 419 301 20 0 0 0 0 1 1 4 0 0 0 0 0 13 6 0 0 0 0 0 0 0 0 0 0 0 0 0 0 0 0 0 0 0 0 0 2 2
376 293 192 55 23 0 3 0 0 0 0 8 10 7 14 0 0 0 0 0 0 0 0 0 0 0 0 0 0 0 0 0 0 0 0 0 0 0 0 0 0 2 0
277 73 3 0 0 0 0 0 0 0 0 0 0 49 31 0 0 0 0 0 0 0 0 0 0 0 0 0 0 0 0 0 0 0 0 0 0 0 0 0 3 2 2
77 28 13 0 0 0 0 0 0 0 0 10 52 17 0 2 0 0 0 0 0 0 0 0 0 0 0 0 0 0 0 0 0 0 0 0 0 0 0 0 0 3 1
42 11 0 0 0 0 0 0 0 0 0 0 0 0 0 0 0 0 0 0 0 0 0 0 0 0 0 0 0 0 0 0 0 0 0 0 0 0 0 0 0 1 0
10 0 0 0 0 0 0 0 0 0 0 0 0 0 0 0 0 0 0 0 0 0 0 0 0 0 0 0 0 0 0 0 0 0 0 0 0 0 0 0 0 0 0
0 0 0 0 0 0 0 0 0 0 0 0 0 0 0 0 0 0 0 0 0 0 0 0 0 0 0 0 0 0 0 0 0 0 0 0 0 0 0 0 0 0 0
0 0 0 0 0 0 0 0 0 0 0 0 0 0 0 0 0 0 0 0 0 0 0 0 0 0 0 0 0 0 0 0 0 0 0 0 0 0 0 0 0 0 0
75 55 30 5 0 0 0 2 0 0 0 0 0 0 0 0 0 0 0 0 0 0 0 0 0 0 0 0 0 0 0 0 0 0 0 0 0 0 0 0 0 0 0
26 12 0 0 0 0 0 0 0 0 0 0 0 0 0 0 0 0 0 0 0 0 0 0 0 0 0 0 0 0 0 0 0 0 0 0 0 0 0 0 0 0 0
0 0 5 51 45 13 8 5 0 3 0 0 0 0 0 0 0 0 0 0 0 0 0 0 0 0 0 0 0 0 0 0 0 0 0 0 0 0 0 0 0 0 0
0 0 0 0 0 0 0 0 0 1 0 0 0 0 0 0 0 0 0 0 0 0 0 0 0 0 0 0 0 0 0 0 0 0 0 0 0 0 0 0 0 0 0
0 0 0 0 0 0 1 2 0 0 0 0 0 1 0 0 0 0 0 0 0 0 0 0 0 0 0 0 0 0 0 0 0 0 0 0 0 0 0 0 0 0 0
0 0 0 0 0 0 0 0 0 0 0 2 0 0 0 0 0 0 0 0 0 0 0 0 0 0 0 0 0 0 0 0 0 0 0 0 0 0 0 0 0 0 0
0 0 0 0 0 0 0 0 0 0 0 0 0 0 0 0 0 0 0 0 0 0 0 0 0 0 0 0 0 0 0 0 0 0 0 0 0 0 0 0 0 0 0

GFSGL_con_mlcape_003.txt.gz
CAPE
1211 1421 1639 1820 1978 2089 1904 1809 643 194 120 34 20 5 6 8 3 0 0 0 0 0 42 39 91 74 51 105 129 88 74 55 46 0 2 12 0 0 1 2 0 0 0
1290 1387 1470 1802 1369 903 1273 775 65 36 97 25 40 35 38 76 82 20 0 0 0 0 0 43 72 106 141 138 76 70 56 83 50 24 0 0 6 1 6 22 2 0 0
1537 1480 1432 1379 1100 1180 637 354 0 0 0 58 40 22 34 74 141 162 3 0 0 13 27 44 99 177 72 43 69 41 17 45 71 63 17 1 0 16 15 30 31 2 1
1597 1655 1463 1077 977 544 320 28 0 3 31 20 2 9 41 107 104 47 0 0 0 19 47 83 163 70 33 32 44 42 69 71 47 59 34 7 5 23 66 61 15 11 5
1675 1724 1474 1077 682 271 163 2 0 0 0 0 0 0 16 59 44 3 9 63 166 199 176 219 102 130 42 9 3 0 36 62 37 23 33 24 12 23 23 25 17 19 6
1623 1565 1255 886 400 233 111 0 0 0 0 0 0 0 23 58 30 9 26 209 359 442 281 87 87 58 15 0 0 0 4 30 51 22 29 30 69 49 34 55 21 8 1
1321 1352 1044 643 370 241 112 2 0 0 0 0 3 44 115 108 82 38 38 185 322 298 155 157 158 107 27 41 0 0 5 4 22 47 102 121 97 59 40 9 2 7 4
1215 1219 940 581 479 283 173 38 0 0 0 4 22 234 240 260 161 63 36 197 218 248 203 153 160 124 111 17 2 0 10 38 69 37 37 36 15 1 1 5 8 4 6
1084 1207 803 534 560 393 246 96 0 0 0 7 62 86 124 206 41 51 95 116 116 96 173 192 64 35 0 0 0 0 0 0 1 0 0 0 0 0 0 3 2 9 5
1232 1212 809 571 477 448 433 317 128 25 6 28 45 60 100 154 56 75 7 27 55 69 125 39 0 0 0 0 0 0 0 7 0 0 0 0 0 0 0 2 1 1 3
1176 1063 811 714 671 525 488 254 41 9 19 41 81 170 120 147 114 29 0 29 42 104 103 61 0 0 0 0 0 0 0 0 0 0 0 0 0 0 0 1 0 5 6
1053 947 890 731 594 440 292 86 46 91 128 130 211 204 31 69 0 0 1 20 86 100 164 22 0 0 0 0 0 0 0 0 0 0 0 0 0 0 0 0 0 0 0
881 878 776 693 386 266 233 161 85 71 69 95 99 38 43 51 11 0 1 0 0 5 0 0 0 0 0 0 0 0 0 0 0 0 0 0 0 0 0 0 0 0 0
767 693 648 691 544 341 219 59 15 4 9 0 0 15 83 38 7 0 0 0 0 0 0 0 0 0 0 0 0 0 0 0 0 0 0 0 0 0 0 0 0 0 1
727 726 612 631 414 296 82 1 0 0 0 7 15 128 253 135 23 0 0 0 0 0 0 0 0 0 0 0 0 0 0 0 0 0 0 0 0 0 0 0 0 0 2
710 614 428 178 38 0 0 0 0 0 0 0 0 97 0 14 0 0 0 0 0 0 0 0 0 0 0 0 0 0 0 0 0 0 0 0 0 0 0 0 0 0 2
302 240 111 118 114 66 0 0 0 0 0 0 0 0 0 0 0 0 0 0 0 0 0 0 0 0 0 0 0 0 0 0 0 0 0 0 0 0 0 0 0 0 0
17 0 4 3 12 0 0 0 0 3 4 0 0 0 0 0 0 0 0 0 0 0 0 0 0 0 0 0 0 0 0 0 0 0 0 0 0 0 0 0 0 0 0
0 0 12 37 39 26 12 0 4 32 29 0 0 0 0 0 0 0 0 0 0 0 0 0 0 0 0 0 0 0 0 0 0 0 0 0 0 0 0 0 0 0 0
32 73 105 50 10 27 20 25 33 33 0 0 0 0 0 0 0 0 0 0 0 0 0 0 0 0 0 0 0 0 0 0 0 0 0 0 0 0 0 0 0 0 0
191 78 96 120 111 88 87 81 90 5 0 0 0 0 0 0 0 0 0 0 0 0 0 0 0 0 0 0 0 0 0 0 0 0 0 0 0 0 0 0 0 0 0
46 75 189 226 154 112 110 66 59 49 28 17 4 0 0 0 0 0 0 0 0 0 0 0 0 0 0 0 0 0 0 0 0 0 0 0 0 0 0 0 0 0 0
41 71 68 54 76 44 62 164 179 124 69 34 17 0 0 0 0 0 0 0 0 0 0 0 0 0 0 0 0 0 0 0 0 0 0 0 0 0 0 0 0 0 0
9 10 10 6 12 31 67 52 38 20 35 24 8 0 0 0 0 0 0 0 0 0 0 0 0 0 0 0 0 0 0 0 0 0 0 0 0 0 0 0 0 0 0
0 0 0 0 0 0 0 2 8 0 0 1 1 0 0 0 0 0 0 0 0 0 0 0 0 0 0 0 0 0 0 0 0 0 0 0 0 0 0 0 0 0 0
0 0 0 0 0 0 0 0 0 0 0 0 0 0 0 0 0 0 0 0 0 0 0 0 0 0 0 0 0 0 0 0 0 0 0 0 0 0 0 0 0 0 0

GFSGL_con_mlcape_006.txt.gz
CAPE
2057 2135 2111 2137 2278 2612 2549 2678 2408 2015 1147 660 489 151 105 70 12 9 6 0 0 0 0 0 19 98 49 33 40 25 28 35 32 0 1 1 11 41 35 69 41 23 13
2009 2273 2165 2132 2178 2390 2826 2611 2120 2210 813 633 387 187 112 77 45 90 26 0 0 0 0 0 63 77 86 89 79 55 30 25 57 22 0 3 13 5 27 57 46 44 36
1963 2143 2142 2065 2240 2276 2584 2300 2296 1263 43 55 0 15 123 93 58 98 142 88 4 0 0 16 58 90 79 57 64 20 43 47 58 63 59 68 19 8 29 48 65 33 27
1872 2197 2335 2256 2142 2343 2270 1467 952 146 0 0 0 0 0 149 122 117 131 148 8 0 35 90 142 201 91 94 79 79 99 82 73 48 74 43 39 31 41 33 23 43 20
2046 2152 2395 2495 2473 2274 1876 1062 531 0 0 0 0 0 0 103 64 65 104 55 41 72 116 182 252 379 130 123 47 14 50 27 56 57 48 55 16 23 46 26 31 52 49
2231 2352 2372 2654 2518 2090 1507 735 543 5 0 0 0 0 0 0 0 0 40 66 113 232 312 404 386 235 241 120 24 0 0 0 18 6 6 6 1 67 70 39 47 32 37
2332 2395 2500 2603 2285 1864 1294 892 521 42 0 0 0 0 0 39 5 0 17 31 126 253 518 397 252 116 186 233 151 39 0 0 0 28 81 55 52 44 57 26 45 26 1
2290 2321 2386 2262 2033 1701 1292 901 545 92 0 21 115 46 3 23 133 48 23 139 272 614 591 390 178 139 159 187 188 92 68 79 78 53 28 19 35 24 4 0 1 0 2
2078 2132 2106 1917 1728 1411 1183 1024 835 417 171 339 417 284 212 254 203 80 74 183 353 545 241 139 64 57 140 9 2 20 25 9 1 0 0 0 0 0 0 0 0 8 9
2023 2083 2003 1715 1680 1464 1267 1251 824 716 571 383 447 407 378 596 70 42 65 280 267 153 49 130 73 74 0 0 0 0 0 0 8 0 0 2 0 1 1 3 4 6 16
1966 2125 1871 1682 1761 1730 1462 1129 962 749 534 624 500 415 474 162 486 45 0 141 106 119 144 242 166 0 0 0 0 0 0 0 0 0 0 0 0 1 16 37 30 20 8
2136 2092 1763 1678 1509 1539 1209 919 608 565 680 587 471 600 589 843 463 57 15 19 77 183 386 216 1 0 0 0 0 0 0 0 0 0 0 0 0 1 3 1 0 0 0
1727 1606 1560 1548 1245 954 825 593 596 607 736 655 598 683 628 739 63 0 0 0 4 298 242 15 0 0 0 0 0 0 0 0 0 0 0 0 0 0 0 0 0 0 0
1350 1475 1290 1075 1093 800 789 780 894 835 734 739 743 378 114 203 125 21 0 0 0 2 0 0 0 0 0 0 0 0 0 0 0 0 0 0 0 0 0 0 0 0 0
1301 1349 1136 922 795 970 589 306 599 119 168 268 264 0 12 210 347 131 50 65 64 11 0 0 0 0 0 3 5 1 0 0 0 0 0 0 0 0 0 0 0 0 10
1205 1091 977 992 1024 1011 494 46 0 0 0 0 0 59 29 66 0 0 0 0 0 0 0 0 0 0 0 1 2 0 0 0 0 0 0 0 0 0 0 0 0 0 4
1009 930 758 662 509 553 491 184 25 0 0 0 0 0 0 0 0 0 0 0 0 0 0 0 0 0 0 0 0 0 0 0 0 0 0 0 0 0 0 0 0 0 0
827 380 471 454 449 294 245 241 240 170 57 0 0 0 0 0 0 0 0 0 0 0 0 0 0 0 0 0 0 0 0 0 0 0 0 0 0 0 0 0 0 0 0
69 61 186 79 30 32 59 86 141 170 120 49 0 0 0 0 0 0 0 0 0 0 0 0 0 0 0 0 0 0 0 0 0 0 0 0 0 0 0 0 0 0 0
0 0 6 49 148 178 274 229 218 184 197 158 29 2 0 0 0 0 0 0 0 0 0 0 0 0 0 0 0 0 0 0 0 0 0 0 0 0 0 0 0 0 0
44 82 109 213 172 148 128 114 99 135 164 99 118 46 0 0 0 0 0 0 0 0 0 0 0 0 0 0 0 0 0 0 0 0 0 0 0 0 0 0 0 0 0
130 76 75 59 89 87 88 144 179 154 111 107 93 0 0 0 2 8 2 0 0 0 0 0 0 0 0 0 0 0 0 0 0 0 0 0 0 0 0 0 0 0 0
65 66 124 181 196 110 140 169 203 173 183 134 150 63 0 0 1 11 5 0 0 0 0 0 0 0 0 0 0 0 0 0 0 0 0 0 0 0 0 0 0 0 0
108 126 117 86 54 44 60 113 165 107 141 131 80 30 11 5 20 7 0 0 0 0 0 0 0 0 0 0 0 0 0 0 0 0 0 0 0 0 0 0 0 0 0
44 42 36 33 25 21 75 37 27 9 17 22 26 12 15 24 17 0 0 0 1 0 0 0 0 0 0 0 0 0 0 0 0 0 0 0 0 0 0 0 0 0 0
0 0 0 0 0 0 0 1 2 3 4 6 13 17 16 22 23 20 9 14 15 5 0 0 0 0 0 0 0 0 0 0 0 0 0 0 0 0 0 0 0 0 0

GFSGL_con_mlcape_009.txt.gz
CAPE
2551 2541 2655 2712 2851 3084 2888 2530 2514 1627 1634 880 1137 732 167 145 143 106 79 6 13 24 0 0 0 9 0 5 10 16 3 15 7 0 2 15 62 35 31 52 75 79 51
2338 2711 2793 2772 2783 2773 3107 3019 2759 2148 2041 1333 1018 806 182 88 53 118 100 37 0 0 0 0 6 24 140 297 1 31 29 1 9 9 1 2 12 40 74 69 34 38 56
2064 2403 2720 2616 2871 2746 3067 3008 3124 2960 2413 1582 1119 863 187 122 102 129 128 91 70 18 4 11 49 157 157 83 134 54 27 34 40 12 24 32 17 16 16 92 62 79 71
1549 1701 2334 2760 2795 2760 2970 3079 3188 2980 2675 1592 1041 752 248 226 121 142 139 175 281 261 101 78 144 209 236 256 241 246 173 85 51 51 42 46 44 31 97 45 31 19 17
1714 1900 2299 2912 2838 2760 2720 3184 3197 3004 2569 1585 839 470 412 122 138 248 58 51 249 315 88 92 194 287 279 361 315 170 194 87 80 76 36 21 30 57 54 63 69 56 36
2324 2366 2717 3287 3118 3011 3037 3248 3112 2693 2203 1292 514 108 12 0 0 5 92 1 207 238 125 251 448 514 236 124 126 144 91 46 30 40 18 0 33 41 23 20 33 29 0
2597 3049 3072 3578 3515 3576 3376 3084 2687 2013 1627 774 246 0 0 27 2 2 0 7 63 221 366 492 592 541 166 209 258 157 83 38 33 42 63 91 56 100 34 5 4 9 0
3098 3082 3340 3504 3700 3609 3256 2779 2129 1733 1398 712 194 4 95 118 29 0 0 10 21 63 285 587 750 736 664 269 101 58 179 317 217 118 62 102 47 9 17 3 0 0 0
3001 3104 3237 3289 3455 3202 2841 2479 1812 1587 1435 720 258 80 383 488 165 10 23 60 233 437 619 731 930 907 295 78 56 35 71 98 145 19 0 0 0 0 0 0 0 2 6
2851 2911 3013 3136 3003 2744 2494 2161 1827 1764 1336 934 502 555 765 790 378 109 150 314 417 566 612 1022 475 78 54 40 48 16 75 135 70 33 67 0 0 1 0 0 18 32 28
2296 2495 2742 2737 2676 2441 2112 2023 1917 1638 1294 895 625 738 920 863 675 209 128 362 446 568 721 554 365 68 4 0 0 0 19 0 26 0 0 0 24 14 5 31 57 35 21
2463 2557 2677 2554 2322 2203 1914 1994 1722 1304 1156 1121 981 1156 1078 939 597 178 11 19 138 469 435 331 413 4 0 0 0 0 0 0 0 0 1 22 11 0 0 1 0 0 0
2651 2780 2518 2100 1903 1968 1900 1747 1222 1076 827 998 855 1101 1111 950 668 34 1 0 7 51 158 11 7 0 0 0 0 0 0 0 0 8 18 0 0 0 0 0 7 10 13
2462 1976 1852 1619 1575 1294 1321 1047 801 720 868 1083 1116 1063 1036 816 556 67 0 0 0 2 0 0 0 0 0 0 0 0 0 0 8 0 0 0 0 0 0 0 0 0 0
2313 2017 1676 1476 1281 934 655 611 826 287 498 777 766 860 544 95 10 20 5 11 85 53 54 15 1 0 4 10 12 10 7 8 3 0 0 0 0 0 0 0 0 0 0
2016 1765 1409 1169 1044 843 504 37 0 0 0 0 0 32 24 5 0 0 0 0 0 0 0 0 0 2 16 20 22 25 17 2 0 0 0 0 0 0 0 0 0 0 0
1457 1339 1047 1092 1010 1102 722 664 342 0 0 0 0 0 0 0 0 0 0 0 0 0 0 0 0 2 5 8 6 1 0 0 0 0 0 0 0 0 0 0 0 0 0
1329 904 869 726 591 612 598 415 177 57 4 0 0 0 0 0 0 0 0 0 0 0 0 0 0 3 1 0 0 0 0 0 0 0 0 0 0 0 0 0 0 0 0
1130 658 692 604 509 305 161 146 206 202 149 0 0 0 0 0 0 0 0 0 0 1 2 0 0 0 0 0 0 0 0 0 0 0 0 0 0 0 0 0 0 0 0
224 225 423 264 68 23 54 32 100 143 117 13 0 0 0 0 0 0 0 0 0 0 0 0 0 0 0 0 0 0 0 0 0 0 0 0 0 0 0 0 0 0 0
1 4 13 137 101 106 159 134 117 123 134 140 128 23 0 0 0 13 13 4 0 0 0 0 0 0 0 0 0 0 0 0 0 0 0 0 0 0 0 0 0 0 0
98 101 17 127 93 90 93 90 94 92 110 121 29 7 0 1 3 24 30 12 4 7 7 0 0 0 0 0 0 0 0 0 0 0 0 0 0 0 0 0 0 0 0
71 51 47 48 102 72 90 157 134 124 139 108 12 8 2 41 8 20 10 5 5 9 11 0 0 0 0 0 0 0 0 0 0 0 0 0 0 0 0 0 0 0 0
56 80 93 99 111 137 126 74 49 60 109 128 84 57 19 7 12 21 24 5 16 4 0 2 0 0 0 0 0 0 0 0 0 0 0 0 0 0 0 0 0 0 0
78 69 60 79 75 61 55 40 55 60 31 26 30 24 24 24 12 6 15 0 0 0 0 3 1 0 0 0 0 0 0 0 0 0 0 0 0 0 0 0 0 0 0
53 29 20 23 7 2 2 4 20 33 32 33 33 49 26 16 13 14 18 13 3 6 5 13 2 0 0 0 0 0 0 0 0 0 0 0 0 0 0 0 0 0 0

GFSGL_con_mlcape_012.txt.gz
CAPE
3524 3349 3318 3298 3275 2437 2900 2184 2539 1505 1335 1413 1332 1195 934 604 359 300 53 21 49 51 15 4 1 18 0 7 76 11 0 2 10 0 0 0 1 4 0 28 54 41 39
3339 3233 3304 3367 3378 3283 2499 3087 2561 2755 2048 1092 1289 1276 1045 503 350 243 5 10 168 95 62 23 0 0 20 30 77 4 9 70 18 0 0 2 33 47 32 6 27 53 35
3069 3045 3206 3189 3376 3289 3369 2747 3384 2680 2363 1781 1556 1290 1179 496 448 316 86 54 45 1 6 9 0 14 153 108 240 100 88 62 179 29 10 6 5 1 0 0 0 15 15
2814 2854 2926 3084 3174 3088 3298 3480 3036 3188 2753 2404 1844 1584 1358 646 447 242 343 358 143 43 147 63 47 154 190 148 88 150 190 142 90 34 58 70 35 8 17 21 1 6 16
2285 2646 2884 3151 3138 3162 3110 3442 3500 3360 3361 2932 2467 1861 1577 803 513 540 514 425 349 299 473 98 52 296 404 366 357 249 353 157 35 12 2 11 24 11 0 20 21 16 22
1637 2230 2527 2935 3304 3165 3291 3180 3579 3510 3664 3292 2781 1929 1580 870 256 271 397 473 395 429 383 406 120 161 125 206 103 136 184 86 36 19 14 2 36 44 85 25 20 0 0
1619 2085 2215 2652 3179 3379 3293 3290 3396 3601 3513 3252 2943 1926 1328 730 25 1 141 314 112 253 774 430 250 282 579 619 187 127 114 97 59 15 0 11 60 97 57 2 6 17 0
2035 2269 2519 2954 3386 3488 3464 3422 3556 3665 3469 3057 2531 1647 751 282 76 9 2 4 9 257 405 434 291 312 681 571 374 387 233 68 52 58 56 87 113 76 29 0 0 0 0
2268 3416 3004 4172 4133 4058 4026 3966 3822 3462 2875 2383 1818 889 298 183 39 22 4 0 2 150 247 262 450 605 722 483 431 332 49 116 308 126 106 102 79 0 3 0 0 0 0
3255 3344 4021 4147 4407 4361 4150 3798 3080 2498 2120 1801 1285 749 319 278 458 235 59 98 49 201 278 231 297 439 482 295 167 90 115 99 174 250 129 6 4 0 0 6 7 8 7
3710 3739 3861 4009 4147 4085 3719 2990 2308 1986 1988 1568 1059 692 567 355 711 416 167 265 317 321 224 464 594 412 284 81 25 105 89 0 0 0 0 0 0 7 59 121 68 23 24
3611 3669 3746 3797 3484 3263 2793 2262 2163 1924 1664 1382 973 744 719 819 473 324 103 127 323 344 492 478 435 158 67 17 0 0 0 0 0 0 0 0 14 1 0 0 0 0 0
3081 3350 3410 3141 2857 2643 2259 1998 1926 1731 1325 1078 1155 1069 925 740 762 222 70 0 5 100 276 99 2 0 0 0 0 0 0 0 0 0 0 2 0 0 0 0 0 0 2
3269 3076 2782 2409 2258 2112 2043 1969 1572 1340 1127 1130 1123 1119 927 1026 719 267 110 0 0 0 0 0 0 0 0 0 0 0 0 0 0 4 0 0 0 0 0 0 0 0 0
2639 2382 2043 1745 1635 1418 762 887 1138 341 586 1125 958 865 791 765 750 264 0 0 0 0 0 0 0 0 0 0 0 1 6 8 15 25 0 0 0 0 0 0 0 0 0
2090 1854 1549 1466 1170 734 468 138 0 0 0 0 12 587 8 42 0 0 0 0 0 0 33 147 59 94 95 62 35 38 29 26 21 0 0 0 0 0 0 0 0 0 0
1853 1771 1675 1328 1231 854 571 393 119 0 0 0 0 0 0 0 0 0 0 0 0 0 0 0 0 12 4 0 0 0 0 0 0 0 0 0 0 0 0 0 0 0 0
2107 1664 1473 1401 1375 1314 1192 727 582 100 0 0 0 0 0 0 0 0 0 0 0 0 0 0 0 0 0 0 0 0 0 0 0 0 0 0 0 0 0 0 0 0 0
1341 1155 1055 1011 1302 1201 893 769 308 70 4 0 0 0 0 0 0 0 0 0 0 0 3 17 0 0 0 0 0 0 0 0 0 0 0 0 0 0 0 0 0 0 0
1293 801 793 715 403 367 270 235 207 271 21 0 0 0 0 0 0 0 0 0 0 0 0 0 0 0 0 0 0 0 0 0 0 0 0 0 0 0 0 0 0 0 0
359 426 183 491 217 146 75 69 96 101 77 40 20 0 0 0 0 0 0 0 0 0 1 0 0 0 0 0 0 0 0 0 0 0 0 0 0 0 0 0 0 0 0
27 121 144 190 168 121 151 126 111 60 89 117 95 0 0 0 0 10 11 7 5 2 10 1 0 0 1 0 0 0 0 0 0 0 0 0 0 0 0 0 0 0 0
135 49 25 57 48 40 66 123 89 30 17 12 23 0 0 0 12 17 18 10 1 1 11 0 0 0 0 0 0 0 0 0 0 0 0 0 0 0 0 0 0 0 0
90 61 74 103 66 88 97 91 35 55 39 20 0 1 5 29 7 5 6 12 5 6 1 0 1 0 0 0 0 0 0 0 0 0 0 0 0 0 0 0 0 0 0
39 76 51 93 75 35 34 68 57 58 55 74 65 67 57 27 26 5 12 2 2 0 0 0 1 0 0 0 0 0 0 0 0 0 0 0 0 0 0 0 0 0 0
37 24 13 1 24 21 0 3 29 43 50 33 32 37 52 50 35 24 7 7 5 2 1 2 4 0 0 0 0 0 0 0 0 0 0 0 0 0 0 0 0 0 0

GFSGL_con_mlcape_015.txt.gz
CAPE
2567 2379 2618 2212 2247 1820 1912 2117 1272 1599 1124 925 1016 867 614 430 227 202 136 57 24 4 18 0 8 1 5 0 4 0 0 0 0 0 0 0 0 0 0 0 0 0 8
2710 2716 2705 2627 2591 2305 1854 2091 1775 1394 1515 1269 1005 998 848 548 296 194 124 91 3 81 0 0 0 13 8 0 4 3 32 34 3 0 0 0 0 0 2 0 0 0 5
3013 3007 2899 2719 2862 2674 2263 2097 2140 1796 1596 1469 1288 970 864 718 451 306 157 71 17 18 19 0 3 0 0 1 40 38 63 62 47 7 0 6 2 16 10 0 0 0 20
3199 3130 2998 2830 2705 2835 2918 2250 2236 2761 2234 1664 1345 1137 917 779 533 422 260 125 2 37 121 105 101 6 0 61 121 123 103 75 53 30 20 7 6 22 15 12 0 0 0
2982 3116 2932 2904 2910 2995 2957 3080 2512 2422 2792 2411 1783 1311 1119 862 593 497 324 172 129 0 178 64 25 16 2 59 157 99 95 103 106 87 15 0 0 0 4 3 0 0 0
2777 2892 2888 2870 2958 2997 3091 3019 3189 2840 2706 2715 2361 1805 1486 1248 842 613 421 331 236 223 103 156 236 128 127 279 380 285 244 125 132 62 24 0 0 0 0 3 0 0 0
2354 2734 2769 2699 2885 2962 3040 3025 3158 3306 3165 3139 2850 2371 1871 1589 843 489 448 374 330 332 243 267 553 348 128 146 167 216 201 145 159 59 13 0 0 0 20 27 0 0 0
1897 2422 2557 2707 2674 2998 3078 3153 3116 3331 3355 3368 3158 2775 2291 1550 792 450 203 277 320 303 365 490 306 285 179 288 398 394 219 146 163 82 3 2 0 52 71 59 6 0 0
1648 1851 2262 2397 2713 2990 3194 3220 3241 3339 3417 3313 2850 2410 1957 1232 618 120 8 11 115 103 112 215 381 367 302 248 184 156 191 165 165 139 187 192 120 106 133 39 2 7 0
1418 1728 2051 2205 2641 3079 3273 3290 3405 3350 3007 2794 2498 1994 1283 864 267 177 16 3 0 0 3 35 264 238 238 132 42 73 61 88 108 94 83 16 0 0 0 0 12 3 3
1411 2607 2384 2769 3358 3446 3573 3446 3117 2712 2668 2426 1900 1113 712 629 403 153 36 79 164 174 92 76 120 74 148 82 75 102 121 36 18 3 0 0 0 0 0 6 17 2 0
3272 3014 3816 4003 4189 3742 3558 2827 2513 2477 2089 1566 1289 1038 739 502 387 216 330 246 362 275 224 253 191 255 112 75 70 4 0 0 0 0 0 0 0 0 0 0 0 0 0
3380 3837 3858 3772 3541 3310 2805 2288 2023 1807 1633 1405 1195 925 769 782 564 405 210 51 12 216 192 149 6 18 16 11 0 0 0 0 0 0 0 0 0 0 0 0 0 0 0
3481 3352 3154 3017 2675 2297 1931 1742 1649 1509 1352 1138 878 846 843 655 461 237 33 0 0 0 0 1 2 0 0 0 0 0 0 0 0 0 0 0 0 0 0 0 0 0 0
2888 2587 2469 2292 1839 1113 541 873 1146 483 740 840 931 942 778 634 624 321 6 0 0 0 0 0 0 0 0 0 0 0 0 0 0 1 3 0 0 0 0 0 0 0 0
2179 1995 1905 1420 1018 772 623 318 0 16 9 271 789 575 128 422 323 8 0 0 0 0 0 0 0 0 0 0 0 2 0 5 10 10 0 0 0 0 0 0 0 0 0
2072 1789 1556 1211 970 805 623 532 339 0 0 0 16 17 1 2 0 0 0 0 0 0 0 27 1 0 0 0 0 0 0 4 1 0 0 0 0 0 0 0 0 0 0
1694 1532 1368 1145 1005 887 717 478 192 132 52 0 0 0 0 0 0 0 0 0 0 0 0 0 0 0 0 0 0 0 0 0 0 0 0 0 0 0 0 0 0 0 0
1737 1623 1425 1211 911 778 653 410 79 19 0 0 0 0 0 0 0 0 0 0 0 0 0 0 0 0 0 0 0 0 0 0 0 0 0 0 0 0 0 0 0 0 0
1511 1534 1433 1434 1322 1065 960 801 399 19 0 0 0 0 0 0 0 0 0 0 0 0 0 0 0 0 0 0 0 0 0 0 0 0 0 0 0 0 0 0 0 0 0
867 546 419 350 1008 837 624 365 300 70 1 4 0 0 0 0 0 0 0 0 0 0 0 0 0 0 0 0 0 0 0 0 0 0 0 0 0 0 0 0 0 0 0
269 234 122 280 80 51 15 12 7 37 22 24 4 0 0 0 0 0 0 0 0 0 1 0 0 0 0 0 0 0 0 0 0 0 0 0 0 0 0 0 0 0 0
43 98 65 52 66 73 32 0 0 17 22 14 8 1 0 0 0 0 0 2 1 4 0 0 0 0 0 0 0 0 0 0 0 0 0 0 0 0 0 0 0 0 0
28 49 70 52 29 13 4 1 1 1 3 13 14 7 0 0 0 5 1 2 0 5 0 0 0 0 0 0 0 0 0 0 0 0 0 0 0 0 0 0 0 0 0
19 17 19 34 38 13 3 7 13 14 14 18 3 0 0 5 17 1 0 0 0 7 0 0 0 0 0 0 0 0 0 0 0 0 0 0 0 0 0 0 0 0 0
32 32 20 20 4 2 0 0 0 34 39 66 40 21 22 33 15 12 4 0 0 0 0 0 0 0 0 0 0 0 0 0 0 0 0 0 0 0 0 0 0 0 0

GFSGL_con_mlcape_018.txt.gz
CAPE
1646 1620 1516 1289 1259 1522 1468 1454 1267 1205 1223 1110 964 733 478 243 114 54 20 53 20 0 7 0 0 0 0 0 0 0 0 0 0 1 0 0 0 0 0 0 0 0 0
1715 1816 1767 1667 1600 1370 1365 1485 1556 1509 1143 1157 1062 835 585 408 229 118 89 50 19 0 0 14 5 0 0 1 4 0 6 0 4 4 0 0 0 0 3 3 19 1 0
1882 1936 2113 1992 1929 1794 1478 1529 1560 1526 1387 1144 955 906 704 601 400 301 191 55 10 6 0 0 0 0 0 15 10 0 22 45 37 30 19 13 6 5 18 4 0 3 1
2197 2038 2078 2207 2089 2075 1955 1692 1686 1616 1569 1387 1163 1077 934 654 494 458 324 170 32 28 0 0 0 0 9 1 2 0 34 74 73 76 42 27 14 8 11 10 0 0 0
2261 2376 2192 2257 2356 2348 2304 2075 1849 1842 1741 1625 1389 1261 1036 899 705 563 407 280 101 62 38 0 34 60 29 19 8 0 72 99 91 83 28 28 16 7 0 0 0 0 0
2395 2402 2590 2482 2458 2448 2571 2532 2176 2016 2132 1912 1635 1503 1368 1115 897 663 586 430 270 126 77 0 2 69 139 83 9 8 49 143 79 31 17 22 29 7 0 0 0 0 0
2408 2655 2758 2706 2604 2559 2586 2659 2691 2381 2207 2185 2091 2010 1824 1548 1192 824 604 489 443 334 146 69 11 197 206 209 169 147 175 114 117 0 17 22 14 3 0 0 0 0 0
2493 2641 2866 2751 2676 2693 2730 2740 2751 2835 2593 2481 2330 2160 2141 1956 1510 1025 659 534 465 402 350 182 136 207 253 237 115 102 123 62 3 36 13 55 31 20 10 26 30 0 0
2353 2513 2687 2724 2628 2722 2662 2755 2808 2929 2949 2854 2874 2620 2393 1648 1506 1057 792 550 466 407 314 327 412 383 342 158 100 208 117 49 88 144 83 119 120 82 25 2 11 0 0
1959 2261 2550 2626 2573 2625 2743 2785 2844 2941 2926 3019 2943 2739 2450 1746 1117 1064 721 431 398 219 201 233 142 100 190 21 133 145 93 9 24 41 4 0 1 0 0 0 0 0 0
1829 1967 2348 2542 2532 2559 2796 2861 2923 2956 2937 2714 2480 2026 1681 1747 1035 670 226 133 33 1 0 0 14 0 88 49 74 38 51 32 34 0 0 0 0 0 0 0 0 0 0
1563 1630 1789 2210 2347 2606 2842 2941 2907 2779 2643 2196 1763 1737 1641 1078 786 403 147 42 27 57 201 180 70 34 28 0 28 45 39 14 0 0 0 0 0 0 0 0 0 0 0
1289 1574 1762 2000 2386 2782 2807 2664 2570 2452 2144 1760 1549 1507 988 587 347 197 71 30 95 358 306 145 32 0 0 0 0 19 0 0 0 0 0 0 0 0 0 0 0 0 0
1724 2324 2615 2564 2689 2676 2476 2316 2276 2031 1769 1565 1318 1021 734 625 419 142 50 2 0 47 4 0 0 0 0 0 0 0 0 0 0 0 0 0 0 0 0 0 0 0 0
2629 2538 2575 2114 1991 1304 630 1094 1370 1214 1443 1261 909 764 695 620 493 270 139 30 1 0 0 0 0 0 0 0 0 0 0 0 0 0 0 0 0 0 0 0 0 0 0
2453 2123 1274 1001 590 397 601 48 0 23 481 661 638 642 397 526 414 199 2 0 0 0 0 0 0 0 0 0 0 0 0 0 0 0 0 0 0 0 0 0 0 0 0
1993 1320 1039 866 542 355 418 253 252 2 2 219 556 574 454 194 7 0 0 0 0 0 0 0 0 0 0 0 0 0 0 0 0 0 0 0 0 0 0 0 0 0 0
882 62 923 562 369 251 357 193 132 116 128 39 0 0 60 48 0 0 0 0 0 0 0 0 0 0 0 0 0 0 0 0 0 0 0 0 0 0 0 0 0 0 0
773 611 653 672 546 397 288 117 5 0 0 0 0 0 0 0 0 0 0 0 0 0 0 0 0 0 0 0 0 0 0 0 0 0 0 0 0 0 0 0 0 0 0
958 966 915 735 647 512 279 100 22 3 0 0 0 0 0 0 0 0 0 0 0 0 0 0 0 0 0 0 0 0 0 0 0 0 0 0 0 0 0 0 0 0 0
1008 1030 954 854 697 567 418 175 0 0 0 0 0 0 0 0 0 0 0 0 0 0 0 0 0 0 0 0 0 0 0 0 0 0 0 0 0 0 0 0 0 0 0
288 389 309 1145 953 645 536 347 223 4 0 0 0 0 0 0 0 0 0 0 0 0 0 0 0 0 0 0 0 0 0 0 0 0 0 0 0 0 0 0 0 0 0
64 30 6 104 300 322 220 166 217 62 1 0 0 0 0 0 0 0 0 0 0 0 0 0 0 0 0 0 0 0 0 0 0 0 0 0 0 0 0 0 0 0 0
4 0 0 0 0 5 1 0 1 36 30 7 0 0 0 0 0 0 0 0 0 0 0 0 0 0 0 0 0 0 0 0 0 0 0 0 0 0 0 0 0 0 0
2 5 3 26 0 0 0 0 1 22 30 32 9 0 0 0 0 0 0 0 4 0 0 0 0 0 0 0 0 0 0 0 0 0 0 0 0 0 0 0 0 0 0
19 4 9 11 1 0 0 0 0 2 4 16 2 1 0 0 0 3 0 0 0 0 0 0 0 0 0 0 0 0 0 0 0 0 0 0 0 0 0 0 0 0 0

GFSGL_con_mlcape_021.txt.gz
CAPE
851 987 972 895 960 907 879 838 790 853 1084 1119 1070 1022 676 468 256 135 59 0 0 0 0 0 0 0 0 0 0 0 0 0 0 0 0 0 0 0 0 0 0 0 0
809 923 953 982 1086 1065 967 964 837 873 1078 1141 1124 971 719 604 394 248 146 35 2 0 0 0 0 0 0 0 0 0 2 0 0 0 0 0 5 5 0 0 0 0 0
922 1060 1059 1028 1025 1108 1194 1194 1121 970 1168 1042 1034 1076 842 691 500 223 175 135 52 28 0 0 0 0 0 0 0 5 7 3 0 0 4 2 12 10 10 5 0 0 0
1166 1255 1274 1271 1186 1089 1176 1276 1318 1203 1134 1209 1151 1034 1014 848 633 414 261 203 114 108 18 4 0 0 0 0 2 10 5 3 2 23 31 29 18 17 17 12 6 0 0
1274 1451 1411 1483 1458 1445 1370 1261 1277 1287 1310 1141 1165 1154 1044 894 760 619 484 394 352 269 38 31 14 0 0 0 1 8 0 1 6 37 32 19 11 2 9 3 0 0 0
1441 1506 1631 1698 1687 1698 1723 1619 1498 1410 1408 1264 1176 1125 1137 1128 895 730 656 567 438 339 296 153 46 0 0 5 12 20 26 8 0 25 46 23 0 0 0 0 0 0 0
1613 1707 1774 1781 1804 1874 1941 1922 1792 1666 1621 1415 1353 1309 1181 1396 1137 1006 753 648 495 346 366 311 156 53 0 1 43 39 16 3 6 27 5 0 0 7 4 0 0 0 1
1737 1890 2051 2005 1891 2015 2109 2104 2080 1895 1825 1795 1528 1436 1431 1468 1280 1039 971 790 609 487 459 423 376 254 99 16 73 117 39 6 44 1 0 2 9 4 11 4 6 0 0
1802 1959 2134 2264 2206 2150 2118 2159 2288 2236 1952 1977 1822 1671 1688 1732 1544 1507 1116 839 702 684 560 587 363 319 226 111 283 180 21 36 37 29 1 33 67 17 1 0 0 0 0
1843 2007 2249 2396 2385 2320 2244 2256 2318 2404 2357 2117 2149 2093 2036 2069 1753 1621 1376 1077 886 992 912 484 368 350 308 225 323 176 10 23 35 2 0 0 0 0 0 0 0 0 0
1835 2110 2349 2546 2516 2444 2403 2389 2469 2504 2598 2499 2511 2413 2294 2234 1731 965 1204 1210 1158 890 642 298 119 85 3 0 4 47 19 2 2 4 0 0 0 0 0 0 0 0 0
1562 1883 2188 2351 2568 2446 2459 2484 2601 2651 2741 2796 2575 2350 2269 1749 1106 680 1250 872 493 330 89 2 1 20 0 0 0 2 0 0 0 0 0 0 0 0 0 0 0 0 0
1404 1578 1770 2206 2420 2416 2474 2515 2619 2672 2727 2273 2258 2228 1728 1156 755 696 726 225 105 67 6 14 20 0 0 0 0 0 0 0 0 0 0 0 0 0 0 0 0 0 0
1328 1408 1554 1951 2295 2332 2496 2607 2664 2719 2445 2078 1925 1709 1294 1045 632 185 107 0 0 0 1 0 0 0 0 0 0 0 0 0 0 0 0 0 0 0 0 0 0 0 0
1113 1296 1398 1739 2133 2415 1804 2242 2547 1841 1754 1496 1171 956 1070 628 399 203 47 6 0 14 0 0 0 0 0 0 0 0 0 0 0 0 0 0 0 0 0 0 0 0 0
1072 1358 1705 1924 1282 1037 1102 775 72 303 729 418 526 135 218 194 178 133 41 10 0 0 0 3 0 0 0 0 0 0 0 0 0 0 0 0 0 0 0 0 0 0 0
2032 1696 1142 822 947 998 891 743 272 2 3 0 0 138 253 99 98 39 0 0 0 0 0 0 0 0 0 0 0 0 0 0 0 0 0 0 0 0 0 0 0 0 0
641 640 622 416 387 366 184 1 0 0 11 30 0 51 92 40 27 0 0 0 0 0 0 0 0 0 0 0 0 0 0 0 0 0 0 0 0 0 0 0 0 0 0
249 349 230 90 0 0 0 0 0 0 5 14 0 0 0 0 0 0 0 0 0 0 0 0 0 0 0 0 0 0 0 0 0 0 0 0 0 0 0 0 0 0 0
0 105 188 20 0 0 0 0 6 0 8 14 35 8 0 0 0 0 0 0 0 0 0 0 0 0 0 0 0 0 0 0 0 0 0 0 0 0 0 0 0 0 0
0 227 76 74 54 23 35 60 36 50 58 20 3 0 0 0 0 0 0 0 0 0 0 0 0 0 0 0 0 0 0 0 0 0 0 0 0 0 0 0 0 0 0
380 546 518 449 309 231 89 24 6 1 4 1 0 0 0 0 0 0 0 0 0 0 0 0 0 0 0 0 0 0 0 0 0 0 0 0 0 0 0 0 0 0 0
143 393 476 448 349 215 151 96 21 2 0 0 0 0 0 0 0 0 0 0 0 0 0 0 0 0 0 0 0 0 0 0 0 0 0 0 0 0 0 0 0 0 0
10 73 104 224 237 184 115 111 47 6 0 0 0 0 0 0 0 0 0 0 0 0 0 0 0 0 0 0 0 0 0 0 0 0 0 0 0 0 0 0 0 0 0
0 0 0 0 20 31 19 1 8 18 7 10 0 0 0 0 0 0 0 0 0 0 0 0 0 0 0 0 0 0 0 0 0 0 0 0 0 0 0 0 0 0 0
0 9 10 2 4 6 7 7 15 21 14 0 0 0 0 0 0 0 0 0 0 0 0 0 0 0 0 0 0 0 0 0 0 0 0 0 0 0 0 0 0 0 0

GFSGL_con_mlcape_024.txt.gz
CAPE
597 628 630 601 597 514 472 525 543 567 666 810 671 953 899 819 625 428 179 96 13 0 0 0 0 0 0 0 0 0 0 0 0 0 0 0 0 0 0 0 0 0 0
650 793 797 755 735 625 564 605 638 652 719 806 624 909 923 709 709 627 465 215 83 1 0 0 0 0 0 0 0 0 0 0 0 0 0 0 0 0 0 0 0 0 0
454 832 912 883 812 765 680 710 682 801 853 836 712 858 952 895 692 628 551 502 270 98 1 0 0 0 0 0 0 0 0 0 0 0 0 0 0 0 0 0 0 0 0
519 675 855 918 893 863 846 820 770 849 893 957 895 1029 1031 1014 824 680 579 630 496 272 93 5 12 0 0 0 0 0 0 5 2 0 0 0 0 4 0 2 3 0 0
617 679 852 930 965 975 1029 983 985 957 982 1002 915 953 1047 956 935 846 662 678 611 433 218 80 53 10 2 0 0 0 0 0 1 0 1 0 8 0 0 0 0 0 0
692 723 904 1065 1046 1005 1010 1102 1116 1157 1180 1087 1054 940 1067 1112 921 760 913 825 619 527 447 273 158 62 2 0 0 0 0 0 1 0 0 10 16 0 0 1 0 0 2
797 924 1077 1206 1246 1219 1189 1103 1080 1118 1217 1191 1176 1102 1001 1196 1024 893 845 934 909 716 590 430 331 229 113 42 1 0 0 0 12 29 11 8 2 0 1 0 0 2 5
987 1047 1259 1412 1453 1483 1487 1367 1278 1228 1178 1243 1225 1211 1145 1107 997 890 843 984 988 862 741 619 644 564 343 198 115 8 0 3 19 16 22 3 0 0 0 0 0 0 1
1107 1202 1353 1536 1598 1626 1645 1622 1630 1558 1430 1398 1356 1288 1338 1283 936 825 806 970 977 1032 864 696 726 602 357 197 141 58 0 13 12 13 13 0 1 0 5 0 0 0 0
1113 1327 1528 1623 1629 1690 1777 1856 1870 1837 1707 1608 1514 1455 1481 1535 1058 915 935 1160 1181 1156 880 791 681 606 369 124 175 112 205 99 12 6 1 0 0 0 0 0 0 0 0
1063 1528 1773 1864 1826 1830 1913 2118 2130 2144 2010 1779 1698 1604 1662 1626 1393 1066 1009 1363 1467 1195 1201 910 668 443 240 99 116 123 19 7 0 0 0 0 0 0 0 0 0 0 0
1163 1497 1715 1967 2129 2164 2086 2167 2163 2271 2225 2040 1852 1890 1868 1819 1750 954 981 1426 1311 1490 1367 859 566 159 32 0 0 0 0 3 0 0 0 0 0 0 0 0 0 0 0
1100 1527 1893 2112 2275 2300 2335 2281 2255 2244 2314 2257 2128 2088 2085 1706 853 999 1117 1246 1186 1118 781 360 4 0 0 0 0 0 0 0 0 0 0 0 0 0 0 0 0 0 0
948 1287 1674 2125 2290 2530 2413 2375 2389 2323 2242 2049 1820 2236 1886 1005 891 692 721 379 329 252 0 0 2 0 0 0 0 0 0 0 0 0 0 0 0 0 0 0 0 0 0
1192 919 1326 1822 2209 2477 1887 1857 2317 2377 2421 2448 2031 1678 1098 761 469 146 2 50 62 16 0 0 14 0 0 0 0 0 0 0 0 0 0 0 0 0 0 0 0 0 0
1135 1245 1151 1475 1936 1460 1076 700 831 1216 1374 770 331 147 1 0 0 28 9 4 0 0 57 64 14 0 0 0 0 0 0 0 0 0 0 0 0 0 0 0 0 0 0
505 992 1222 1298 1140 1021 1096 901 945 204 180 44 0 0 0 0 0 21 0 0 0 3 92 38 17 0 0 0 0 0 0 0 0 0 0 0 0 0 0 0 0 0 0
935 1158 1014 842 752 936 676 658 309 169 0 0 0 0 0 0 0 0 0 0 5 14 47 28 1 0 0 0 0 0 0 0 0 0 0 0 0 0 0 0 0 0 0
114 376 473 617 513 168 5 4 1 0 1 0 0 0 0 0 0 0 1 66 11 0 0 0 0 0 0 0 0 0 0 0 0 0 0 0 0 0 0 0 0 0 0
2 0 0 1 3 1 0 0 0 0 0 0 0 4 9 0 0 0 0 0 0 0 0 0 0 0 0 0 0 0 0 0 0 0 0 0 0 0 0 0 0 0 0
0 0 0 0 25 1 0 0 0 0 0 0 0 4 3 18 0 0 0 0 0 0 0 0 0 0 0 0 0 0 0 0 0 0 0 0 0 0 0 0 0 0 0
0 0 0 0 0 0 0 0 0 0 0 0 1 1 0 0 0 0 0 0 0 0 0 0 0 0 0 0 0 0 0 0 0 0 0 0 0 0 0 0 0 0 0
3 10 26 19 1 0 0 1 0 0 0 0 0 0 0 0 0 0 0 0 0 0 0 0 0 0 0 0 0 0 0 0 0 0 0 0 0 0 0 0 0 0 0
11 35 59 44 25 21 17 11 7 2 0 0 0 0 0 0 0 0 0 0 0 0 0 0 0 0 0 0 0 0 0 0 0 0 0 0 0 0 0 0 0 0 0
0 15 24 27 39 41 14 4 0 0 0 0 0 0 0 0 0 0 0 0 0 0 0 0 0 0 0 0 0 0 0 0 0 0 0 0 0 0 0 0 0 0 0
0 10 16 6 3 33 9 0 0 0 1 1 0 0 0 0 0 0 0 0 0 0 0 0 0 0 0 0 0 0 0 0 0 0 0 0 0 0 0 0 0 0 0

GFSGL_con_mlcape_027.txt.gz
CAPE
809 821 798 813 875 901 945 932 921 1061 1117 1209 1341 1363 1475 1322 1353 1264 1146 745 434 370 126 47 48 22 2 3 0 0 0 0 0 0 0 9 1 0 1 36 30 58 41
866 932 909 928 956 923 909 946 994 1005 1123 1215 1356 1382 1445 1348 1385 1293 1261 966 696 548 353 59 22 11 0 0 0 0 0 0 0 0 0 8 5 14 63 58 66 16 59
958 1002 1089 1076 1069 1044 1011 1055 1088 1108 1140 1189 1344 1377 1426 1426 1361 1264 1339 1271 906 772 550 249 46 34 0 0 0 0 0 0 0 0 0 8 22 30 46 71 106 77 66
904 1015 1080 1121 1143 1169 1160 1177 1172 1215 1158 1206 1329 1440 1460 1425 1369 1333 1262 1372 1188 948 780 508 287 107 28 0 0 0 2 0 2 0 0 0 21 75 91 77 52 21 8
925 974 1081 1214 1339 1367 1274 1247 1298 1363 1242 1277 1298 1419 1482 1376 1268 1354 1307 1428 1348 1138 993 784 531 323 127 48 2 41 62 22 5 11 0 0 1 27 12 51 36 21 15
826 808 1040 1387 1471 1438 1402 1358 1339 1363 1352 1455 1451 1442 1441 1397 1191 1078 1304 1431 1369 1311 1302 1143 789 345 132 21 1 5 90 83 28 40 36 45 119 3 15 16 22 35 12
766 879 1070 1279 1449 1502 1531 1533 1420 1481 1445 1410 1404 1453 1474 1526 993 754 824 1393 1448 1470 1480 1444 1128 626 321 209 35 0 0 0 8 233 206 267 113 5 16 22 31 20 83
842 1046 1221 1278 1378 1511 1601 1601 1619 1614 1541 1518 1475 1475 1503 1584 1071 683 651 1251 1470 1509 1566 1550 1320 1001 715 517 530 250 53 5 0 1 268 427 36 73 10 49 100 208 230
823 1034 1202 1194 1373 1572 1544 1566 1688 1741 1764 1732 1751 1659 1567 1642 1107 814 642 1084 1538 1581 1664 1554 1292 1160 856 432 608 538 239 197 89 2 26 5 5 1 5 97 52 46 7
874 962 1138 1408 1519 1558 1696 1777 1827 1769 1794 1828 1843 1782 1637 1690 1183 846 797 1309 1490 1596 1659 1446 907 1082 824 432 572 661 644 468 244 18 0 0 0 0 0 19 1 0 0
1186 1545 1716 1751 1803 1882 1980 2080 2125 2113 2080 1974 1937 1831 1721 1580 1817 853 825 1407 1506 1571 1505 1159 1258 647 612 248 304 918 720 638 229 81 0 2 0 0 0 0 0 0 0
1351 1499 1765 1865 1903 2014 2120 1936 2194 2303 2344 2394 2293 2083 2022 2019 1550 933 760 1076 1477 1552 1150 1207 1421 724 384 272 183 566 297 129 84 25 0 0 0 0 0 0 0 0 0
1244 1529 1853 2128 2268 2269 2412 2390 2316 2221 2229 2308 2230 2143 2059 1803 1863 1205 845 670 1118 1291 1113 1178 1095 545 302 41 42 49 0 40 3 0 0 0 0 0 0 0 0 0 0
1310 1494 1801 2077 2394 2631 2719 2598 2429 2166 1180 511 2247 2212 2044 1858 1663 542 477 568 788 884 673 252 158 57 5 1 0 0 82 55 0 0 0 0 0 0 0 0 0 0 0
1642 1504 1766 2211 2331 2721 2767 2713 2540 2282 2220 1972 2282 2268 2281 1625 720 128 132 26 47 11 11 19 5 0 0 0 1 1 10 0 0 0 0 0 0 0 0 0 0 0 0
687 1184 1306 1650 2127 2483 2868 2207 1220 1476 2067 1846 2205 2257 1563 600 0 14 108 22 0 0 16 0 1 0 24 2 0 0 0 0 0 0 0 0 0 0 0 0 0 0 0
198 618 1276 1146 1517 2445 1711 1832 1642 633 627 1282 1269 1057 641 0 0 0 0 0 0 0 1 4 87 15 17 0 0 0 0 0 0 0 0 0 0 0 0 0 0 0 0
205 10 381 1132 1605 1246 1113 1045 713 1012 932 6 7 60 0 0 0 0 0 0 0 0 14 16 0 2 0 0 0 0 0 0 0 0 0 0 0 0 0 0 0 0 0
123 0 0 9 105 233 505 293 349 133 25 5 0 0 0 0 0 0 0 0 1 0 52 96 46 7 0 0 0 0 0 0 0 0 0 0 0 0 0 0 0 0 0
0 0 0 0 0 0 0 0 0 5 3 2 0 0 0 0 0 0 0 1 0 13 30 68 26 1 0 0 0 0 0 0 0 0 0 0 0 0 0 0 0 0 0
0 5 0 2 0 0 0 0 0 0 0 1 3 1 0 1 0 2 2 3 0 5 40 41 2 0 0 0 0 0 0 0 0 0 0 0 0 0 0 0 0 0 0
32 18 7 0 2 1 0 0 1 0 3 2 0 0 0 2 4 4 2 18 2 15 14 0 0 0 0 0 0 0 0 0 0 0 0 0 0 0 0 0 0 0 0
4 5 2 1 1 0 0 0 2 0 0 0 0 3 2 15 12 1 0 0 0 0 0 0 0 0 0 0 0 0 0 0 0 0 0 0 0 0 0 0 0 0 0
56 62 0 5 13 4 3 1 1 3 4 5 5 4 0 0 0 0 0 0 0 0 0 0 0 0 0 0 0 0 0 0 0 0 0 0 0 0 0 0 0 0 0
0 1 14 87 96 45 19 1 0 0 0 2 0 0 0 0 0 1 0 0 0 0 0 0 0 0 0 0 0 0 0 0 0 0 0 0 0 0 0 0 0 0 0
0 0 0 1 0 0 1 1 0 1 0 0 0 0 0 4 0 13 6 1 0 0 0 0 0 0 0 0 0 0 0 0 0 0 0 0 0 0 0 0 0 0 0

GFSGL_con_mlcape_030.txt.gz
CAPE
1725 1855 1819 1780 1840 1977 1951 2011 2098 1827 1942 1871 1781 1787 1677 2069 2296 2413 2100 1717 1767 1316 795 253 283 141 9 0 6 2 0 0 0 1 0 13 123 88 0 0 15 8 10
1684 1893 1874 1924 1918 1803 1979 2008 2147 2027 2015 2163 2070 2030 1864 1820 2062 2239 2254 1711 1872 1628 1402 949 382 242 282 49 15 27 0 0 0 0 0 36 102 123 112 219 54 0 2
1756 1797 1813 1841 1865 1931 2102 2081 2162 2123 2172 1873 2175 2280 2113 1954 2015 2103 2199 2229 1970 1938 1705 1445 936 300 293 38 59 0 0 0 12 0 0 25 10 100 181 282 201 166 64
1444 1648 1848 2040 1947 2016 2188 2135 2188 2255 2279 2227 2198 2534 2375 2165 2035 1982 2011 2144 2175 2011 2018 1778 1356 901 479 425 158 94 7 0 1 0 0 0 24 36 19 0 172 221 46
1449 1578 1898 2156 2261 2223 2194 2206 2246 2379 2308 2367 2352 2433 2581 2194 1965 2181 2104 2012 2236 2140 2104 2068 1766 1404 842 725 532 269 140 170 0 11 31 8 12 16 129 28 0 0 114
1504 1688 1861 2214 2422 2343 2374 2319 2355 2339 2386 2417 2313 2494 2461 2219 1811 1559 2053 1973 2348 2288 2242 2193 1994 1323 919 456 324 223 334 344 226 23 68 44 105 197 206 55 2 16 16
1498 1857 1963 2240 2368 2429 2515 2509 2394 2379 2502 2432 2407 2431 2527 2553 1733 1419 1396 1786 2266 2279 2322 2398 2206 1931 1289 1094 274 85 42 115 187 297 201 169 155 366 431 291 211 125 109
1671 1829 2079 2206 2424 2627 2619 2586 2554 2584 2526 2673 2626 2605 2598 2735 2137 1337 1210 1556 2218 2295 2335 2493 2513 2310 1933 1460 1273 474 197 204 103 54 185 403 497 576 635 301 355 197 190
1692 1854 1998 2208 2235 2465 2683 2610 2745 2644 2594 2637 2565 2730 2855 2814 2246 1616 1277 1566 1723 2427 2353 2436 2565 2574 2354 1275 1409 1181 971 769 333 75 49 159 354 204 170 190 63 68 69
1622 1786 2029 2242 2305 2337 2654 2758 2754 2670 2554 2475 2542 2696 2765 2912 2581 1677 1457 1707 1796 1860 2436 2561 1983 2352 2088 1265 1213 1370 1339 1327 818 203 46 33 1 3 0 13 36 25 18
1751 1814 2108 2369 2477 2527 2798 2805 2802 2726 2484 2714 2711 2702 2872 2890 2798 1760 1390 1783 1896 1929 1704 2055 2172 1638 1280 1008 754 1066 1183 1428 746 647 243 270 272 161 15 1 15 0 0
1884 2005 2337 2631 2391 2340 2847 3040 2864 2810 2816 2661 2577 2645 2666 2904 2564 1881 1523 1307 1884 2036 2019 1687 2025 1301 781 545 405 689 682 773 934 707 440 272 192 104 39 2 0 0 0
2002 2223 2412 2688 2807 2648 2994 3135 2968 3015 2633 2599 2286 2794 2499 2821 2693 2128 1270 1064 1072 1702 1986 1978 1602 795 466 227 255 255 403 637 669 449 280 259 89 35 2 0 0 0 0
2090 2260 2492 2743 2847 2812 2689 2945 2710 2570 2823 2590 2664 2777 2652 2743 2760 2586 1433 808 960 810 1044 853 477 326 92 53 37 104 284 303 319 293 213 71 16 1 0 0 0 0 0
2581 2704 2781 2744 2819 3019 3044 2829 2771 2760 2774 2873 2811 2648 2604 2583 2639 2541 1367 925 904 598 183 149 13 26 2 0 38 102 162 173 191 159 83 18 2 0 0 0 0 0 0
2070 2056 1997 2042 2298 2671 2745 3068 1848 2037 1942 2176 2332 1968 1848 1990 1869 1529 524 601 217 7 204 105 24 5 9 6 48 47 121 108 128 76 29 8 1 0 0 0 0 0 0
1142 1161 1081 1205 1162 1349 1887 2377 2529 2437 1433 1433 1625 1935 1732 1307 1264 746 377 129 46 123 317 179 52 0 5 0 0 57 166 64 6 9 3 4 0 0 0 1 0 0 0
437 38 810 886 1099 1446 1982 2168 2428 2504 2273 1965 1288 717 1050 826 680 416 157 9 10 23 71 13 0 0 0 0 4 1 66 7 1 0 0 0 0 0 0 0 0 0 0
42 285 185 67 33 83 126 185 321 414 234 111 0 4 6 137 27 1 0 55 0 18 92 54 7 15 26 12 18 21 1 0 0 0 0 0 0 0 0 0 0 0 0
14 0 2 24 0 0 2 0 0 0 0 0 0 0 0 0 3 6 2 4 4 58 108 132 94 14 12 37 21 1 0 0 0 0 0 0 0 0 0 0 0 0 0
216 265 0 1 0 3 0 0 5 7 6 0 0 0 0 0 0 24 2 5 24 76 159 187 88 40 39 28 1 0 0 0 0 0 0 0 0 0 0 0 0 0 0
345 162 79 20 6 1 7 6 7 3 9 2 0 1 0 0 0 7 35 9 17 5 24 88 189 107 19 0 0 0 0 0 0 0 0 0 0 0 0 0 0 0 0
208 166 78 64 55 0 0 0 6 7 3 5 2 0 1 2 2 6 31 22 17 27 93 205 242 29 2 0 0 0 0 0 0 0 0 0 0 0 0 0 0 0 0
403 449 150 17 17 3 3 2 2 2 3 2 1 12 19 0 0 2 3 1 3 30 22 36 5 0 0 0 0 0 0 0 0 0 0 0 0 0 0 0 0 0 0
0 0 32 146 187 58 4 0 1 3 2 2 0 0 0 3 1 0 0 0 0 0 1 2 0 0 0 0 0 0 0 0 0 0 0 0 0 0 0 0 0 0 0
0 0 0 0 2 3 12 5 2 2 2 2 2 1 0 0 0 0 2 7 16 21 19 0 0 0 0 0 0 0 0 0 0 0 0 0 0 0 0 0 0 0 0

GFSGL_con_mlcape_033.txt.gz
CAPE
2360 2378 2396 2641 2744 2883 2410 2622 2561 2583 2647 1846 2288 2029 2171 2305 2388 2693 2295 2011 2268 1983 1077 755 534 414 26 10 18 2 0 0 0 0 2 24 27 35 25 12 22 45 0
2521 2457 2459 2567 2671 2710 2853 2484 2813 2806 2655 2833 2499 2554 2424 2407 2443 2653 2622 1496 2244 2238 1965 1232 749 467 421 164 48 49 22 31 2 26 0 117 155 185 213 202 83 6 43
2221 2437 2714 2618 2682 2556 2774 2913 2765 2900 2950 2773 2825 2906 2746 2482 2428 2872 2850 2582 2311 2340 2251 2093 1581 991 677 182 73 29 39 64 57 27 0 20 52 251 318 392 353 261 184
1926 2059 2348 2807 2672 2762 2757 3037 2961 3042 3028 2955 2827 2990 3012 2912 2645 2750 2819 2811 2664 2550 2494 2449 2246 1719 985 838 513 205 180 91 64 45 27 2 2 109 147 47 148 323 306
2065 2171 2339 2695 2966 2968 2890 2972 3111 3131 3143 3089 2989 2995 3330 3180 2643 2712 2556 2753 2794 2828 2649 2706 2601 2257 1508 1118 762 637 381 159 4 34 124 132 30 32 155 164 131 29 77
2171 2203 2473 2783 3096 3202 3212 3129 3293 3152 3252 3215 3110 3072 3062 3159 2536 2171 2695 2766 2815 2938 2857 2819 2580 2202 1651 1134 808 964 906 662 554 572 281 202 426 275 157 133 132 35 67
1986 2422 2424 2769 3125 3350 3428 3434 3313 3341 3347 3230 3193 3321 3211 3258 2626 1942 1894 2694 2884 2754 2902 2928 2854 2193 2095 1718 861 696 542 561 653 938 750 593 541 454 426 248 308 222 194
2101 2239 2568 2683 3080 3395 3561 3535 3562 3557 3452 3461 3476 3458 3409 3454 3034 2135 1710 2101 2649 2750 2841 3015 3016 2348 2469 2153 1876 981 728 517 332 336 733 911 737 662 668 600 329 470 440
2421 2410 2442 2888 3039 3378 3436 3536 3649 3602 3547 3510 3570 3598 3569 3477 3107 2644 1928 2003 2314 2524 2684 2951 3013 3006 2848 1955 2182 2068 1437 912 454 288 150 318 330 310 426 372 201 241 153
2182 2704 2750 3077 3217 3364 3534 3673 3731 3702 3567 3421 3480 3608 3636 3659 3386 2717 2304 2398 2263 2500 2613 2809 2652 2929 2947 2139 2137 2308 2066 1496 917 425 212 106 63 80 146 215 137 106 91
2194 2640 3038 3119 3440 3422 3492 3722 3860 3824 3401 3534 3448 3530 3600 3549 3694 2812 2327 2712 2478 2373 2502 2610 2934 2340 2447 2098 1927 2305 2211 1972 1494 1105 368 201 93 235 161 21 124 134 69
1992 2480 2815 3201 3183 3151 3457 3742 4011 3906 3710 3605 3651 3599 3671 3751 3358 3072 2367 2351 2695 2431 2474 2525 2732 2383 1772 1675 1596 2077 1802 1780 1622 1004 731 597 315 179 177 180 67 73 7
2611 2906 3039 3273 3499 3188 3624 3787 3683 3800 3466 3494 3396 3724 3644 3665 3756 3072 2201 2040 2151 2406 2483 2638 2289 1785 1424 1122 1401 1122 1085 1276 1261 886 742 551 387 273 219 165 70 0 0
2920 3131 3313 3508 3541 3462 3010 3399 3295 3212 3343 3256 3175 3301 3331 3399 3211 3623 2857 1739 1454 1711 1994 2119 1510 1142 1070 974 668 649 687 796 846 945 758 569 342 131 29 2 0 0 0
2787 2834 2895 2841 3099 3457 3447 2781 3117 3157 2931 3063 3133 2967 2972 2998 2929 3094 3357 3163 1906 1533 1766 1008 671 648 654 584 451 287 165 305 585 581 382 227 118 42 0 18 0 0 0
3114 3105 2910 2736 2866 3085 3118 3401 2703 2567 2291 2161 1666 1688 2639 2189 2082 2132 2562 2349 1976 1395 1318 1082 809 675 602 412 308 154 106 234 345 212 142 145 96 20 12 7 0 0 0
2098 2063 1882 1645 1667 1768 2406 2575 2495 2343 1907 1729 1328 1307 882 1045 1418 1597 1440 1670 1562 1241 1330 921 692 512 498 296 116 21 49 49 124 132 91 80 58 48 4 0 1 2 3
641 530 1213 1287 1415 1588 1793 1992 2089 2101 2298 2489 464 268 209 241 152 583 867 902 601 1112 1097 712 450 201 181 141 74 41 73 87 41 67 71 91 44 9 0 0 14 14 1
775 691 494 485 399 442 464 390 458 423 287 152 55 0 0 0 0 0 1 626 434 512 846 298 111 57 87 124 111 76 133 71 99 36 40 47 7 1 0 2 20 2 0
62 19 224 247 80 78 103 190 136 5 2 3 1 0 0 0 0 0 0 3 1 6 228 163 89 27 75 98 138 85 80 6 33 58 38 19 3 0 1 20 1 0 0
412 336 0 103 8 48 56 22 0 0 3 1 0 0 0 0 0 3 1 0 2 0 1 4 2 91 72 54 117 72 36 2 13 9 1 0 1 0 0 0 0 0 0
282 292 235 258 41 1 7 0 2 0 0 0 3 1 0 1 4 24 13 0 2 20 12 19 38 63 85 68 75 29 11 18 43 2 0 0 0 0 0 0 0 0 0
75 163 291 312 217 12 9 3 2 3 3 3 3 8 10 9 8 12 3 0 0 39 60 75 100 92 98 57 7 5 17 1 1 0 0 0 0 0 0 0 0 0 0
129 188 132 65 36 40 14 8 4 2 3 3 3 1 4 2 2 0 0 2 7 22 53 117 67 72 53 14 7 12 3 0 0 0 0 0 0 0 0 0 0 0 0
0 4 3 1 29 6 10 6 7 4 2 2 0 0 0 11 14 0 3 6 2 30 49 69 81 90 74 34 11 0 0 0 0 0 0 0 0 0 0 0 0 0 0
0 0 2 3 2 4 0 1 3 1 3 2 2 2 2 0 0 2 9 10 22 40 39 31 32 47 40 10 0 0 0 0 0 0 0 0 0 0 0 0 0 0 0

GFSGL_con_mlcape_036.txt.gz
CAPE
2617 2610 2554 2678 2195 2135 2362 2205 2544 1669 2530 1368 2776 2324 2334 2510 2453 2669 2330 2241 2422 2145 1626 1063 787 175 100 124 38 37 42 10 0 0 115 108 20 0 0 0 0 14 9
2913 2819 2548 2577 2832 2561 2085 2385 2687 3016 2111 2995 2133 2273 2639 2360 2545 2581 2655 1984 2460 2386 1873 1136 1248 764 167 252 543 50 27 74 71 70 51 195 118 57 31 140 0 1 66
2841 2850 2713 2553 2580 2778 2813 2381 2612 2722 3018 2571 3077 2722 2319 2481 2420 2697 2715 2684 1720 2737 2584 1953 1344 1166 690 98 169 210 144 155 262 95 112 182 365 494 220 119 196 152 88
2637 2894 2722 2764 2752 2803 2945 3046 2632 2633 2809 2836 2858 2901 3117 2758 2710 2663 2778 2996 2710 2153 2856 2658 2253 1673 1075 796 177 47 236 317 87 116 169 93 92 392 377 277 274 308 216
2160 2736 2817 2781 2874 2837 2969 3050 3241 3023 2813 2973 2996 3022 2985 3183 2939 2762 2725 3002 3027 2578 2344 2912 2695 2495 1903 1344 1024 627 224 155 451 183 109 165 150 181 277 219 120 79 205
2165 2387 2671 2847 2875 3159 3020 3124 3193 3362 3295 3180 3289 3181 3049 3178 3120 2763 2754 2883 3138 2919 2803 2685 2891 2627 2400 1830 1302 968 729 208 76 76 182 270 265 239 378 187 121 115 75
2262 2530 2584 2701 2848 3033 3317 3215 3237 3364 3508 3431 3449 3413 3164 3199 3073 2766 2492 2788 2862 2898 2874 2850 2896 2868 2563 2230 1488 1115 748 756 463 294 378 597 664 566 497 312 243 252 192
2560 2558 2863 2921 2893 3172 3374 3492 3510 3496 3608 3594 3647 3591 3483 3403 3095 2741 2517 2527 2760 2828 2862 2882 2898 2835 2837 2564 1996 1303 1058 850 751 702 861 850 969 732 676 621 336 294 325
2346 2526 2590 3062 3132 3258 3488 3610 3743 3797 3730 3864 3780 3789 3678 3530 3282 2882 2528 2539 2512 2594 2904 3027 2974 2945 2860 2434 2377 1847 1384 1209 802 552 508 968 1052 740 818 539 413 275 279
2246 2311 2732 2773 3076 3262 3592 3880 3953 3943 3946 3886 3902 3820 3828 3692 3527 3051 2680 2823 2528 2443 2557 2958 2843 2954 2906 2445 2388 2343 1951 1495 1172 812 336 229 166 205 265 568 390 283 181
2386 2726 2841 2963 2919 3298 3469 3929 4099 4128 4100 4038 3957 3952 3910 3831 3813 3340 2784 3150 2965 2591 2443 2564 2802 2607 2622 2445 2308 2427 2351 2169 1463 1108 595 249 96 91 108 158 270 179 154
1604 2784 3037 3365 3255 3292 3643 3847 4055 4124 4106 4018 3994 3954 4025 3940 3816 3702 2981 2781 3154 3051 2747 2484 2568 2621 2303 2204 2163 2400 2290 2188 2040 1339 829 370 211 154 148 118 142 228 194
2254 2645 2942 3440 3723 3307 3660 3835 3990 4118 4116 4092 3993 3996 3954 3847 4121 3741 3328 2787 2767 2808 3100 2943 1951 2205 2190 1947 2045 2075 2056 2201 2165 1556 960 639 385 202 111 82 78 133 116
2965 3170 3381 3413 3738 3792 3468 3962 3797 3837 4080 4147 4081 3980 3802 3942 4066 3788 3547 2697 2530 2545 2681 2659 2726 2122 1380 1364 1545 1646 1995 2121 2104 1623 1121 625 339 224 197 178 114 83 16
2861 3690 3945 3765 3729 3996 3961 3462 4082 3894 3879 3936 3964 3670 3487 3772 3361 1930 2604 3483 2770 2540 2683 2686 2634 2417 2454 1321 968 1160 1745 1930 1764 1397 867 428 301 210 94 72 35 3 20
3264 3337 3297 3279 3381 3660 4004 3723 3124 3042 2577 1940 1579 2024 2682 1764 1302 1533 1981 2174 1767 2269 2085 2656 2604 2290 1927 1631 972 984 1237 1395 1285 913 412 290 186 95 33 5 0 1 2
2973 3261 3323 3019 3207 3482 3216 3868 3771 1260 389 604 520 279 102 114 209 456 579 737 1215 1483 2041 1913 2270 2102 1503 1310 937 926 876 792 640 324 293 49 0 18 1 0 0 0 0
900 1132 1492 1536 1672 1945 2100 2050 2135 2187 2410 1878 191 0 0 0 0 0 0 0 261 338 1524 1668 1550 1485 1134 796 504 463 393 288 316 284 130 14 65 0 0 0 0 0 0
1207 905 883 600 559 596 584 532 510 517 380 150 11 0 0 0 0 0 0 0 0 44 123 517 1186 1212 838 521 255 142 117 139 211 166 121 35 3 1 0 0 0 0 0
367 344 492 351 295 269 259 360 367 174 123 45 0 0 0 0 0 0 0 0 0 0 0 0 0 0 96 229 148 12 4 47 79 73 3 4 0 0 0 0 0 0 0
169 260 186 104 150 174 163 122 45 39 7 0 0 0 0 0 0 4 3 0 0 0 0 0 3 3 7 16 30 4 0 2 8 1 22 0 0 0 0 0 0 0 0
540 397 357 67 22 30 36 1 0 0 0 0 1 0 0 2 5 8 12 6 2 0 1 0 0 2 2 0 0 0 12 5 27 8 2 3 0 0 0 0 0 0 0
106 233 247 89 6 10 0 1 2 2 1 2 9 11 5 0 2 3 2 0 0 0 0 11 19 13 7 22 14 24 24 16 29 19 7 13 12 9 0 0 0 0 0
0 5 2 0 0 0 0 3 1 1 1 1 1 1 0 0 1 0 0 0 2 0 0 5 10 15 12 20 14 8 2 19 34 52 32 13 1 0 0 0 0 0 0
0 0 0 0 0 0 1 1 1 1 2 2 1 1 3 2 1 0 0 7 8 4 2 29 7 0 0 1 3 3 0 6 19 12 0 0 0 0 0 0 0 0 0
0 0 0 0 4 1 0 1 3 3 2 2 3 3 4 1 1 2 2 1 0 1 24 26 53 50 9 8 9 0 0 6 0 0 0 0 0 0 0 0 0 0 0

GFSGL_con_mlcape_039.txt.gz
CAPE
1724 1529 1742 1579 1055 1460 1911 953 824 1315 1353 583 1363 1792 1662 1728 1700 1578 1599 2080 2104 2073 1859 1485 949 159 7 28 97 40 26 0 0 0 18 35 28 14 2 0 1 53 0
1862 1730 1843 2116 1926 1201 1810 2103 690 1397 1104 1928 1688 1770 1989 1771 1716 2109 2012 1896 1857 1747 2036 1615 1240 825 184 0 171 59 19 43 11 0 64 150 17 0 0 4 3 0 0
2056 2123 1990 1967 2270 1858 1543 1644 2271 1286 1744 1311 2232 2186 2073 2110 2051 1936 1946 1866 1813 2090 1933 1802 1399 1032 488 248 18 281 215 24 114 81 35 245 94 86 79 48 7 0 4
2076 2222 2251 2272 2295 2423 2107 1668 1426 2254 1898 2194 1819 2350 2405 2157 2069 2182 2066 1945 1982 1656 2117 2297 1910 1399 1086 711 390 43 230 315 149 179 67 40 86 296 147 98 87 138 77
2160 2336 2369 2464 2350 2334 2351 2443 2153 1549 2231 2210 2348 2396 2448 2455 2373 2196 2173 2126 2048 2000 1649 2031 2343 2057 1592 1173 823 421 38 127 290 72 59 86 37 82 247 238 143 142 161
1977 2229 2559 2554 2519 2313 2362 2296 2608 2565 2026 2259 2440 2311 2545 2684 2633 2293 2300 2310 2285 2195 2040 1815 2161 2421 2231 1783 1324 1054 687 149 6 260 49 29 25 57 173 228 223 135 136
1715 2160 2447 2661 2555 2552 2428 2588 2549 2647 2834 2496 2238 2578 2433 2657 2635 2569 2473 2505 2440 2489 2409 2378 2026 2263 2443 2401 1823 1511 1218 1029 361 16 131 113 48 50 79 170 166 85 50
1937 1955 2188 2541 2700 2651 2693 2612 2774 2821 2930 3036 3011 2734 2831 2834 2648 2473 2493 2750 2626 2548 2767 2716 2598 2446 2417 2484 2487 2033 1595 1296 1053 536 80 32 121 163 202 210 196 110 96
2222 2217 2213 2540 2687 2855 2788 2925 2947 2964 3061 3099 3306 3264 3136 3092 2873 2637 2389 2681 2771 2714 2721 2819 2923 2806 2695 2413 2594 2378 2046 1628 1082 857 523 278 243 503 619 544 216 142 103
2469 2613 2533 2563 2709 2758 2899 2915 3069 3216 3161 3246 3212 3434 3389 3315 3183 2751 2642 2765 2765 2745 2698 2626 2635 2806 2766 2461 2579 2565 2321 1974 1578 1158 622 486 664 568 535 381 216 137 97
2272 2437 2773 2941 2948 3012 3034 3157 3267 3400 3487 3468 3515 3510 3660 3604 3518 3116 2736 3056 3043 2888 2743 2616 2554 2435 2439 2495 2385 2692 2506 2203 1656 1374 1213 821 393 379 447 401 254 192 116
2254 2278 2169 2346 2637 3082 3277 3437 3601 3664 3693 3688 3722 3763 3728 3725 3644 3396 2969 2925 3228 3234 3171 2973 2686 2314 2129 2183 2189 2545 2454 2232 2065 1418 1332 1002 519 211 169 163 191 86 63
1825 2058 2486 2565 2596 2616 2988 3326 3729 3918 3973 3940 3906 3923 3907 3829 3779 3603 3334 2983 2938 3148 3377 3270 3088 2814 2306 1808 1893 2083 2199 2298 2310 2028 1568 1218 565 299 102 20 0 22 25
2149 3013 2582 2940 3253 3176 3254 3382 3613 3906 3975 4021 4006 3915 3767 3697 3734 3711 3482 2821 2504 2469 2985 3124 3102 2903 2769 2274 1835 1255 1354 1983 2312 2359 2157 1447 451 135 113 8 0 0 8
1624 2769 3440 3336 3363 3425 3435 3661 3731 3780 3836 3823 3759 3694 3616 3687 3375 2184 2298 2681 2633 2330 2211 2391 2877 2947 2732 2549 1853 1624 1222 1293 1730 2025 2170 1722 338 161 144 46 6 3 0
3394 3133 3809 3526 3536 3592 3704 3385 1252 2281 2312 2211 2103 3304 1687 1112 599 634 595 738 914 903 1477 1981 2219 2525 2786 2705 2573 2288 1347 1320 1484 1624 1679 1177 310 111 114 59 0 10 0
2740 3346 3285 3423 3535 3513 3739 3659 2925 379 15 102 107 15 17 4 0 0 0 2 38 228 1012 1459 1625 1866 2213 2496 2499 2335 1751 1274 1193 1327 1385 498 238 33 31 37 0 3 1
1264 1355 2328 2221 2411 2880 2929 2955 2941 2171 1605 542 0 0 0 0 0 0 0 0 0 0 0 0 103 537 1115 1519 1841 1752 1472 1156 935 1065 1100 399 54 2 26 0 8 0 1
1520 821 707 803 942 1071 847 922 953 783 403 85 0 0 0 0 0 0 0 0 0 0 0 0 0 0 0 0 10 205 600 813 749 674 638 118 3 1 3 1 1 0 0
342 389 197 341 320 311 243 82 38 29 0 0 0 0 0 0 0 0 0 0 0 0 0 0 0 0 0 0 0 1 2 27 167 304 307 145 1 0 2 1 0 1 0
290 226 153 97 80 44 12 0 0 0 0 0 0 0 0 0 0 0 0 0 0 0 0 0 0 0 0 0 1 0 1 1 4 8 68 1 2 2 18 2 1 0 0
169 95 29 0 0 0 0 0 0 0 0 0 0 0 0 0 0 0 0 0 0 0 0 0 0 0 3 0 0 9 0 1 4 0 0 0 0 2 2 1 0 0 0
0 0 0 0 0 0 0 0 0 0 0 0 0 0 0 0 1 0 0 0 5 2 0 0 0 0 5 3 0 0 0 0 0 0 1 2 0 0 0 0 0 0 0
0 0 0 0 0 0 0 0 0 0 0 1 0 1 1 1 2 3 2 0 0 3 6 0 0 0 0 0 0 0 0 0 0 0 0 0 0 0 0 0 0 0 0
0 0 0 0 0 0 1 2 2 2 2 2 3 2 3 3 3 1 0 0 0 0 0 0 0 0 0 0 0 0 0 0 0 0 0 0 0 0 0 0 0 0 0
0 0 0 0 0 0 0 1 1 3 3 4 4 4 5 2 0 0 0 0 0 0 0 0 0 0 0 0 0 0 0 0 0 0 0 0 0 0 0 0 0 0 0

GFSGL_con_mlcape_042.txt.gz
CAPE
780 948 799 597 626 1394 1245 600 529 836 615 673 1005 1147 1353 1407 1429 1292 1144 1516 1678 1591 1582 1386 610 68 36 44 43 31 13 0 0 0 1 5 11 4 1 21 0 0 0
888 1013 1113 1146 857 670 1270 1390 850 572 695 895 974 1290 1484 1557 1543 1430 1176 1211 1672 1652 1691 1631 1550 1236 537 12 22 38 51 0 0 0 0 53 27 31 13 5 0 0 0
1120 1194 1323 1386 1288 979 745 1255 1429 1034 782 911 1392 1098 1129 1394 1656 1626 1447 1270 1315 1570 1763 1709 1567 1571 1323 804 35 0 34 82 0 0 0 20 99 44 28 11 0 1 23
1448 1442 1327 1442 1576 1436 1145 888 1419 1529 999 713 1313 1490 1810 1665 1596 1620 1656 1535 1451 1594 1623 1658 1546 1499 1510 1341 915 274 6 17 161 68 19 36 67 83 8 11 28 22 21
1615 1646 1555 1464 1626 1857 1652 1389 1182 1416 1749 1274 1029 1547 1718 1930 2024 1845 1701 1577 1649 1711 1648 1723 1784 1697 1641 1572 1420 1155 624 227 27 133 155 41 29 97 80 19 26 29 48
1590 1646 1689 1779 1706 1748 1929 1850 1647 1462 1304 1717 1766 1680 1620 1997 2071 2036 2075 1902 1789 1778 1696 1664 1613 1744 1675 1562 1513 1542 1248 1070 649 128 77 118 91 30 57 61 52 23 41
1550 1693 1882 1912 2065 2040 2032 2094 2101 1871 1700 1239 1434 1789 1762 2075 2171 2049 2041 2184 2138 2071 1991 1938 1916 1857 1807 1793 1383 1409 1525 1361 1279 707 382 131 22 11 3 24 59 57 50
1486 1789 1922 2198 2180 2258 2226 2163 2136 2237 2247 2002 1584 1627 1784 1923 1999 2035 2104 2308 2279 2232 2254 2236 2201 2210 2084 2035 2063 1754 1428 1451 1216 1039 791 467 163 45 5 2 9 43 35
1366 1477 2011 2176 2390 2383 2410 2330 2299 2340 2351 2434 2413 2213 1930 2015 2048 1952 1942 2222 2322 2492 2464 2420 2476 2497 2443 2079 2181 2229 2077 1722 1422 1155 1268 1079 396 58 31 5 31 16 14
1650 1692 1692 2191 2356 2468 2439 2489 2495 2510 2587 2579 2610 2728 2735 2625 2380 2207 2108 2378 2364 2412 2594 2681 2460 2538 2625 2395 2371 2346 2391 2367 2055 1707 1173 897 704 317 67 61 77 39 25
2000 1837 1860 1869 2218 2414 2541 2586 2645 2718 2657 2707 2767 2790 2876 2987 3029 2510 2270 2732 2786 2712 2684 2700 2716 2521 2255 2236 2329 2678 2592 2563 2430 2107 1690 1326 976 660 235 212 192 90 54
2100 2270 2210 2214 2210 2420 2512 2649 2726 2724 2867 2914 2884 2949 3014 3035 3061 2746 2539 2592 3003 3094 3089 2999 2922 2679 2340 2076 1865 2113 2318 2301 2457 2540 2047 1671 1415 741 432 320 245 142 105
2309 2450 2458 2609 2689 2717 2704 2699 2796 2900 2958 3065 3144 3177 3253 3365 3416 3137 2884 2767 2800 3121 3313 3284 3212 2984 2698 2232 1948 1963 1758 1833 2170 2421 2517 2271 1573 1312 601 352 265 173 127
1145 2240 2267 2415 2554 2681 2894 2906 2962 3131 3257 3336 3441 3493 3523 3572 3604 3624 3108 2661 2449 2369 2593 2942 2963 2840 2665 2551 2221 1693 1291 1440 1710 2042 2231 2411 2333 1447 712 221 203 107 93
2541 1979 1652 2587 2087 2238 2413 2434 3070 3240 3330 3424 3612 3709 3721 3625 3442 3140 3206 3158 2798 2518 2383 2279 2508 2536 2734 2727 2642 2370 1999 1401 1434 1524 1836 2047 2237 1978 696 126 42 7 25
2421 2710 2902 2847 2985 3100 2466 1835 550 1207 2276 3144 3312 3527 1678 1989 1706 1594 1583 1268 1076 919 1290 1634 1699 1622 1711 1836 2094 2349 2453 2051 1684 1383 1396 1505 1672 1881 976 42 3 2 3
1615 1677 2547 3415 3604 3467 3262 2574 2186 396 9 257 1093 1422 1172 621 143 77 105 78 24 65 657 570 603 535 583 905 1278 1523 1821 1986 2110 1481 1244 1305 1302 1249 1020 176 2 2 2
1040 1073 1934 2899 3469 3557 3424 2464 1523 1692 1522 510 0 0 0 0 0 0 0 0 0 0 0 0 0 0 0 0 0 0 0 0 0 20 347 648 742 930 609 247 2 2 1
1130 990 1181 1524 1844 2221 2573 2622 2103 1454 529 17 0 0 0 0 0 0 0 0 0 0 0 0 0 0 0 0 0 0 0 1 1 1 3 8 130 226 229 150 27 2 1
327 472 513 522 627 901 1354 1394 872 279 1 0 0 0 0 0 0 0 0 0 0 0 0 0 0 0 0 0 0 2 2 1 0 0 1 3 19 0 1 0 0 0 0
226 165 122 129 90 22 0 0 0 0 0 0 0 0 0 0 0 0 0 0 0 0 0 0 0 0 0 0 0 0 0 0 2 0 1 0 1 0 0 0 0 0 0
5 0 0 0 0 0 0 0 0 0 0 0 0 0 0 0 0 0 0 0 0 0 0 0 0 0 0 1 0 0 0 1 0 0 0 0 0 0 0 0 1 2 1
1 0 0 0 0 0 0 0 0 0 0 0 0 0 1 1 1 1 0 1 2 1 0 0 0 0 0 1 1 0 0 0 0 1 2 1 1 2 2 0 0 0 0
0 0 0 0 0 0 0 0 0 0 0 0 1 2 1 2 0 0 1 0 0 0 0 0 0 0 0 0 0 0 0 0 0 0 0 0 0 0 0 0 0 0 0
0 0 0 0 0 0 0 0 2 1 1 1 1 1 2 1 1 1 0 1 1 0 0 0 0 0 0 0 0 0 0 0 0 0 0 0 0 0 0 0 0 0 0
0 0 1 2 0 0 0 1 2 2 3 4 3 2 2 2 1 2 3 2 2 1 2 2 0 0 0 0 0 0 0 0 0 0 0 0 0 0 0 0 0 0 0

GFSGL_con_mlcape_045.txt.gz
CAPE
398 322 302 346 359 390 364 272 265 205 305 412 356 475 619 634 909 1271 1260 1161 998 1099 1245 1131 729 335 261 145 30 48 49 4 3 0 0 0 0 0 1 19 0 0 0
433 449 435 497 558 619 507 405 336 460 320 336 505 576 787 877 895 1112 1218 1313 1292 1143 1342 1461 1215 1257 777 291 42 36 32 15 24 28 0 0 0 0 0 0 0 0 0
331 546 564 542 507 620 943 899 542 456 542 556 698 843 740 969 1116 1110 1142 1272 1303 1311 1220 1379 1443 1385 1098 1198 1012 530 11 0 0 5 10 0 0 0 0 0 0 0 0
456 518 737 804 740 563 515 792 1064 890 741 747 696 701 1054 1069 1143 1271 1295 1358 1394 1419 1386 1334 1424 1451 1364 1219 1125 1099 954 394 0 0 0 4 11 10 0 0 0 0 0
693 726 795 947 1028 985 787 652 846 1107 925 842 996 1061 881 1148 1258 1120 1186 1268 1401 1424 1396 1369 1444 1533 1423 1433 1314 1027 838 821 698 420 25 0 1 14 39 8 1 0 0
912 884 893 974 1139 1180 1130 1103 888 1006 1189 968 757 775 1090 1104 1252 1317 1573 1560 1505 1507 1430 1417 1449 1564 1558 1398 1328 1415 1325 972 867 748 735 461 207 7 0 1 0 0 1
1220 1192 1237 1233 1241 1369 1434 1422 1256 1071 1111 1247 1178 939 884 1131 1122 1201 1361 1675 1737 1731 1702 1629 1622 1653 1627 1715 1419 1286 1194 1248 1437 1436 909 851 612 264 85 31 15 2 2
1474 1521 1574 1604 1539 1501 1637 1740 1677 1508 1353 1225 1187 1437 1420 1428 1311 1182 1307 1603 1818 1885 1875 1842 1842 1868 1882 1849 1867 1851 1533 1386 1086 872 1152 1354 971 557 33 89 81 8 0
1353 1541 1685 1759 1759 1848 1769 1739 1837 1934 1874 1700 1577 1354 1257 1495 1473 1428 1387 1673 1756 1919 2060 2063 2123 2112 2074 1875 2033 2106 2120 2096 1509 1198 1059 1102 1086 940 452 12 34 6 9
1306 1503 1630 1767 1873 1929 1990 1958 1980 2092 2084 2189 2213 2172 1843 1643 1541 1392 1323 1704 1729 1880 2088 2226 2148 2206 2187 2045 2134 2206 2327 2279 2165 2109 1737 1256 916 881 362 132 352 93 49
1134 1190 1536 1794 1904 2058 2084 2149 2168 2189 2247 2291 2305 2332 2400 2311 2235 1705 1513 1982 2064 2140 2240 2329 2376 2303 2144 2078 2069 2501 2536 2532 2465 2329 2353 2296 1968 1406 1166 533 276 192 155
1501 1395 1415 1533 1900 2119 2215 2271 2329 2379 2394 2415 2446 2467 2498 2584 2508 2284 2002 1923 2378 2532 2657 2693 2700 2561 2314 2118 1921 2047 2187 2174 2363 2423 2513 2618 2609 2168 1555 988 683 513 132
1951 1976 1845 1739 1731 1998 2241 2343 2415 2447 2510 2538 2550 2573 2599 2676 2750 2631 2436 2209 2172 2618 2955 3091 3043 2901 2617 2088 1737 1677 1508 1518 1672 1964 2236 2374 2425 2488 2304 1595 666 290 201
1977 2309 2263 2311 2198 2102 2209 2294 2399 2559 2597 2633 2706 2815 2852 2897 3019 2967 2528 2349 2236 2120 2375 2775 2735 2619 2635 2728 2605 2263 1788 1735 1882 1934 1960 2030 1991 2067 2196 2049 1322 658 358
1994 2071 2181 2139 2413 2507 2195 2076 2569 2648 2690 2768 2801 2855 2912 3039 3175 3304 3385 3037 2782 2673 2436 2279 2569 2645 2825 2673 2319 2088 2007 1680 1327 1227 1198 1294 1364 1327 1539 1814 1604 863 567
1379 1737 1955 2438 2464 2327 1886 1269 163 804 1648 2447 2798 3253 2187 2381 2853 2832 2702 2616 2579 2221 2315 2592 2393 1840 1672 1489 1351 1297 1299 1329 1216 1013 898 924 755 651 827 933 884 877 534
909 1088 1432 1934 2844 2767 2193 1788 1629 260 498 1224 2009 2426 2491 2055 1380 1290 1022 745 660 1010 1755 1296 1017 593 151 6 0 0 0 0 0 0 0 0 0 3 25 187 630 441 303
491 1063 1153 1723 2547 3340 2914 2130 1419 1755 1855 994 9 155 7 4 0 1 36 8 66 0 0 0 0 0 0 0 0 0 0 0 0 0 0 1 3 2 2 4 7 109 106
527 746 895 1212 1583 2516 2627 2022 1401 1002 612 206 0 0 0 0 0 0 0 0 0 0 0 0 0 0 0 0 0 0 1 0 0 1 0 1 0 1 2 1 0 0 0
309 397 573 934 1142 1568 1674 1502 764 169 0 0 0 0 0 0 0 0 0 0 0 0 0 0 0 0 0 0 0 0 0 1 1 2 0 0 0 0 0 0 0 0 2
228 199 137 186 484 559 620 541 34 0 0 0 0 0 0 0 0 0 0 0 0 0 0 0 0 0 0 0 0 0 1 2 2 1 0 0 0 0 0 0 0 0 0
95 38 19 8 0 0 0 0 0 0 0 0 0 1 0 0 0 0 2 1 1 1 0 0 0 0 1 0 1 0 0 0 0 0 1 0 0 0 0 0 1 0 0
4 0 0 0 0 0 0 0 0 0 1 2 2 1 1 2 1 2 2 3 3 1 0 0 0 0 0 0 0 0 0 0 0 0 0 0 2 1 0 1 0 1 0
0 0 0 0 0 0 0 0 0 0 0 0 0 1 3 5 5 4 4 5 4 4 3 0 0 0 0 0 0 0 0 0 0 0 0 0 1 0 0 0 0 0 0
0 0 0 0 0 2 2 1 1 0 0 1 1 1 2 2 3 4 4 3 5 4 5 5 3 0 0 0 0 0 0 0 0 0 0 0 0 0 0 0 0 0 0
2 3 4 5 4 3 3 6 5 4 3 4 3 2 2 3 3 3 3 3 3 4 4 3 3 2 0 0 0 0 0 0 0 0 0 0 2 1 0 0 0 0 0

GFSGL_con_mlcape_048.txt.gz
CAPE
26 32 43 40 16 13 7 12 13 0 0 171 279 283 293 292 462 673 946 1280 1097 912 1048 1126 925 574 363 291 102 25 15 0 24 17 0 0 0 2 1 9 7 0 0
89 93 98 101 92 79 69 60 67 17 5 56 349 348 326 322 457 607 646 1118 1328 1193 996 987 1088 1204 1073 899 681 238 22 12 1 36 16 3 27 2 0 0 0 0 0
173 195 174 191 208 171 176 177 162 166 78 92 293 420 424 502 578 705 842 908 1289 1382 1334 1209 1132 1133 1191 1234 1099 975 684 256 28 0 0 0 0 0 7 0 0 0 0
248 368 343 331 325 334 335 327 266 283 333 248 232 376 464 449 671 747 889 1044 1113 1255 1381 1484 1447 1312 1176 1247 1173 1113 1093 884 756 683 422 96 0 0 0 9 16 0 5
285 437 486 447 430 429 498 627 663 408 357 383 372 364 575 688 782 1054 1118 1028 1185 1251 1276 1422 1560 1544 1359 1257 1323 1155 1004 844 880 612 507 487 326 270 244 121 8 6 31
331 400 510 536 509 462 396 445 701 822 720 643 592 578 472 654 684 637 951 1294 1115 989 972 1106 1326 1438 1404 1283 1181 1308 1565 1289 1108 967 864 862 797 625 439 251 222 210 211
475 430 488 618 710 702 650 557 502 551 822 842 815 788 750 788 703 662 684 975 1263 1364 1398 1460 1463 1445 1375 1509 1294 1207 1250 1281 1455 1656 1494 1339 1259 1100 828 537 258 343 371
616 656 700 752 843 909 967 949 865 725 688 903 1002 960 852 806 699 599 617 960 1057 1139 1285 1375 1470 1651 1752 1747 1760 1779 1705 1545 1276 1224 1429 1759 1778 1745 1348 904 702 397 193
843 876 934 990 982 1039 1131 1154 1153 1136 1054 969 1059 1178 1168 1064 808 658 604 964 1150 1170 1388 1480 1496 1504 1671 1528 1723 1750 1824 1971 1791 1348 1191 1291 1279 1238 1129 1185 655 132 241
1056 1134 1269 1283 1235 1204 1184 1252 1424 1522 1436 1403 1370 1342 1277 1367 1281 1013 959 1247 1191 1311 1509 1625 1568 1703 1806 1693 1859 2006 2145 2224 2218 2289 2152 1474 1144 1162 898 696 959 1062 573
1197 1370 1462 1527 1519 1510 1501 1533 1610 1702 1805 1862 1833 1809 1790 1576 1559 1217 1063 1559 1644 1699 1691 1703 1853 1740 1627 1656 1674 2172 2321 2423 2395 2305 2336 2352 2376 2235 1739 1530 1257 1103 1199
1035 1234 1433 1550 1694 1777 1810 1917 1947 1924 1966 2023 2073 2151 2226 2262 1954 1721 1445 1318 1801 1941 2042 2067 2166 2066 1958 1903 1665 1718 1873 1892 2036 2196 2341 2492 2521 2551 2573 2346 1677 1145 924
989 1116 1265 1491 1661 1900 1941 1963 2073 2147 2186 2218 2269 2312 2346 2329 2393 2023 1853 1604 1638 1956 2210 2411 2429 2406 2327 1973 1801 1727 1469 1369 1568 1815 2074 2196 2148 2212 2193 2137 2213 2025 1445
1622 1463 1318 1416 1569 1815 2031 2126 2141 2240 2330 2366 2364 2393 2397 2434 2502 2528 2250 1927 1465 1584 1643 2101 2120 2179 2325 2474 2434 2160 1776 1619 1490 1519 1575 1561 1605 1476 1107 1334 1089 974 1009
2057 2104 2151 2029 1734 1737 1707 1852 2300 2390 2314 2408 2482 2525 2583 2628 2616 2698 2710 2680 2644 2548 2254 1999 2293 2416 2577 2529 2407 2066 1724 1497 1231 973 828 640 471 269 245 317 331 293 296
1296 1658 1832 2266 1912 2241 1638 1133 150 517 1065 1530 1974 2541 2159 2244 2710 2734 2761 2731 2635 2473 2438 2809 2726 2606 2456 1788 1434 1014 392 54 2 0 0 0 0 0 0 0 1 4 3
399 556 905 1345 2435 2267 1677 1648 1691 274 141 655 1359 2082 2578 2695 2246 2214 2149 1950 1858 1799 2452 2315 2040 1507 892 350 43 0 0 0 0 0 0 1 0 1 1 0 1 2 4
444 700 840 969 1476 2467 2224 1861 1460 1489 1743 1189 49 745 975 1154 1013 886 688 750 1186 833 870 767 381 25 0 0 0 0 0 0 1 1 1 0 0 0 1 1 0 0 1
270 786 841 1105 1296 2295 2376 1833 1284 963 909 621 92 2 0 0 0 0 0 192 225 31 0 0 0 0 0 0 0 1 2 3 1 3 1 0 0 0 0 0 0 1 1
298 334 551 744 1176 1595 1665 1468 758 396 262 101 9 2 0 0 0 0 0 0 0 0 0 0 0 0 0 1 0 0 1 1 1 1 2 2 1 2 0 0 0 0 0
250 260 309 396 679 813 706 584 87 0 0 0 0 0 0 0 0 0 0 0 0 1 1 3 2 1 1 1 3 2 0 0 1 1 2 2 1 0 0 1 1 1 0
100 160 154 207 207 241 175 42 1 0 0 0 0 0 0 0 0 1 1 1 2 4 1 0 0 0 0 0 0 0 0 0 0 0 0 0 0 1 2 2 2 0 1
22 69 26 2 2 0 4 5 3 2 1 1 0 1 1 2 2 3 4 5 5 5 3 0 0 0 0 0 0 0 0 0 0 0 0 1 0 0 1 0 0 0 1
10 21 4 0 0 1 3 3 2 1 0 0 1 2 4 6 8 8 6 7 6 4 4 1 1 0 0 0 0 0 0 0 0 0 0 1 2 1 0 0 0 0 0
0 0 1 2 2 1 1 2 2 3 4 4 1 3 5 6 6 5 5 5 5 6 4 5 5 4 4 0 0 0 0 0 0 0 0 0 0 0 0 0 0 0 0
2 2 3 3 4 4 4 4 5 6 6 6 5 5 2 2 3 3 3 1 1 0 0 0 0 0 0 0 0 0 0 0 0 0 0 0 0 0 3 14 9 0 0

GFSGL_con_mlcape_051.txt.gz
CAPE
106 104 188 313 338 327 311 303 294 279 287 270 409 632 927 1099 1213 1284 1293 1507 1791 1956 1809 1701 1691 1721 1386 1010 748 575 382 267 273 255 437 350 367 396 386 375 293 357 358
244 190 155 268 311 328 318 351 385 335 356 396 452 653 848 973 1147 1163 1071 1169 1562 1878 2018 1897 1705 1767 1638 1664 1376 1094 823 699 331 115 316 462 448 512 589 469 416 244 242
335 287 272 288 333 333 382 443 482 445 372 398 501 489 706 930 1016 1102 1093 1223 1508 1698 2082 2143 1960 1946 1900 1751 1960 1687 1534 1375 985 603 536 598 623 516 478 519 389 341 335
407 404 450 457 461 452 494 546 578 581 473 470 565 614 654 1069 1240 1274 1274 1298 1451 1678 1866 2143 2246 2232 2144 2153 2174 2111 2015 1807 1590 1498 1255 1146 1105 981 692 447 434 514 449
519 535 562 574 606 613 682 713 750 754 706 629 635 701 761 926 913 1182 1330 1379 1357 1530 1806 1967 2110 2123 1944 2036 2187 2228 2170 1991 1782 1463 1345 1259 1224 1221 1160 1119 1030 1017 941
660 686 712 722 715 737 810 883 904 844 833 859 860 872 838 891 575 644 1003 1392 1669 1722 1565 1788 1956 1665 1406 1155 1186 1371 1801 2230 1993 1922 1784 1777 2091 1924 1815 1774 1682 1553 1551
749 806 910 916 882 901 952 1053 1132 1098 1038 929 956 1036 998 1064 662 408 480 977 1382 1706 1921 1938 1825 1672 1635 1759 1680 1173 1058 1124 1382 1816 2054 2314 2397 2541 2460 2360 2276 2126 1886
825 855 1009 1056 1036 1063 1095 1126 1162 1343 1423 1317 1275 1311 1214 1277 916 517 323 706 1262 1545 1592 1724 1959 1986 2111 2025 1927 2124 2394 2487 2116 1533 1597 1900 2334 2581 2693 2753 2750 2407 1818
875 907 982 1107 1126 1205 1202 1163 1125 1111 1153 1264 1482 1536 1402 1381 996 704 595 925 1107 1372 1643 1726 1751 1712 1786 1610 1634 1571 1800 2219 2167 2034 1904 1810 1719 1480 1472 1775 1826 1792 1632
975 1059 1047 1084 1169 1316 1355 1362 1411 1402 1302 1286 1316 1568 1619 1547 1326 684 587 1149 1243 1249 1589 1748 1462 1438 1638 1492 1510 1615 1727 2035 2376 2767 3061 2196 1619 1790 1418 1098 1457 1651 1800
1305 1324 1348 1312 1342 1447 1563 1719 1799 1800 1808 1816 1709 1772 1777 1705 1819 1142 672 1246 1427 1577 1558 1540 1708 1490 1358 1180 1240 1943 2247 2547 2791 2971 2792 2562 2622 2692 2684 2409 1542 1578 1800
1591 1546 1580 1582 1572 1713 1786 1876 1962 2083 2141 2203 2195 2216 2226 2216 1721 1516 1049 1004 1717 2016 2243 2341 2463 2082 1711 1503 1273 1457 1638 1774 1983 2175 2273 2315 2353 2322 2463 2590 2651 2453 1821
1639 1717 1822 1936 1941 2072 2122 2119 2127 2248 2217 2378 2447 2477 2523 2603 2734 1911 1427 1138 1177 1683 2266 2507 2338 2198 1945 1666 1594 1522 1352 1486 1815 1939 1964 2017 1846 2003 2198 1978 2026 1591 1690
1468 1695 1842 1933 2019 2169 2331 2393 2423 2502 2508 2530 2648 2686 2708 2804 2875 2948 2319 1601 1081 1079 1228 1810 2067 1970 2111 2368 2150 1713 1523 1676 1718 1549 1553 1521 1612 1708 968 524 265 239 195
1690 1544 1602 1810 1855 2304 2380 2411 2508 2634 2634 2740 2804 2888 2939 2982 3037 3026 3089 2919 2604 2196 2093 2117 2247 2356 2480 2397 2338 2301 2093 1637 1357 1299 1208 965 448 105 59 40 4 0 2
2044 2251 2278 1962 1562 1858 2503 1497 278 606 1148 1673 2137 2713 3068 2721 2791 2588 2386 2530 2540 2300 2354 2842 2942 2721 2608 2574 2342 1871 1222 826 674 152 1 0 0 0 0 0 1 3 1
411 663 1198 1581 1924 1695 2434 1868 1754 323 87 515 1041 1704 2191 2649 2201 2257 2234 2141 2029 2115 2950 2926 2776 2602 2240 1680 1068 692 568 191 14 0 0 0 0 0 0 1 3 0 0
626 429 893 1266 2019 2516 2252 2049 2137 1998 1952 1343 243 697 942 1435 1737 1819 1805 1880 2077 1726 2182 2294 1929 1328 708 483 275 128 26 0 0 1 2 2 4 1 4 2 1 0 0
503 663 1092 1525 1537 2215 2031 1886 1933 1908 1932 830 348 185 99 481 623 450 553 1992 1961 1210 523 370 129 60 56 10 0 1 2 1 2 2 2 1 2 5 4 5 5 5 0
269 379 330 1170 1246 1586 1686 1808 1738 1537 1200 1043 831 482 20 160 741 356 96 70 85 11 0 0 0 2 2 2 1 4 5 1 1 2 3 4 4 4 2 5 4 7 3
2 500 234 834 1100 1071 1113 1122 972 975 883 616 251 2 2 16 1 0 0 0 0 0 1 0 0 0 0 0 0 0 0 4 5 4 4 3 4 3 8 5 5 5 8
0 123 480 649 740 536 496 287 172 46 1 0 0 0 0 0 0 0 0 0 2 3 4 3 0 0 0 0 0 0 0 0 0 0 0 1 3 4 4 3 2 6 2
0 84 292 379 387 75 134 23 3 1 1 2 2 2 1 2 4 3 7 7 5 6 5 1 0 0 0 0 0 0 0 0 0 0 0 2 5 2 0 1 0 4 4
2 35 227 137 4 19 4 4 4 1 0 2 2 4 6 7 7 9 8 6 6 6 4 3 2 0 0 0 0 0 0 0 0 0 0 0 2 6 3 3 2 0 0
2 1 3 5 6 5 5 6 4 3 1 1 2 3 4 5 6 5 3 4 4 2 1 0 0 0 0 0 0 0 0 0 0 0 0 0 0 1 8 35 14 0 0
1 1 2 4 4 5 4 4 7 6 7 5 6 5 4 4 1 1 0 0 0 0 0 0 0 0 0 0 0 0 0 0 0 0 0 0 0 0 0 4 19 44 58

GFSGL_con_mlcape_054.txt.gz
CAPE
745 774 797 775 790 935 827 947 1147 1068 895 1148 784 675 664 1347 1528 1707 1542 1409 2080 2092 1791 1623 2098 2196 1435 796 716 667 538 469 378 242 228 348 1017 1314 1054 962 873 839 621
749 964 922 995 980 912 1085 1025 1195 1367 1214 1280 1153 988 794 1056 1502 1791 1672 1184 1581 1880 2080 2046 1951 1732 2214 2056 1243 963 632 674 566 710 542 334 414 682 867 1157 1240 875 457
810 762 746 800 875 931 1107 1141 1286 1396 1432 1264 1282 1284 1128 1033 1404 1755 1790 1593 1474 1692 1891 2029 2018 2076 2023 1705 1587 1321 1256 1544 1622 1465 1208 989 865 992 1148 1485 1465 1175 1092
722 703 798 856 908 868 1155 1345 1295 1444 1516 1492 1354 1349 1349 1118 1018 1408 1569 1702 1635 1690 1903 1981 2260 2393 2458 2611 2661 2506 2441 2274 1735 1689 1392 1105 914 885 1052 1253 1419 1353 1226
913 811 959 1197 1157 1194 1346 1461 1413 1490 1537 1620 1568 1418 1452 1322 879 1102 1290 1397 1617 1746 1784 2146 2230 2409 2480 2649 2630 2686 2732 2380 1757 1319 1146 1113 1122 1196 1427 1483 1747 1770 1791
1227 1143 1236 1557 1473 1478 1555 1682 1697 1603 1594 1715 1589 1545 1483 1351 777 586 993 1114 1271 1674 1848 2003 2169 2166 2283 2091 1973 1772 1818 2567 2915 2277 1637 1586 2285 2293 2064 2105 1917 2010 2328
1519 1486 1501 1707 1710 1717 1761 1826 1758 1748 1760 1878 1799 1715 1715 1704 1053 560 484 786 960 1365 1841 1900 1849 1537 1933 2273 1957 1697 1560 1389 1328 1763 2173 2398 2535 2816 3123 3241 2668 2967 3280
1782 1717 1732 1863 1880 1956 1963 1963 2024 1910 1948 1970 1986 2052 2003 1956 1473 949 548 899 1119 1340 1559 1742 2059 1877 1729 1688 1934 2052 2207 2419 2426 2150 2193 2339 2362 2355 2776 3205 3126 2828 2923
1875 1863 1928 1989 1954 1958 1987 2037 2030 2092 2111 2094 2097 2163 2130 2113 1526 1153 888 1085 1166 1498 1612 1845 2000 2127 2089 1882 1995 1849 1858 1900 1615 1591 1690 1751 1825 1933 2062 2383 2425 2642 2711
1883 1922 2022 2078 2135 2101 2154 2195 2268 2190 2232 2169 2231 2340 2320 2398 2133 1250 1021 1331 1271 1284 1593 2012 1704 1733 1904 1754 1916 1732 1722 1608 1680 1893 2256 2763 2463 2521 2277 2131 2579 2522 2706
1711 1712 1884 2125 2264 2309 2415 2446 2400 2211 2084 2219 2169 2297 2461 2401 2519 1617 996 1536 1322 1250 1214 1021 1212 1145 1287 1182 1151 1782 1892 1965 2271 2824 3290 3563 3484 3301 3364 3457 3048 2560 2561
1749 1782 2067 2197 2085 2144 2534 2519 2470 2452 2439 2534 2441 2416 2273 2440 2171 1942 1418 1298 1601 1607 1409 1204 1607 1604 1374 1307 1242 1453 1532 1561 2119 2598 2967 3210 3098 3020 2952 2753 2973 3071 2879
1962 2101 2123 2215 2206 2251 2514 2671 2631 2705 2578 2576 2589 2544 2410 2471 2762 2123 1485 1286 1290 1553 2031 2259 2322 2356 2138 1919 1690 1720 1438 1848 2337 2655 2724 2686 2637 2304 2627 2576 2535 2257 1557
2228 2317 2384 2536 2484 2294 2502 2645 2558 2563 2611 2542 2642 2644 2665 2707 2886 3181 2559 1503 1144 1188 1350 1935 2411 2406 2445 2586 2786 2270 2247 2621 2590 2640 2324 2023 2100 2279 2326 1504 453 294 207
2384 2458 2620 2662 2606 2751 2696 2492 2751 2713 2166 2814 2720 2877 2970 3045 3127 3263 3449 3531 2875 2138 2164 2367 2524 2536 2709 2996 3128 3150 3183 2713 2137 1924 1847 1924 2314 1787 526 230 222 180 161
2233 2212 2309 2368 2683 2728 2876 2286 557 844 1186 1633 1744 2349 3231 2923 2912 2968 3024 3010 2800 2610 2548 2975 2920 2878 2969 3057 3088 2976 2687 2323 2150 1895 1986 1321 722 336 222 169 101 58 86
2012 2673 2650 2254 2449 2684 2508 2522 1685 931 883 1210 1508 1904 2144 2150 2507 2593 2464 2089 2037 2521 3361 3189 3342 3531 3264 2951 2671 2264 2148 1487 1153 1086 740 534 228 193 98 56 4 120 121
993 1102 2192 1747 275 204 112 252 0 117 2124 2293 984 1213 1368 1766 1875 1897 1755 1882 2035 1915 2909 3114 3045 2674 2237 1882 1430 1304 1045 1056 808 472 265 174 175 189 30 3 66 137 40
960 1071 1575 1390 563 316 308 175 317 767 2625 2840 1103 146 229 562 1047 1209 1426 3468 3355 2554 1933 1885 1540 1097 893 673 576 594 700 495 206 146 138 62 46 14 5 2 51 1 0
403 328 739 1641 1534 563 418 362 1947 2548 2765 2564 1676 1120 117 729 1521 1425 1358 2056 2109 1515 1048 854 427 272 173 156 159 188 151 56 30 15 9 4 5 6 4 3 1 2 4
22 334 394 1054 1388 1477 1429 1443 1767 2215 2419 2515 1983 150 366 1331 1348 862 381 292 285 311 260 48 10 0 1 2 36 84 26 2 0 0 0 0 1 5 2 6 7 2 5
0 20 376 681 1031 914 817 601 730 1373 788 157 2 1 4 99 3 2 4 3 3 3 2 1 0 0 0 0 0 0 0 1 2 2 1 2 6 2 3 1 2 1 1
0 0 24 359 840 462 610 466 297 219 263 49 11 5 0 0 0 3 4 2 1 0 0 0 0 0 0 0 0 0 0 0 0 0 0 0 4 1 4 5 6 9 5
0 0 30 217 245 401 511 312 106 0 0 0 0 0 0 0 2 3 2 1 1 0 0 0 0 0 0 0 0 0 0 0 0 0 0 0 0 7 6 12 24 26 17
0 5 4 2 2 2 1 1 1 1 1 1 2 0 1 1 3 3 1 0 0 0 0 0 0 0 0 0 0 0 0 0 0 0 0 0 0 0 2 22 30 30 22
6 3 5 3 2 1 1 4 3 2 2 2 1 2 1 1 1 1 0 0 0 0 0 0 0 0 0 0 0 0 0 0 0 0 0 0 0 0 0 0 4 40 32

GFSGL_con_mlcape_057.txt.gz
CAPE
1253 1354 1093 1204 1196 894 1461 1508 1629 1290 1474 1319 1256 1075 1164 1235 1309 2112 1744 1505 1641 1711 1814 1568 1996 2025 1601 1007 679 535 493 481 439 389 329 450 1114 1551 1469 1469 1304 1284 1070
1260 1495 1239 1344 1077 944 905 1475 1679 1701 1670 1777 1783 1504 1342 946 1418 2028 1772 1160 1794 1784 1768 1866 1730 1804 2310 2173 1767 1401 857 951 770 804 706 814 1096 1171 1227 1600 1452 1540 1403
1226 1310 1362 1290 1298 1018 1470 1403 1580 1862 2112 1747 1891 2031 1695 1115 1520 2024 2162 1920 1651 1721 1746 1903 1972 2098 2285 1907 2188 1340 1072 1439 1617 1698 1620 1449 1344 1360 1451 1698 1905 1949 1806
895 1008 1242 1457 1481 1363 1533 1717 1808 2010 2194 2198 2178 2174 2018 1738 1406 1492 1939 2124 1991 1704 1855 1987 2073 2201 2452 2735 2568 2627 2356 2111 1623 1623 1574 1618 1564 1407 1194 1334 1663 1788 1835
998 1009 1171 1507 1668 1766 1554 1916 1964 2138 2271 2385 2453 2349 2298 1877 1570 1506 1783 1998 2135 1964 1903 2104 2088 2248 2192 2690 2550 2621 2526 2609 2202 2039 1793 1491 1243 1237 1759 1732 1837 2299 2426
1275 1168 1183 1563 1774 1746 1708 1874 2094 2183 2330 2475 2404 2468 2383 1759 1278 1058 1325 1518 1841 2022 2160 2199 2234 2097 1971 1934 2137 2259 2241 2673 3187 2446 1782 1651 1756 2089 2166 2158 2422 2399 2621
1562 1593 1441 1671 1839 1836 1871 1987 2178 2251 2352 2515 2566 2554 2576 2471 1334 926 700 1174 1625 1850 2017 2239 2204 1493 1948 2496 2306 2114 2040 1843 1647 1810 1837 1963 2112 2409 2871 3047 2283 2651 3394
1830 2075 1739 2017 2054 2090 2164 2231 2383 2492 2364 2539 2611 2644 2700 2721 2023 1095 723 965 1094 1422 1978 2114 2278 2072 2128 2329 2604 2469 2558 2717 2703 2286 2161 2417 2817 2953 3098 2900 2851 2914 3318
2320 2035 2262 2103 2417 2491 2433 2493 2684 2690 2661 2615 2774 2792 2814 2831 1984 1409 1020 1108 1208 1487 1772 1789 2109 2508 2650 2082 1814 1901 2297 2672 2050 1507 1552 1967 2110 1933 1515 1706 2282 3126 3112
2364 2313 2462 2373 2628 2750 2815 2870 2911 2842 2826 2506 2667 3010 3121 3162 2722 1640 1281 1611 1391 1448 1907 2123 1893 1752 2027 2110 2265 2338 2466 2724 2607 2238 2122 2241 1967 2212 2369 2569 3156 3200 3187
2384 2538 2810 2697 2812 3007 3129 3145 3176 3137 2558 2938 2780 2936 3054 2882 3275 2104 1347 1921 1516 1496 1447 1170 1491 1487 1359 1137 1167 2076 2327 2605 2395 2147 2154 2867 3316 3681 3667 3402 3378 3260 3248
2286 2558 2775 2937 2719 2757 3148 3263 3250 3217 3100 3299 3169 3227 2822 3318 2831 2369 1764 1566 1966 1758 1332 744 943 769 748 952 1007 1182 1266 1380 1801 2177 2577 2963 3356 3545 3568 3566 3348 3475 3436
2449 2660 2782 2937 3018 2827 3143 3350 3193 3220 2776 2730 2864 2653 2439 2342 2821 2300 1718 1706 1728 1858 1876 1351 1109 1350 1496 1041 911 1314 1523 2007 2289 2703 2987 3320 3317 3519 2817 2603 3239 3069 3249
2632 2763 2860 2913 3010 2897 3020 3151 2916 2750 2729 2611 2510 2443 2260 1930 1592 2095 2079 1348 1325 1571 1739 1845 1954 2055 2109 2640 2944 2233 2355 2781 2999 3138 3393 3299 2827 2473 2855 2824 2512 935 455
2666 2653 2754 2712 2713 2877 2927 2828 2747 2720 2473 2605 2255 1925 1694 1993 2153 2469 2816 3072 2399 2019 2174 2212 2147 2166 2483 2852 3150 3243 3383 3393 3259 3328 3138 2561 2695 2680 2853 1958 775 485 431
2583 2692 2671 2598 2776 2806 2813 2105 806 1295 1276 1470 1384 1842 2633 1949 2110 2214 2527 2900 3009 2499 2204 2604 2849 2964 3141 3192 3250 3561 3570 3457 3535 3033 2582 2563 2690 2301 1566 805 489 378 382
2481 2775 2850 2710 2911 3013 2897 2673 2380 1247 1096 1294 1615 1886 1612 1951 2150 1962 1693 2255 2555 2549 3283 3236 3216 3420 3419 3479 3421 3417 3201 3048 2781 2615 2654 2113 1801 1354 570 435 394 282 445
2022 2395 2684 2622 2875 3039 3022 2894 2725 2471 1981 2008 1138 1352 673 1298 1655 1798 1752 2219 2708 2725 3483 3271 3738 3562 3918 3681 3463 3169 2673 2358 2202 2015 1621 1447 1083 639 475 503 261 265 449
587 1082 1804 1984 2537 2259 1376 970 703 498 590 464 844 777 571 580 739 925 1401 2651 3149 3286 3049 3324 3264 3104 2831 2373 2053 1667 1505 1389 1382 1269 1104 776 503 358 343 226 142 70 60
103 335 852 1219 830 902 810 847 615 345 105 0 8 301 357 730 1379 2000 1845 2533 3252 3395 2488 2251 2114 1456 1161 954 916 918 897 589 451 432 391 317 206 91 140 122 103 69 33
0 123 459 1140 1542 777 1134 541 707 929 1684 1103 606 710 624 1455 1682 1508 962 790 862 1326 1286 1089 614 515 357 369 352 338 423 408 234 127 24 8 1 2 65 64 202 22 1
0 0 26 869 1048 1375 1391 1111 494 1319 1763 1496 965 384 548 635 387 92 42 20 6 10 41 140 78 7 0 0 0 0 10 25 63 60 35 36 13 6 0 1 2 6 20
0 0 0 407 584 654 846 781 730 941 1150 981 533 328 217 56 97 3 0 0 0 0 0 0 0 0 0 0 0 0 0 0 0 0 0 0 0 4 2 1 3 1 12
0 0 1 75 278 225 145 204 95 15 21 56 29 189 53 0 0 1 0 0 0 0 0 0 0 0 0 0 0 0 0 0 0 0 0 0 0 0 3 14 14 6 8
0 2 0 0 1 1 0 0 0 0 0 0 0 0 0 0 0 0 0 0 0 0 0 0 0 0 0 0 0 0 0 0 0 0 0 0 0 0 1 8 13 10 18
6 6 6 6 4 2 4 2 0 0 1 0 0 0 0 0 0 0 0 0 0 0 0 0 0 0 0 0 0 0 0 0 0 0 0 0 0 0 0 0 0 0 2

GFSGL_con_mlcape_060.txt.gz
CAPE
1686 1413 1316 1042 531 324 634 79 1111 643 1729 798 1707 1814 1854 1647 2076 1967 1388 1690 1544 1526 1817 2034 1548 1436 1400 1939 1604 796 578 770 677 662 1028 900 1141 1125 1197 1188 1337 1321 1328
1785 1589 1470 1402 918 719 135 1006 977 1255 1053 1984 1244 1900 1387 1853 1868 1821 2008 1432 1747 1666 1849 1479 2120 2495 2228 1649 1683 1738 1883 1754 1232 1043 971 655 775 1394 1569 1688 1807 1670 1539
1755 1622 1637 1575 1490 1049 723 356 1326 1443 1954 1545 2094 1590 1986 1688 1646 1696 2159 2063 1696 2321 2279 2102 1873 1975 1997 2592 2344 2053 1582 1667 1540 1320 1750 2288 2072 1736 1648 1805 2038 2020 2059
1527 1585 1565 1598 1510 1370 1439 658 1578 1706 1501 1805 1831 2285 2139 1961 1625 1600 2377 2383 2087 1906 2284 1835 2191 2414 2375 2534 2401 2097 2204 2151 1959 1814 1625 1791 2036 2021 2129 2107 1764 1734 1903
1100 1380 1627 1734 1598 1592 1350 1421 741 1462 1911 2022 2074 2294 2451 2393 1965 1562 1816 2350 2390 2259 2079 2200 2205 2400 2371 2627 2772 2829 2745 2661 2726 2741 2717 2643 2093 1682 1699 2028 2513 2670 2400
1124 1314 1415 1690 1699 1673 1438 1522 1646 1476 1716 2118 2303 2335 2550 2535 2031 1463 1600 1725 2353 2359 2246 2161 2477 2068 1850 1668 1731 2182 2394 2382 2615 2875 2881 2492 2105 1954 2343 2020 1851 2104 1964
1362 1340 1400 1659 1796 1700 1846 1506 2003 1837 2052 2172 2317 2455 2558 2660 1971 1306 1298 1632 1759 2135 2344 2325 2354 2206 2061 2212 1858 1501 1560 1723 1813 1969 1967 1944 1925 1792 2003 2316 2263 2609 2730
1530 1673 1532 1514 1712 1905 1890 2046 1831 2214 2114 2304 2402 2466 2567 2663 2436 1483 1022 1307 1586 1819 1883 2110 2290 2247 1890 2261 2488 2558 2430 2340 2248 1986 1931 2077 2272 2481 2465 2415 2555 2935 2454
2102 1699 1965 1578 1827 1912 2039 1993 2130 2126 2353 2362 2548 2596 2523 2649 2470 2043 1180 1000 1235 1330 1410 1782 2431 2441 2192 1628 1270 1527 2104 2555 2910 2695 2715 2650 2287 2201 2388 2484 2170 1791 2397
1783 2250 1950 2050 1870 2112 2134 2162 2236 2286 2362 2538 2498 2654 2814 2792 2579 2174 1689 1578 1254 1372 1560 1675 1481 1283 1575 2279 2539 2391 2087 1821 2063 2440 2621 2406 2101 2053 1753 1641 2408 3044 3408
2265 1926 2467 2470 2092 2397 2421 2427 2500 2559 2646 2710 2718 2775 2996 3008 3078 2348 1603 2019 1693 1731 1568 1714 1990 1770 1461 1186 1098 1544 1824 2204 2542 2748 2674 2360 2173 2885 3180 3365 3545 3340 3089
2660 2406 2421 2517 2724 2499 2855 2914 2822 2843 2897 2904 2946 3011 3030 3344 3107 2633 2169 1633 2021 2015 1905 1997 1830 1556 1528 1357 1106 1069 1215 1354 1830 1877 1849 2088 2517 2771 3455 3815 3739 3398 3248
2045 2669 2654 2923 2903 2739 3005 3119 3231 3178 3164 3090 3074 3194 3204 3218 3465 2834 2204 2048 1891 2101 2149 2011 1428 1221 719 442 430 731 797 1089 1341 1700 2254 2678 2979 3512 3537 3207 2957 3065 3148
1543 3010 2858 3156 3139 2970 3074 3240 3347 3327 3318 3265 2998 3301 3196 3144 3204 3529 2519 1806 1779 1786 1950 2110 1870 1702 1612 1991 2238 1319 1314 1864 2436 2856 2949 3114 3562 3447 2987 2852 2989 3022 1100
2379 3082 3170 3244 3099 3171 2834 3311 3321 3233 3228 3197 3169 2868 3169 2981 2672 2610 2792 2269 2058 1913 2087 2139 2196 2078 1816 2058 2572 3074 2900 2881 2996 3089 3214 3463 3417 2935 2894 2904 2992 1252 708
3296 3301 3188 3176 3163 3204 2889 2520 1554 2667 2348 2777 2534 2897 2029 1760 1395 1461 1090 2073 1867 1859 1940 2360 2401 2387 2352 2211 2231 2660 3347 3552 3538 3638 3579 3388 3051 2875 2748 2652 1044 658 555
1752 2889 2918 2772 2915 2991 2956 2724 2338 1053 521 896 1660 1735 2316 1977 1890 1772 1703 1533 1951 2009 2647 2484 2570 2929 2947 3203 3416 3727 3847 3830 3775 3473 3347 3051 2763 2558 2017 1101 690 535 402
590 1440 2502 2647 2540 2842 2907 2997 2364 2153 2088 1747 647 831 1089 1536 1770 1813 2074 2280 2266 2205 2823 3293 3432 3338 3572 3639 3418 3434 3573 3318 3071 2960 2845 2830 2203 1840 1171 798 675 494 334
0 66 556 1643 1925 2163 2666 3085 2803 2614 2546 2431 1354 599 289 405 642 987 1528 2517 2818 3020 3035 3118 3489 3599 3728 3835 3629 3528 3206 2859 2551 2201 2096 1781 1186 857 616 506 394 202 119
0 0 90 614 817 599 1407 1375 1928 2088 2068 1615 1094 1068 536 349 724 851 1602 2193 2551 2944 3510 3424 3286 3233 3113 2785 2392 2218 1867 1170 985 788 666 541 355 301 240 236 219 230 120
0 0 0 433 289 459 784 528 457 506 511 284 186 72 115 195 1403 2244 1685 1156 1908 2667 2458 2357 1622 1337 915 853 734 698 673 654 614 346 273 174 120 18 17 72 41 132 186
0 0 13 511 567 758 792 859 743 314 378 502 322 154 55 283 340 360 152 178 255 432 575 581 402 193 129 110 73 52 43 52 65 60 17 4 35 26 1 0 0 0 1
0 0 0 0 119 280 188 0 4 58 134 179 281 624 578 107 14 3 1 0 0 0 0 0 0 0 0 0 0 0 0 0 0 0 0 0 0 0 9 0 0 0 1
0 1 0 0 0 0 2 1 0 0 0 0 0 2 0 0 0 0 0 0 0 0 0 0 0 0 0 0 0 0 0 0 0 0 0 0 0 0 0 7 19 13 6
1 2 0 0 0 0 0 0 0 1 4 4 1 0 0 0 0 0 0 0 0 0 0 0 0 0 0 0 0 0 0 0 0 0 0 0 0 0 0 0 1 0 1
7 8 7 7 5 8 9 5 5 1 2 1 1 2 2 0 0 0 0 0 0 0 0 0 0 0 0 0 0 0 0 0 0 0 0 0 0 0 0 0 0 0 0

GFSGL_con_mlcape_066.txt.gz
CAPE
130 75 0 0 101 309 199 125 381 908 854 988 1112 912 1134 1023 906 895 729 730 943 938 767 796 788 885 430 621 668 1219 1301 835 454 356 361 793 803 625 1461 1441 1324 1374 1449
225 211 75 0 2 175 254 170 69 238 690 1021 869 1143 1153 1111 972 1058 1009 1020 898 1135 918 814 1127 1393 1193 1259 1232 1144 1091 1132 1153 1034 810 1197 1313 1555 1380 1372 1967 1815 1844
272 263 255 88 0 8 187 255 186 37 421 1164 1017 1025 1351 1166 1193 1228 1291 1140 1107 1071 1266 1248 1045 1183 1365 1602 1555 1749 1620 1654 1797 1774 1808 1664 1660 1326 1942 2024 1751 1725 1451
397 377 392 440 182 3 5 177 124 169 30 482 1136 1234 1218 1217 1395 1457 1429 1322 1239 1187 1151 1125 1417 1440 1366 1221 1547 1525 1490 1545 1571 1540 1442 1360 1504 2068 2196 2378 2292 1315 1021
534 583 445 571 657 344 12 0 24 16 122 158 482 1065 1421 1312 1256 1172 1173 1077 1014 1009 1121 1160 1359 1715 1771 1603 1701 1769 1854 1830 1859 1922 1846 1950 2123 2285 2170 1788 1382 1428 1508
765 743 833 608 749 741 542 67 0 0 0 105 287 451 953 1415 1276 1142 1136 1150 1108 966 801 866 1245 1245 1358 1781 1823 1870 1954 1917 1928 2015 2056 1998 2052 1878 1520 1466 1665 1793 1583
1000 1049 1084 1156 965 863 869 654 336 178 0 0 193 573 724 1025 1238 1125 1008 1021 1040 1026 935 938 1173 1409 1405 1462 1403 1635 1578 1735 2044 2060 1900 1782 1619 1498 1565 1793 1932 1837 1780
600 1258 1483 1437 1369 1271 1038 943 759 562 300 64 264 366 649 1125 1364 1209 1135 1144 1023 1045 1194 1183 1308 1384 1427 1471 1452 1426 1445 1481 1350 1198 1320 1495 1494 1628 1768 2091 1964 1935 2056
431 688 1059 1587 1511 1436 1343 1189 1077 960 798 406 370 730 578 617 758 1024 1104 1182 1106 1079 1087 1080 1257 1269 1205 1229 1556 1391 1330 1452 1630 1621 1663 1851 1949 1999 1865 1721 1739 2034 2077
11 310 460 950 1414 1509 1435 1361 1256 1148 1099 954 660 536 995 1127 1189 984 903 1163 1014 1060 1132 1146 1075 1325 1291 1141 1244 1279 1208 1235 1239 1190 1281 1202 1250 1328 1488 1403 2127 2146 1778
176 485 784 884 1180 1401 1441 1420 1370 1307 1171 1168 1091 896 750 849 1056 924 873 1281 1260 1006 959 915 967 930 944 961 1004 1217 1211 1331 1316 1265 1406 1645 1788 1930 1864 2026 1597 1526 2012
2 21 332 1220 1447 1349 1448 1493 1393 1354 1322 1183 1302 1365 1162 1219 1286 1166 1011 1042 1501 1418 1230 967 861 716 601 650 707 999 1197 1169 1177 1174 1177 1215 1348 1384 1619 1611 1485 1949 2333
0 8 32 676 1749 1408 1453 1515 1535 1388 1445 1481 1252 1242 1477 1557 1529 1355 1167 1032 1121 1547 1643 1452 994 733 597 446 414 557 454 329 515 752 947 1075 1123 1159 1214 1382 2199 2825 2787
0 0 2 348 1743 1865 1510 1554 1535 1631 1499 1497 1616 1541 1468 1553 1704 1761 1324 1001 1040 1027 1425 1628 1503 1112 926 906 797 632 420 624 812 835 874 922 972 1088 1299 2046 2607 2895 2611
0 0 24 383 1758 2116 1901 1802 1680 1673 1667 1613 1575 1573 1606 1604 1629 1817 1892 1573 1391 1330 1468 1380 1230 1222 1373 1148 1031 994 733 508 555 544 609 700 856 1216 2106 2473 2833 2627 2394
5 5 8 13 653 2249 2358 1902 998 1228 1583 1544 1548 1634 1698 1659 1685 1697 1686 1829 1758 1580 1140 1454 1530 1562 1435 1481 1418 1286 1192 1069 1086 1013 1032 1141 1466 2132 2573 2643 2703 2259 1917
0 3 7 7 191 1922 2473 2441 2174 1196 813 1282 1407 1582 1671 1899 1600 1671 1853 1727 1570 1129 1886 1520 1699 1643 1722 1638 1614 1602 1459 1414 1268 1223 1311 1539 2081 2405 2447 2667 2266 1282 605
1 0 3 7 4 440 2491 2738 2315 2181 2269 2042 1074 1386 1491 1555 1875 1909 1464 796 1099 412 1472 2107 1962 1964 1837 1744 1648 1663 1627 1371 1669 1590 1676 2145 2514 2537 2583 2283 1628 1042 340
0 0 0 3 5 1 601 2267 2681 2323 2016 2203 1154 956 896 790 899 904 453 1613 1455 1326 1301 1835 1729 1459 1475 1406 1386 1364 1478 1549 1579 1884 2118 2373 2833 2609 2311 1701 1182 627 246
0 0 2 5 6 0 306 1134 1880 2029 1989 1635 1354 1600 911 789 1246 1365 861 891 1240 873 759 967 1173 1175 697 377 254 108 88 328 978 1717 2055 2314 1996 1833 1563 990 490 222 139
0 0 7 7 5 14 223 620 1405 1664 1621 1416 933 529 388 1433 1330 1150 734 623 591 757 909 877 919 627 97 121 149 71 0 0 36 83 36 341 324 482 292 134 80 47 32
0 0 7 4 6 1 16 337 690 1105 965 645 221 53 29 163 229 101 45 8 1 12 31 36 61 5 0 0 0 0 6 0 0 0 39 28 30 68 58 29 0 0 0
0 2 7 1 10 3 1 0 0 149 8 12 49 22 0 0 1 3 7 8 7 0 1 2 0 0 0 0 0 0 0 0 0 0 0 0 0 6 13 13 0 0 0
0 6 8 0 1 10 11 7 13 1 3 1 2 1 2 5 7 7 13 10 0 0 0 0 0 0 0 0 0 0 0 0 0 0 0 0 0 0 0 0 0 0 0
4 8 9 8 4 5 7 2 10 15 11 13 8 4 5 5 3 10 8 4 0 0 0 0 0 0 0 0 0 0 0 0 0 0 0 0 0 0 0 0 0 0 0
5 7 9 11 11 9 9 8 11 11 11 9 11 11 8 12 12 8 8 9 5 0 0 0 0 0 0 0 0 0 0 0 0 0 0 0 0 0 0 0 0 0 0

GFSGL_con_mlcape_069.txt.gz
CAPE
19 7 30 40 29 45 94 129 282 655 717 786 849 940 933 1063 1096 923 610 754 906 833 810 767 593 535 387 402 595 733 859 831 740 587 387 797 926 1218 1412 1204 1624 1910 1569
76 39 11 0 0 0 0 69 135 181 425 851 855 929 999 1042 1040 999 828 792 779 772 970 880 752 859 842 989 960 926 1004 936 992 1012 887 1222 1493 1437 1282 1339 2031 1751 2049
152 112 38 2 0 0 0 0 7 117 94 211 532 954 1119 1065 960 1020 913 860 925 959 883 1181 1094 952 1031 1322 1322 1332 1390 1527 1397 1334 1416 1357 1336 1265 1411 1937 2144 2050 1235
185 241 152 76 13 11 0 0 0 2 34 78 292 738 986 942 1020 1054 1042 1000 975 1064 1044 1034 1056 1159 1236 1204 1160 1276 1607 1442 1341 1326 1305 1362 1498 1693 1787 1678 1448 1396 1436
46 157 227 227 141 3 4 0 0 0 0 6 120 450 998 1173 1127 1106 1061 1098 1084 1136 1200 1186 1188 1168 1161 1442 1478 1474 1255 1426 1598 1552 1521 1513 1466 1365 1375 1750 1547 1438 1612
268 203 247 252 286 160 1 0 0 0 0 0 0 35 259 743 1078 1118 1106 1136 1228 1140 1084 1039 1098 1126 1066 1089 1356 1747 1912 1905 1714 1632 1650 1657 1662 1619 1509 1461 1358 1511 1739
408 366 335 335 367 422 282 32 0 0 0 0 0 0 0 117 433 775 1010 1159 1108 988 944 929 876 1037 968 961 1093 1016 1138 1356 1670 1906 1799 1740 1693 1573 1512 1422 1460 1713 1852
400 562 507 545 455 482 576 438 196 22 4 3 0 0 0 0 8 85 369 915 1109 1053 1026 1010 917 909 1018 1004 1177 1236 1245 1287 1179 1239 1418 1652 1672 1686 1533 1610 1653 1738 1611
67 449 782 810 897 725 708 707 629 393 205 137 48 0 0 37 65 35 53 403 829 975 992 1022 1070 1051 1006 1003 1132 1197 1174 1325 1437 1246 1186 1218 1207 1229 1173 1352 1585 1497 1518
55 94 354 367 1307 1259 1156 1004 881 742 649 473 367 110 89 230 111 91 261 533 498 812 1084 1036 893 866 829 938 1033 1136 1122 1117 1217 1170 1080 1031 1066 1069 969 916 1381 1603 1636
3 0 28 155 482 559 1002 1274 1219 1076 947 875 794 552 319 334 507 185 96 607 535 552 642 758 859 573 467 623 754 1132 1161 1270 1259 1160 1076 1038 1125 1226 1289 1163 1254 1509 1787
0 0 0 8 75 300 1199 1190 1306 1275 1159 1074 1034 978 792 511 378 493 373 332 653 658 717 863 794 695 516 414 294 451 745 856 1088 1081 1094 1221 1282 1111 1037 1159 1327 1355 1419
0 0 0 0 0 101 729 1304 1272 1299 1325 1213 1154 1070 1035 958 791 399 281 312 478 932 1064 1032 1048 909 720 433 284 350 283 308 582 684 879 872 743 785 947 1061 1101 1194 1508
2 0 0 0 1 36 562 1256 1339 1353 1393 1304 1269 1181 1031 1115 1241 1117 660 331 308 403 771 1069 1240 1191 1012 899 637 357 221 402 559 589 571 604 677 816 813 858 1054 1257 2260
0 0 0 0 0 0 36 1116 1427 1446 1454 1442 1332 1263 1211 1146 1131 1315 1339 1061 899 847 862 867 1130 1052 1261 1106 896 848 654 578 609 547 580 748 725 550 629 736 1063 2034 2495
0 0 0 0 0 0 4 280 1069 1214 1259 1223 1212 1270 1278 1283 1208 1099 1150 1230 1053 797 749 1115 1151 1207 1206 1182 1289 1050 860 858 843 655 582 550 666 770 805 932 1441 2245 2440
0 0 0 0 0 0 0 28 745 1480 855 837 798 1033 1093 1395 1049 1105 1003 1029 869 836 1443 1332 1354 1413 1326 1283 1197 1299 1286 1136 952 799 741 786 967 1226 1240 1331 1907 2273 2310
0 0 0 0 0 1 3 0 26 1028 2049 1906 1197 997 936 1022 1052 1125 1031 476 563 331 1279 1474 1534 1392 1470 1466 1418 1412 1400 1392 1267 1213 1097 1061 1071 1238 1468 1420 2005 2197 1806
0 0 0 0 0 0 0 1 1 75 1553 2158 1794 1027 734 524 444 425 361 1400 1445 1107 935 1353 1405 1553 1558 1544 1515 1445 1458 1447 1347 1295 1244 1183 842 791 1197 1430 1580 1467 1129
0 0 0 0 0 2 2 0 0 60 655 1948 2059 1906 1187 575 1069 1002 581 863 1120 1227 966 858 1291 1325 1300 1376 1310 1104 1133 1092 712 407 241 11 0 0 0 0 69 598 767
0 0 0 1 0 4 3 3 4 116 411 1132 1663 1583 1293 1450 1472 1273 749 707 858 911 862 739 648 677 647 679 624 347 194 68 14 1 4 13 0 0 4 0 10 0 170
1 2 4 6 2 2 2 5 3 70 417 607 938 629 481 684 606 394 194 97 55 61 30 78 30 1 0 4 6 19 10 1 3 3 0 0 0 0 2 19 4 29 40
3 4 5 5 3 5 1 5 4 1 66 556 401 201 233 88 16 5 5 7 14 15 12 7 3 0 0 0 0 0 0 0 0 0 0 0 0 3 0 1 0 0 0
6 6 8 7 2 4 5 4 10 10 2 0 11 3 4 2 6 9 16 16 17 16 10 5 2 0 0 0 0 0 0 0 0 0 0 0 0 0 0 0 0 0 0
5 7 7 8 2 5 7 4 3 10 12 5 4 5 8 10 15 17 15 15 13 12 6 3 0 0 0 0 0 0 0 0 0 0 0 0 0 0 0 0 0 0 0
2 5 6 8 8 8 7 7 5 1 9 9 11 9 7 9 9 7 8 8 8 7 5 5 5 4 0 0 0 0 0 0 0 0 0 0 0 0 0 0 0 0 0

GFSGL_con_mlcape_075.txt.gz
CAPE
199 236 224 185 173 357 456 473 764 918 1019 1167 1328 1307 1411 1388 1599 1542 1460 1587 1311 1673 1595 1606 1551 1693 1227 1227 1150 1273 1419 1212 979 763 1643 1779 1981 2437 2240 2473 2024 1929 1844
155 177 148 214 220 214 220 290 413 660 991 1075 1285 1500 1544 1592 1647 1503 1379 1432 1143 1218 1403 1613 1449 1470 1504 1648 1657 1566 1430 1821 1541 1462 1557 1732 2091 2287 2487 2646 2301 1804 2434
188 98 26 51 178 265 331 284 282 303 714 949 1089 1178 1511 1655 1674 1666 1676 1375 1615 1647 1448 1461 1499 1766 1737 1592 1728 1773 1639 1965 2051 2006 1761 1922 2046 2118 2129 1800 2296 2449 1998
179 195 87 24 25 130 425 489 439 276 250 604 869 1033 1184 1578 1776 1759 1778 1770 1893 1885 1729 1601 1492 1594 1624 1979 2075 2127 1975 1993 1894 2087 1684 1645 1814 1951 2136 1528 1490 1613 1981
296 273 312 321 67 24 162 364 456 476 365 337 524 745 978 1137 1239 1479 1608 1765 1712 1586 1797 1720 1612 1488 1185 1366 1452 1534 1842 1844 1792 1785 1646 1524 1428 1338 1329 1383 1329 1598 1710
164 415 454 511 500 398 304 286 312 343 428 389 317 352 504 718 564 526 1028 1452 1583 1497 1496 1774 1717 1269 996 811 791 919 1241 1536 1520 1334 990 995 1615 1708 1187 1393 1324 1508 1252
258 260 384 523 630 567 489 424 369 315 346 370 335 388 334 387 344 278 331 786 1413 1543 1508 1626 1737 1481 1380 1646 1160 707 648 641 816 1193 1219 1332 1295 1520 1827 1937 1525 1689 1569
548 465 589 559 549 678 686 605 524 453 396 383 407 401 372 382 135 16 33 360 997 1349 1432 1555 1636 1585 1726 1557 1580 1639 1683 1643 1311 823 966 1290 1648 1894 2133 2030 2068 1919 1776
5 35 139 489 837 710 744 777 770 617 493 415 416 435 457 425 133 3 0 116 262 853 1183 1231 1375 1449 1449 787 956 1154 1377 1546 1324 1153 882 1079 1085 952 1048 1485 1454 1299 960
1 3 6 21 249 830 932 901 922 978 742 661 527 476 424 475 349 50 0 121 300 322 522 772 722 621 793 511 498 574 735 807 1011 865 1122 960 650 852 453 789 1380 1351 1041
0 0 0 6 3 63 619 1131 1038 1057 1099 1115 1059 881 736 642 564 179 2 103 372 578 652 635 612 381 131 23 46 352 327 739 736 1050 904 749 1020 1467 1635 1168 1135 1341 1161
0 0 0 0 4 2 29 71 354 956 1057 1154 1277 1392 1373 1194 718 383 86 4 228 542 777 798 767 402 166 42 0 62 208 256 709 694 501 537 621 778 1036 1277 1630 1675 1473
0 0 0 0 0 2 0 4 141 236 596 1093 1492 1278 1301 1390 1416 712 196 101 13 138 647 922 751 498 229 110 53 81 51 289 511 641 692 739 698 697 1090 1366 1588 1730 1700
0 0 0 0 0 0 0 1 0 15 264 458 899 1569 1568 1405 1509 1559 960 166 4 4 67 415 539 482 371 450 394 77 177 540 632 737 823 873 900 876 984 1269 1248 1240 1234
0 0 0 0 0 0 0 0 0 0 2 261 729 1248 1530 1641 1659 1588 1560 1526 482 220 194 349 602 719 755 812 772 945 997 719 705 847 1064 1051 1008 987 1049 1204 1301 1284 1289
0 1 0 0 0 0 0 0 0 0 0 0 0 0 259 1077 1222 1211 1004 784 603 299 276 811 990 1096 1077 938 923 959 995 1023 1063 981 981 970 1003 991 1054 1202 1337 1449 1386
0 0 0 0 0 0 0 0 0 0 0 0 0 0 0 132 792 568 643 443 297 162 732 1060 1010 988 873 865 1037 1262 1241 1060 1080 1333 971 943 966 1014 1184 1283 1469 1615 1571
0 0 2 0 0 0 0 0 0 0 0 0 0 0 0 0 86 310 229 131 291 57 840 997 1187 1084 1194 1386 1360 1465 1580 1244 1157 1571 1294 1018 1071 1135 1223 1373 1454 1650 1625
2 0 1 2 0 0 0 2 1 1 0 0 0 0 0 4 62 39 5 290 754 869 566 997 1284 1421 1411 1440 1726 1758 1542 1372 1129 1343 1685 1603 1456 1489 1577 1706 1819 1625 1674
2 1 3 2 1 1 2 1 1 3 1 0 0 1 2 18 157 228 27 107 574 1250 1426 1070 1203 1571 1656 1640 1659 1674 1758 1692 1376 1296 1479 1388 1392 1545 1682 1617 1534 1406 1130
1 1 1 2 2 2 3 3 4 4 0 0 2 3 3 5 97 352 755 347 398 906 1697 1696 1708 1630 1544 1640 1660 1568 1544 1508 1403 1321 1498 1498 1359 1470 1468 1392 1170 977 781
3 2 1 3 2 2 2 2 2 3 5 5 5 2 0 1 7 89 614 1027 697 771 870 1182 1519 1305 1142 1095 1169 1310 1390 1360 1291 1314 1371 1261 1020 798 429 363 227 155 76
6 4 3 3 3 3 4 4 5 7 7 7 7 5 6 5 7 35 110 20 1 2 5 4 1 1 5 5 5 1 108 201 120 96 250 302 211 122 78 76 41 43 21
2 2 2 3 5 6 7 7 8 8 7 8 7 8 3 6 2 3 8 14 16 15 10 14 14 8 8 11 8 5 4 3 4 1 0 0 3 14 24 49 33 44 49
2 1 2 3 4 5 6 7 7 8 6 6 5 4 6 11 10 11 11 11 10 9 9 9 9 7 5 4 3 2 0 0 0 1 1 0 0 0 0 13 39 57 65
2 1 2 1 2 3 4 6 6 5 5 5 4 5 6 5 6 6 5 4 4 4 5 6 6 5 3 2 3 1 0 0 0 0 0 0 0 0 1 4 1 1 1

GFSGL_con_mlcape_078.txt.gz
CAPE
1016 875 888 917 1021 1143 929 835 1065 914 1046 1522 1848 1741 1589 1639 1711 2157 1789 1477 1772 1427 1579 1666 1803 1641 1255 854 1009 978 1034 1148 1058 688 961 1233 2168 2511 2447 2621 2150 1792 1163
859 918 951 1066 969 788 963 850 986 1090 1102 1577 1879 1710 1144 1427 1681 2097 1864 1328 1517 1470 1541 1662 1692 1320 1702 1487 1234 1236 1157 1210 1281 1105 983 1146 1735 2122 2281 2561 2007 1689 1901
613 618 667 770 873 781 759 983 948 1068 1056 989 1521 1917 1604 1319 1798 1938 2127 2011 1700 1631 1518 1727 1571 1573 1634 1024 1448 1124 1223 1438 1371 1244 1177 1029 1348 1787 2115 2005 1835 1703 1276
588 691 575 652 745 661 686 914 1018 1109 1150 967 1054 1470 1811 1467 1493 1896 2206 2274 1885 1678 1949 2031 1917 1433 1532 1893 1980 1986 1931 1794 1283 1346 1192 1195 1256 1474 1726 1297 845 808 1035
659 689 732 853 792 694 538 718 948 1143 1189 1194 964 1040 1397 1540 1607 1860 2181 2133 1938 1928 2071 2320 2123 1891 1338 1436 1329 1647 1720 1787 1372 1116 1139 1187 1082 1044 1278 821 785 768 801
702 767 910 842 927 1041 849 486 903 1072 1250 1256 1225 971 808 565 523 885 1271 1906 2088 2221 2115 2072 2159 1851 1673 1244 910 640 828 1477 1467 816 450 431 835 982 712 729 723 673 643
435 948 704 785 1068 1063 1152 1127 1038 976 1091 1216 1221 1169 1107 977 301 101 455 836 1040 1446 1791 1801 1657 1305 1769 1892 1410 889 744 667 754 1299 1443 1346 1242 1310 1449 1624 1443 1370 1173
0 0 14 589 897 958 1004 1105 1204 1194 1132 1126 1165 1265 1241 1271 791 382 94 434 608 996 1256 1466 1809 1640 1187 1477 1714 1620 1890 1796 1499 1145 1145 1392 1476 1560 1832 1825 1900 1952 1665
0 0 1 2 32 601 1079 978 1059 1192 1177 1189 1160 1218 1347 1390 969 521 262 508 436 653 877 1252 1465 1769 1754 1435 1468 1335 1251 1364 1055 1453 1371 1213 1149 1011 961 1152 837 649 348
0 0 0 3 2 1 134 773 952 1133 1173 1332 1216 1228 1245 1319 1294 754 270 514 515 599 779 1025 1015 1139 1240 1222 1522 1479 1381 1231 636 373 843 885 777 1007 497 824 1182 912 437
0 0 0 0 0 2 1 8 487 1161 1245 1219 1307 1369 1442 1390 1317 731 357 563 632 662 730 756 829 634 536 397 588 1415 1022 867 432 361 294 390 353 479 1118 1439 1412 1247 553
0 0 0 0 0 0 6 1 4 191 674 1151 1286 1342 1652 1829 1535 1144 499 223 609 856 941 886 1025 865 525 359 260 384 488 521 228 2 0 0 24 65 43 374 1659 1946 1477
0 0 0 0 0 0 0 0 1 10 337 620 661 868 1334 1578 1923 1463 923 456 202 213 988 1145 1039 836 550 272 128 160 98 257 298 269 161 95 66 61 220 464 1233 1742 2226
0 0 0 0 0 0 0 0 0 0 0 39 270 639 738 1085 1360 1695 1316 599 181 90 166 262 608 762 845 999 863 239 151 401 436 479 373 169 246 229 276 426 491 545 796
0 0 0 0 0 0 0 0 0 0 0 0 3 0 40 481 1096 252 314 1427 1610 1092 537 662 791 805 953 1147 1212 1111 1085 803 601 645 661 654 659 648 655 617 469 462 503
18 0 0 0 0 0 0 0 0 0 0 0 0 0 0 0 0 0 0 92 296 820 631 955 1239 1364 1409 1449 1522 1540 1411 1227 1194 967 824 760 688 680 688 634 506 471 606
0 12 3 0 0 0 0 0 0 0 0 0 0 0 0 0 0 0 0 0 7 95 916 1218 1405 1433 1694 1749 1800 1627 1630 1586 1660 1640 1562 1320 1010 811 671 591 502 635 889
1 0 1 5 0 0 0 0 0 0 0 0 0 0 0 0 0 0 0 0 48 32 839 1146 1361 1624 1637 1489 1309 1518 1580 1583 1790 1896 1645 1497 1523 1109 839 771 768 899 987
8 3 2 5 5 1 0 0 0 0 0 0 0 0 0 0 0 0 0 2 104 529 534 865 1251 1392 1801 1758 1844 1898 1965 1983 2207 2139 1931 1981 1880 1508 1126 1010 984 984 1182
5 3 2 5 1 2 1 0 0 0 0 0 0 0 0 0 2 11 3 33 72 267 1095 1140 1163 1339 1728 2070 2043 1923 1823 1960 2077 2104 2027 1840 1850 1908 1964 1701 1654 1595 1877
0 6 3 6 9 3 4 2 1 1 1 1 0 0 0 0 0 1 2 63 217 336 557 1242 1673 1875 1826 1899 2003 1891 1886 1971 1881 2018 2060 1978 1816 1646 1569 1544 1671 1864 1841
8 7 4 3 3 1 6 4 2 1 2 0 0 0 0 0 0 0 0 4 89 482 968 796 1003 1227 1346 1775 2097 2102 1978 1973 1897 1716 1715 1806 1741 1563 1470 1466 1527 1560 1487
7 3 2 4 7 5 4 2 1 0 2 2 2 2 2 0 0 0 2 5 5 0 1 3 7 14 1 1 6 15 336 922 936 779 1326 1473 1468 1457 1387 1122 857 645 540
3 2 2 1 3 4 4 4 2 2 2 4 3 4 5 4 4 4 3 3 7 7 8 7 13 7 10 5 5 8 7 4 6 3 4 106 248 226 162 128 83 50 13
1 1 1 3 3 2 4 4 4 4 3 4 4 6 6 6 6 5 5 5 5 9 9 9 9 10 9 7 6 1 1 0 1 4 3 1 0 0 0 0 0 1 14
0 0 1 1 1 2 1 1 2 3 4 4 4 5 6 5 5 4 4 4 3 4 5 6 6 6 7 6 4 2 0 0 1 2 0 0 0 0 1 1 0 0 1

GFSGL_con_mlcape_081.txt.gz
CAPE
1498 1431 1397 1439 1519 1702 1403 1165 983 1106 1179 1246 1688 1624 1774 1835 1699 1684 1489 1701 1847 1514 1575 1686 1465 1683 1385 784 567 566 660 837 915 885 1188 1052 2022 2079 2608 2840 2652 2465 1575
1346 1579 1465 1478 1529 1380 1564 1367 1240 1226 1225 1086 1469 1818 1893 1545 1760 1874 1743 1066 1327 1703 1415 1403 1372 1252 1797 1706 1494 1379 1119 1650 1435 1519 1402 1093 1292 1822 2378 2755 2507 1964 1864
1164 1365 1539 1435 1397 1371 1330 1456 1382 1377 1441 1049 1334 1674 1866 1362 1800 1863 1857 1775 1851 1817 1828 1526 1321 1437 1674 1368 1597 1035 983 1480 1574 1680 1429 1170 1056 1269 1574 2255 2507 1713 1534
946 1126 1204 1335 1309 1368 1393 1460 1403 1548 1557 1470 1208 1486 1870 1545 1287 1663 1946 1672 1960 1930 1802 1849 1717 1443 1599 1748 1792 1814 1546 1345 1141 1022 930 1067 1218 1369 1440 1577 1239 795 843
972 1090 1344 1307 1156 1249 1396 1414 1389 1530 1631 1699 1658 1297 1524 1565 1441 1410 1685 1744 1761 2214 1936 2042 2096 1636 1306 1563 1394 1652 1695 1713 1185 924 910 976 1057 1271 1530 1359 904 735 669
67 375 535 918 1089 1569 1432 1369 1341 1364 1755 1955 1806 1721 1370 1043 516 744 1582 1896 1958 2268 1964 1932 1874 2012 1836 1568 1059 671 954 1900 2057 1309 933 650 883 788 562 687 854 577 747
0 0 8 192 711 940 1363 1644 1581 1410 1514 1827 1904 1877 1845 1751 946 262 410 1009 1387 1934 2019 2142 2009 1146 1757 2246 1765 1200 702 385 395 1015 1589 1532 1232 1437 1641 2114 1471 1713 1372
0 0 0 0 31 260 822 1132 1211 1647 1635 1571 1804 2001 2092 2076 1480 858 287 510 893 1243 1454 1979 2211 1857 1814 2106 2239 2058 2131 2038 1543 948 858 1073 1540 1854 1879 1761 2223 2357 2110
0 0 0 0 1 3 35 154 919 1225 1150 1317 1547 1697 1577 2104 1692 1154 815 819 532 741 1160 1324 1374 1960 2317 1582 1408 1892 2068 1988 1263 1601 1416 1415 1240 956 840 891 578 515 405
0 0 0 0 0 0 0 3 39 616 1295 1479 1398 1234 1361 1653 1922 1518 1005 1182 1015 914 1098 1214 1027 1007 1223 1469 1731 1732 1790 1823 2043 1025 863 1184 1079 1202 806 722 826 472 359
0 0 0 0 0 0 0 1 0 4 292 1135 1520 1499 1479 1513 1616 1321 1022 1425 1280 1037 1034 998 1160 897 607 415 657 1620 1724 1853 1769 1289 1017 916 672 865 1232 1276 1286 1133 466
0 0 0 0 0 0 0 0 1 0 9 306 856 1059 1457 1396 1421 1524 999 776 1309 1176 1249 1123 1169 764 476 452 339 457 466 589 1033 910 623 205 39 29 47 146 958 1595 1474
0 0 0 0 0 0 0 0 0 0 0 0 197 337 798 900 1379 1215 863 615 579 799 1216 1237 945 631 418 182 95 218 215 404 549 736 868 818 491 81 0 23 182 1509 2118
0 0 0 0 0 0 0 0 0 0 0 0 0 1 0 29 756 1166 68 0 33 89 193 561 647 674 639 690 868 459 322 593 748 807 743 784 597 317 173 181 147 140 263
0 0 0 0 0 0 0 0 0 0 0 0 0 0 0 0 0 0 0 0 0 0 0 66 1226 1131 942 1061 1208 1354 1592 1275 886 725 761 748 681 619 450 395 410 392 486
8 0 0 0 0 0 0 0 0 0 0 0 0 0 0 0 0 0 0 0 0 0 0 66 1049 1239 1509 1536 1564 1569 1752 1717 1742 1562 1122 867 811 769 763 785 738 779 782
5 7 2 0 0 0 0 0 0 0 0 0 0 0 0 0 0 0 0 0 0 0 0 0 373 1012 1127 1481 1777 1801 1870 1867 2058 1777 1491 1717 1358 1129 909 729 737 950 986
5 1 0 1 1 0 0 0 0 0 0 0 0 0 0 0 0 0 0 0 0 0 0 8 363 1072 1206 1130 1758 1866 1829 2006 2067 1993 2030 1843 1849 1894 1867 1761 1331 1051 867
0 0 1 4 1 0 0 1 0 0 0 0 0 0 0 0 0 0 0 0 0 0 1 140 392 644 1301 1386 1392 1632 1724 1664 1794 1855 1914 1946 2045 1930 1905 1868 1877 1095 972
0 0 0 0 4 8 3 5 6 1 0 0 0 0 0 0 0 0 0 0 9 2 21 169 533 322 511 1063 1209 1395 1540 1874 2106 1844 1767 2048 1901 1693 1706 1760 1736 1650 1582
0 1 1 3 5 6 1 0 2 4 6 4 0 0 0 0 0 0 0 0 0 0 0 115 440 760 1306 1473 1370 1209 1460 1620 2011 2474 2298 2018 1911 2033 1651 1781 1738 1726 1604
0 0 0 2 1 4 4 6 0 0 1 5 8 3 0 0 0 0 0 0 0 0 19 1 3 119 769 713 754 926 1380 1694 1780 2142 2261 2173 1905 1750 1727 1784 1830 1764 1755
0 0 1 2 4 3 4 5 2 2 9 2 6 4 10 6 5 1 0 0 0 0 0 4 3 1 0 2 7 3 39 135 290 399 1213 1804 2031 1902 1748 1600 1597 1555 1559
0 2 3 2 2 4 4 3 3 2 3 5 7 5 4 2 0 1 1 1 3 3 3 5 5 5 5 7 8 7 8 6 5 5 5 47 265 540 739 922 1073 968 891
2 2 1 2 1 1 2 2 2 2 4 6 3 4 4 5 1 3 3 2 4 5 6 5 4 5 5 4 4 7 4 2 2 2 8 6 2 11 1 23 70 106 87
4 3 2 2 1 1 1 1 2 2 2 4 5 4 7 3 3 2 2 3 4 5 5 5 5 5 4 3 4 2 1 0 1 0 4 6 4 2 0 0 0 0 0

GFSGL_con_mlcape_087.txt.gz
CAPE
751 1014 954 1317 1230 1097 1137 1536 1217 809 491 449 345 482 872 1172 1227 1252 1122 971 1234 1215 803 1333 933 1416 954 1105 777 984 986 1334 1095 1155 1404 1224 864 727 1395 1504 1794 2212 1992
1205 1429 1595 1748 1807 1661 1401 1346 1546 814 687 702 240 0 417 1011 1449 1336 967 1119 913 1102 842 1192 661 985 990 1537 1316 822 1204 1222 1461 1157 964 989 1550 1775 1274 953 1260 2342 2107
664 1295 1300 1793 1819 1858 1751 1485 1366 1378 1060 1049 813 819 1042 1133 1058 1510 1261 1073 1342 1187 1077 1115 1366 950 929 1307 856 829 1225 1087 1303 1542 1330 1259 1336 990 789 1221 1536 1936 976
221 307 545 654 832 1542 2005 1912 1767 1687 1557 1311 1298 1214 1341 1367 1463 1697 1471 1116 985 1335 1530 1611 1698 1188 1180 1231 1232 974 878 897 909 983 926 927 891 1137 1266 1029 969 1048 947
18 53 12 38 368 933 1146 1861 1746 1730 1845 1627 1452 1499 1746 1705 1406 1278 1545 1651 1580 1393 1280 1429 1620 1780 2041 1699 1690 1418 1211 966 1127 1290 1385 1759 1763 1614 1098 1366 981 862 592
0 2 13 11 219 333 700 1078 1289 1279 1241 1760 1704 1736 1494 1522 1941 1660 1562 1361 1365 1631 1477 1348 1411 1449 1900 2008 1394 1382 1570 1221 913 1115 1149 1281 1270 1203 1124 516 425 77 4
0 0 0 2 26 120 157 294 468 647 1160 1240 1271 1440 1461 1717 1539 1110 827 848 1096 1168 1348 1636 1390 1464 1509 1793 1560 1054 989 816 820 802 447 183 147 144 199 172 198 262 333
0 0 0 0 0 0 2 20 85 148 395 790 991 1122 1314 1393 1374 1371 1264 739 790 972 1108 1502 1790 1701 1656 1570 1417 1564 1768 1480 1281 1067 974 940 661 640 484 435 498 649 768
0 0 0 0 0 0 0 0 0 0 6 117 363 675 931 1143 1240 1121 960 919 1072 1040 997 1001 955 1008 1292 1460 1660 1706 1701 1762 1842 1604 1583 1546 1429 1147 770 736 846 851 703
0 0 0 0 0 0 0 0 0 0 0 0 0 88 339 698 980 820 846 923 1054 1237 1390 1325 1126 968 790 660 616 743 732 748 1112 1369 1258 951 986 1167 1032 692 842 635 590
0 0 0 0 0 0 0 0 0 0 0 0 0 0 12 600 204 109 232 588 741 884 1127 1126 1297 741 438 354 162 342 621 593 651 664 1032 1271 1230 1129 1008 839 649 651 571
0 0 0 0 0 0 0 0 0 0 0 0 0 1 168 0 0 0 0 0 0 13 166 313 315 189 128 172 380 521 366 272 237 431 543 686 985 1133 1128 953 928 753 699
0 0 0 0 0 0 0 0 0 0 0 0 0 0 0 0 0 0 0 0 0 0 0 0 0 0 1 143 329 460 245 177 241 278 389 452 460 578 700 749 669 505 604
0 0 0 0 0 0 0 0 0 0 0 0 0 0 0 0 0 0 0 0 0 0 0 0 0 0 0 0 47 175 349 557 482 409 396 403 350 368 510 620 659 693 609
0 0 0 0 0 0 0 0 0 0 0 0 0 0 0 0 0 0 0 0 0 0 0 0 0 0 0 0 4 630 1126 1099 803 597 491 495 504 547 644 689 750 720 613
0 0 0 0 0 0 0 0 0 0 0 0 0 0 0 0 0 0 0 0 0 0 0 0 0 0 0 0 0 0 29 187 506 829 830 719 667 690 787 852 824 763 631
0 0 0 0 0 0 0 0 0 0 0 0 0 0 0 0 0 0 0 0 0 0 0 0 0 0 0 0 0 0 0 7 123 81 83 96 657 875 851 792 728 636 648
0 0 0 0 0 0 0 0 0 0 0 0 0 0 0 0 0 0 0 0 0 0 0 0 0 0 0 0 0 0 45 315 305 179 197 231 112 148 81 13 285 598 565
0 0 0 0 0 0 0 0 0 0 0 0 0 0 0 0 0 0 0 0 0 0 0 0 0 0 6 12 13 14 9 156 178 237 175 8 2 0 0 0 0 257 611
0 0 0 0 0 0 0 0 0 0 0 0 0 0 0 0 0 0 0 0 0 0 0 0 0 0 0 0 0 7 15 45 49 132 233 224 7 0 0 0 216 435 418
0 0 0 0 0 0 0 0 0 0 0 0 0 0 0 0 0 0 0 0 0 0 0 0 0 0 0 0 1 2 3 3 5 4 4 1 30 419 342 240 305 229 242
0 0 0 0 0 0 0 0 0 0 0 0 0 0 0 0 0 1 1 2 1 0 0 0 1 0 0 1 1 2 3 3 1 1 1 1 2 5 15 354 174 129 356
0 0 0 0 0 0 0 0 0 0 0 0 0 1 0 0 1 3 3 6 7 6 2 0 0 0 0 0 0 0 2 1 3 2 0 0 1 4 4 5 200 269 167
0 0 0 0 0 0 0 0 0 0 0 0 1 1 0 3 1 3 9 7 5 0 0 2 5 0 0 0 1 1 2 3 3 3 3 4 4 4 2 1 3 16 272
0 0 0 0 0 0 0 0 0 0 0 1 0 2 2 1 2 5 15 9 5 3 1 3 17 3 0 1 1 2 2 1 3 3 4 5 3 4 6 6 4 3 21
0 0 0 0 0 0 0 0 0 0 1 1 2 2 2 2 4 5 7 9 8 7 7 4 6 5 3 4 1 0 1 1 1 0 1 3 5 5 7 6 4 4 4

GFSGL_con_mlcape_090.txt.gz
CAPE
465 348 303 349 704 675 534 943 900 594 551 680 541 689 630 936 1265 1094 909 857 885 1046 886 845 816 1008 1006 967 1241 938 859 1023 956 1068 1369 1302 1307 1413 1365 925 1138 1559 1762
388 502 517 399 653 695 573 942 1315 945 637 439 372 287 487 745 990 1168 1100 1020 787 678 1139 910 710 680 652 815 1477 916 1011 1173 1098 1006 1166 1213 1087 1083 888 1057 1325 1637 1490
283 306 359 345 378 700 1050 1050 1224 1229 670 523 520 292 25 127 621 1266 1314 1029 916 1068 1106 792 879 1089 964 522 813 900 824 826 1004 816 722 962 859 807 1149 1119 1128 1016 850
100 87 129 358 465 626 838 1169 786 1101 1100 804 778 675 659 846 886 988 1145 1100 1093 972 1049 1195 1319 1320 1220 982 1094 1091 1107 1012 855 605 625 695 878 1262 1426 1375 1236 626 227
28 86 42 125 276 488 788 968 1387 1126 1099 1231 1204 1234 1215 1239 1218 1177 1274 1402 1388 1198 1205 1338 1445 1430 1456 1434 1542 1543 1365 1154 1077 999 550 719 648 665 731 952 781 355 194
51 20 40 35 111 145 257 362 613 847 1112 1204 1335 1296 1150 1332 1403 1265 1330 1251 1319 1475 1356 1318 1378 1256 1178 1158 1223 1644 1601 1335 1163 1233 1078 955 646 379 280 298 247 201 146
3 1 18 35 23 15 34 95 192 272 455 760 886 1056 1207 1297 1308 1163 1092 893 1076 1166 1149 1157 1138 1373 1468 1343 1263 1182 1281 1126 1189 1223 1085 885 926 842 720 678 494 421 459
1 0 0 0 0 0 0 1 39 22 98 235 480 665 758 1053 1148 1058 1010 825 751 713 799 984 1134 1254 1350 1460 1454 1375 1422 1321 1074 886 913 972 866 925 864 997 822 654 643
0 0 0 0 0 0 0 0 0 0 0 2 45 110 313 526 515 559 596 806 847 899 859 936 1015 1037 1060 965 902 1038 1123 1203 1459 1351 1178 1105 1149 1079 1007 881 1217 1102 980
0 0 0 0 0 0 0 0 0 0 0 0 0 6 2 193 82 145 291 573 712 810 950 1009 898 940 828 382 670 898 911 811 705 664 746 659 644 762 755 623 956 859 700
0 0 0 0 0 0 0 0 0 0 0 0 0 4 7 0 0 0 0 0 0 48 133 347 480 180 154 49 0 197 563 375 396 439 489 584 750 786 729 584 546 748 750
0 0 0 0 0 0 0 0 0 0 0 0 0 0 0 0 0 0 0 0 0 0 0 0 0 0 0 0 0 12 38 189 276 400 508 569 571 621 758 822 739 682 783
0 0 0 0 0 0 0 0 0 0 0 0 0 0 0 0 0 0 0 0 0 0 0 0 0 0 0 0 0 0 0 0 34 282 407 476 449 438 488 571 651 780 750
0 0 0 0 0 0 0 0 0 0 0 0 0 0 0 0 0 0 0 0 0 0 0 0 0 0 0 0 0 0 0 0 3 321 403 424 380 359 346 369 457 453 433
0 0 0 0 0 0 0 0 0 0 0 0 0 0 0 0 0 0 0 0 0 0 0 0 0 0 0 0 0 0 0 0 0 45 228 371 412 380 468 377 398 441 473
0 0 0 0 0 0 0 0 0 0 0 0 0 0 0 0 0 0 0 0 0 0 0 0 0 0 0 0 0 0 0 0 0 0 13 41 128 247 492 342 396 575 603
0 0 0 0 0 0 0 0 0 0 0 0 0 0 0 0 0 0 0 0 0 0 0 0 0 0 0 0 0 0 0 0 0 0 20 113 173 159 163 457 592 620 645
0 0 0 0 0 0 0 0 0 0 0 0 0 0 0 0 0 0 0 0 0 0 0 0 0 0 0 0 0 2 1 0 0 0 7 12 43 110 89 0 18 44 26
0 0 0 0 0 0 0 0 0 0 0 0 0 0 0 0 0 0 0 0 0 0 0 0 0 0 0 0 0 0 2 14 11 11 3 5 12 27 22 0 0 0 0
0 0 0 0 0 0 0 0 0 0 0 0 0 0 0 0 0 0 0 0 0 0 0 0 0 3 0 0 3 2 4 0 1 4 4 5 2 2 1 3 2 0 0
0 0 0 0 0 0 0 0 0 0 0 0 0 0 0 0 0 0 0 0 0 0 0 0 0 1 0 0 5 2 0 0 0 0 0 2 0 1 1 0 4 1 105
0 0 0 0 0 0 0 0 0 0 0 0 0 0 0 0 0 0 0 0 0 0 0 2 5 8 13 4 9 2 0 0 0 0 0 0 1 1 0 1 1 0 3
0 0 0 0 0 0 0 0 0 0 0 0 0 0 0 0 0 1 0 1 1 2 4 7 5 5 1 9 24 14 2 0 1 1 1 3 3 0 2 1 0 0 1
0 0 0 0 0 0 0 0 0 0 0 0 0 0 0 0 2 2 1 0 1 3 9 11 6 7 0 0 2 15 16 7 1 2 1 3 4 1 3 2 1 3 2
0 0 0 0 0 0 0 0 0 0 0 0 0 0 1 2 3 3 3 1 2 3 2 9 15 12 9 4 0 0 3 4 0 0 1 2 3 4 4 4 0 0 3
0 0 0 0 0 0 0 0 0 0 0 1 1 1 0 1 2 2 3 3 2 4 3 3 7 7 11 14 13 6 0 0 0 0 1 3 4 7 8 5 3 4 4

GFSGL_con_mlcape_093.txt.gz
CAPE
269 249 144 384 478 540 479 457 698 712 591 517 726 691 820 754 952 1131 897 851 852 868 898 932 888 708 890 824 1198 978 795 891 873 929 1083 1150 1056 888 835 923 1091 1171 1069
286 363 342 310 463 438 392 590 498 863 591 493 640 516 532 567 743 994 1131 1063 922 729 698 828 911 890 613 655 920 1059 777 847 734 514 506 517 598 668 857 959 1166 1050 663
121 234 371 453 558 511 377 550 616 811 757 708 502 333 270 344 498 752 900 788 961 915 874 913 935 806 929 1000 760 715 853 934 904 917 595 634 668 778 1001 1153 1237 979 667
52 67 160 186 215 342 491 623 623 848 814 825 609 396 328 291 46 213 643 906 941 960 962 952 870 949 1001 1050 1132 1083 1143 1159 971 883 811 739 657 743 670 419 94 247 152
56 38 35 62 115 158 193 261 414 706 941 870 733 721 720 745 829 928 1015 1066 1137 1057 1000 1005 994 1113 1050 979 995 927 1150 1149 1146 1178 961 913 913 803 724 635 590 487 380
54 53 69 42 11 14 22 63 148 229 325 578 806 970 914 1199 1316 1267 1225 1165 1253 1243 1137 1172 1100 1050 1147 1164 1020 947 1072 962 1189 1154 1014 983 965 849 731 779 776 719 628
0 5 5 3 8 8 1 0 5 16 51 148 327 521 718 818 916 930 1063 1089 1032 917 922 1016 1028 1022 1022 1058 1111 998 1033 885 966 1246 1084 948 953 886 744 685 668 619 696
1 3 3 3 0 1 0 0 0 2 0 6 78 118 240 377 395 534 601 557 721 699 663 700 758 836 941 1025 1044 999 947 950 1093 943 901 954 939 954 814 855 868 691 540
0 0 0 0 0 0 0 0 0 0 0 0 0 23 63 118 82 192 480 540 628 647 554 616 695 763 759 359 729 898 887 895 910 814 751 736 706 597 538 494 600 699 794
0 0 0 0 0 0 0 0 0 0 0 0 0 77 45 0 0 0 0 0 0 0 0 28 13 92 6 0 68 273 578 592 488 385 401 482 279 309 290 216 556 661 663
0 0 0 0 0 0 0 0 0 0 0 6 0 0 0 0 0 0 0 0 0 0 0 0 0 0 0 0 0 0 1 0 15 128 332 405 516 581 613 377 247 412 579
0 0 0 0 0 0 0 0 0 0 0 0 0 0 0 0 0 0 0 0 0 0 0 0 0 0 0 0 0 0 0 0 0 0 4 142 252 349 409 476 479 342 368
0 0 0 0 0 0 0 0 0 0 0 0 0 0 0 0 0 0 0 0 0 0 0 0 0 0 0 0 0 0 0 0 0 0 0 0 76 273 205 211 232 301 336
0 0 0 0 0 0 0 0 0 0 0 0 0 0 0 0 0 0 0 0 0 0 0 0 0 0 0 0 0 0 0 0 0 0 0 0 27 128 231 178 246 244 235
0 0 0 0 0 0 0 0 0 0 0 0 0 0 0 0 0 0 0 0 0 0 0 0 0 0 0 0 0 0 0 0 0 0 0 0 0 50 41 122 151 169 296
0 0 0 0 0 0 0 0 0 0 0 0 0 0 0 0 0 0 0 0 0 0 0 0 0 0 0 0 0 0 0 0 0 0 0 0 1 31 106 166 217 113 84
0 0 0 0 0 0 0 0 0 0 0 0 0 0 0 0 0 0 0 0 0 0 0 0 0 0 0 0 0 0 0 0 0 0 0 0 0 5 0 39 101 206 140
0 0 0 0 0 0 0 0 0 0 0 0 0 0 0 0 0 0 0 0 0 0 0 0 0 0 0 0 0 0 0 3 1 0 1 3 4 4 4 10 20 10 2
0 0 0 0 0 0 0 0 0 0 0 0 0 0 0 0 0 0 0 0 0 0 0 0 0 0 0 2 0 0 0 0 1 1 0 0 0 5 6 4 1 0 1
0 0 0 0 0 0 0 0 0 0 0 0 0 0 0 0 0 0 0 0 0 0 0 0 0 0 1 1 2 1 1 6 3 4 5 2 0 0 2 3 1 0 1
0 0 0 0 0 0 0 0 0 0 0 0 0 0 0 0 0 0 0 0 0 1 1 1 1 0 0 2 1 0 1 2 8 7 5 4 3 1 0 2 3 3 2
0 0 0 0 0 0 0 0 0 0 0 0 0 0 0 0 0 0 0 0 1 1 0 1 3 4 4 5 1 4 6 9 18 11 3 3 0 1 0 0 0 0 2
0 0 0 0 0 0 0 0 0 0 0 0 0 0 0 0 0 0 0 0 1 0 2 2 1 2 3 5 8 1 3 4 3 11 15 13 1 1 0 0 0 0 2
0 0 0 0 0 0 0 0 0 0 0 0 0 0 0 1 0 1 0 0 1 3 2 3 3 4 4 2 5 8 11 7 2 1 3 12 13 4 0 0 0 0 0
0 0 0 0 0 0 0 0 0 0 0 0 0 0 0 0 0 0 0 0 0 1 2 3 2 3 4 5 6 6 3 0 0 2 2 2 4 5 3 0 0 0 0
0 0 0 0 0 0 0 0 0 0 0 0 0 0 0 0 0 0 0 1 0 1 4 3 4 3 5 4 4 3 1 0 1 1 2 2 2 1 1 2 1 1 0

GFSGL_con_mlcape_096.txt.gz
CAPE
122 56 86 207 388 402 362 350 471 500 478 342 327 326 459 589 794 903 807 764 789 825 837 867 866 821 713 765 895 1112 774 704 591 752 791 849 625 589 622 1008 1062 1200 1172
183 150 154 135 201 391 356 320 464 504 366 282 339 509 543 555 603 730 851 877 623 680 713 702 622 820 797 636 679 918 938 842 774 517 546 635 547 604 839 1016 1266 1202 853
91 180 281 314 329 313 369 401 410 509 478 380 291 411 320 249 334 496 623 733 743 793 669 788 765 722 819 842 923 887 727 856 896 988 1012 811 827 769 791 713 619 579 699
39 71 80 167 174 207 272 332 382 436 563 570 475 559 501 335 220 159 248 545 687 814 788 766 842 815 704 811 798 874 865 924 1003 1032 1023 980 793 895 794 765 880 909 864
45 6 19 19 4 11 20 91 135 247 405 652 736 619 514 360 388 479 437 651 890 946 1035 1078 1016 998 991 997 1055 1028 961 952 991 957 992 988 909 949 1087 956 818 686 653
44 12 4 18 9 0 12 0 0 0 21 112 298 498 662 694 809 820 938 1049 1125 1104 1196 1271 1207 1153 1143 987 922 856 975 1106 1143 1049 962 947 1047 879 787 780 771 796 622
0 4 7 4 20 3 4 0 0 0 0 0 2 32 138 272 180 356 542 779 1018 1012 956 899 868 929 885 912 867 876 837 775 808 1159 1151 1156 1100 1067 962 906 860 679 644
0 0 1 3 2 2 0 0 0 0 0 0 0 5 62 46 20 120 188 327 451 410 399 465 519 561 166 279 588 866 941 957 889 611 613 758 804 785 697 683 608 457 430
0 0 0 0 0 0 0 0 0 0 0 0 0 62 0 0 0 0 24 107 82 63 67 37 32 5 0 0 65 315 412 527 471 395 265 258 248 191 164 268 558 560 683
0 0 0 0 0 0 0 0 0 0 0 0 2 0 0 0 0 0 0 0 0 0 0 0 0 0 0 0 0 0 0 6 18 20 71 187 257 440 326 144 454 630 708
0 0 0 0 0 0 0 0 0 0 0 0 0 0 0 0 0 0 0 0 0 0 0 0 0 0 0 0 0 0 0 0 0 0 0 0 0 85 199 263 145 355 544
0 0 0 0 0 0 0 0 0 0 0 0 0 0 0 0 0 0 0 0 0 0 0 0 0 0 0 0 0 0 0 0 0 0 0 0 0 0 0 176 331 189 218
0 0 0 0 0 0 0 0 0 0 0 0 0 0 0 0 0 0 0 0 0 0 0 0 0 0 0 0 0 0 0 0 0 0 0 0 0 0 17 34 108 93 184
0 0 0 0 0 0 0 0 0 0 0 0 0 0 0 0 0 0 0 0 0 0 0 0 0 0 0 0 0 0 0 0 0 2 2 4 5 4 2 74 119 145 153
0 0 0 0 0 0 0 0 0 0 0 0 0 0 0 0 0 0 0 0 0 0 0 0 0 0 0 0 0 0 0 0 0 0 0 0 1 1 1 6 73 26 68
0 0 0 0 0 0 0 0 0 0 0 0 0 0 0 0 0 0 0 0 0 0 0 0 0 0 0 0 0 0 0 0 0 3 1 2 4 3 3 2 3 5 8
0 0 0 0 0 0 0 0 0 0 0 0 0 0 0 0 0 0 0 0 0 0 0 0 0 0 0 0 2 4 3 2 1 0 4 1 2 0 0 3 4 3 1
0 0 0 0 0 0 0 0 0 0 0 0 0 0 0 0 0 0 0 0 0 0 0 0 0 0 0 0 0 0 0 0 0 0 0 0 3 2 2 1 3 2 1
0 0 0 0 0 0 0 0 0 0 0 0 0 0 0 0 0 0 0 0 0 0 0 0 0 0 0 0 0 1 2 0 0 6 11 5 1 2 2 2 2 1 0
0 0 0 0 0 0 0 0 0 0 0 0 0 0 0 0 0 0 0 0 0 0 0 0 1 1 0 0 1 0 1 1 2 2 0 0 5 5 2 1 1 0 0
0 0 0 0 0 0 0 0 0 0 0 0 0 0 0 0 0 0 0 0 0 0 0 1 1 1 0 0 3 5 3 1 1 2 0 0 13 10 5 5 4 2 3
0 0 0 0 0 0 0 0 0 0 0 0 0 0 0 0 0 0 0 0 0 0 1 1 1 1 1 2 4 4 5 6 8 7 8 12 9 7 5 6 4 1 3
0 0 0 0 0 0 0 0 0 0 0 0 0 0 0 0 0 0 0 1 0 0 1 2 2 1 1 0 4 6 3 5 6 8 7 5 5 3 3 2 6 6 3
0 0 0 0 0 0 0 0 0 0 0 0 0 0 0 0 0 0 0 0 1 1 1 1 1 2 0 1 3 4 7 5 6 6 5 4 3 3 2 6 19 7 6
0 0 0 0 0 0 0 0 0 0 0 0 0 0 0 0 0 0 0 0 1 1 1 0 1 3 3 3 2 2 2 0 0 2 3 3 3 1 1 3 4 6 5
0 0 0 0 0 0 0 0 0 0 0 0 0 0 0 0 0 0 0 1 0 1 1 1 2 2 1 2 2 0 0 0 1 0 1 3 5 5 4 3 2 3 4

GFSGL_con_mlcape_099.txt.gz
CAPE
156 188 279 391 647 718 648 664 812 791 832 900 803 634 674 811 1039 1303 1167 1199 845 1134 1149 1418 1527 1597 1391 1292 1454 1718 1609 1465 1037 764 1401 1241 1457 1539 1302 1560 1366 1659 1168
307 244 257 199 351 677 771 567 865 624 697 769 754 855 1011 964 1224 1342 1237 1267 972 754 736 912 880 1287 1497 1454 1247 1403 1423 1656 1305 1276 1431 1510 1700 1896 1888 2004 1437 1361 1688
212 317 156 161 318 526 726 909 894 566 487 980 806 718 846 755 654 868 806 927 967 744 807 925 879 920 826 1287 1266 1001 1311 1502 1661 1636 1529 1703 1807 1748 1666 1707 1977 1953 1418
79 135 182 215 329 629 691 619 818 846 624 1014 997 909 1006 750 644 639 678 953 912 889 689 901 796 974 912 874 1025 1021 1069 978 1175 921 1155 1309 1474 1609 1754 1648 1347 1050 959
4 0 37 141 209 320 354 365 398 642 798 1021 1070 1130 1100 928 687 702 797 787 740 1259 1229 1087 1191 1093 1019 912 1078 886 948 853 901 775 934 1070 1063 1031 1219 1254 1022 858 914
46 48 41 26 60 116 159 172 190 246 334 403 453 533 584 832 177 344 577 1259 1491 1538 1559 1329 1568 1123 1154 759 645 560 717 996 1125 709 961 1144 1693 1770 1344 1302 1157 1024 869
83 67 18 4 0 3 44 66 48 44 68 80 119 217 124 0 0 84 254 903 918 1223 1311 1158 1076 1049 499 701 1118 908 835 617 582 1040 1323 1552 1521 1550 1615 1551 1302 1378 1253
0 0 2 2 0 0 11 25 22 15 6 7 132 0 0 0 0 42 217 648 859 612 340 247 189 1 0 0 191 856 1198 1319 1499 1316 1323 1373 1521 1510 1518 1428 1371 1070 1143
0 0 0 2 1 1 1 0 0 0 0 40 0 0 0 0 0 0 1 1 5 1 0 0 0 0 0 0 0 0 26 276 266 87 13 12 25 27 66 408 938 1103 1082
0 0 0 0 0 0 0 0 0 0 3 3 1 0 0 0 0 0 0 0 0 0 0 0 0 0 0 0 0 0 0 0 0 0 0 0 0 65 125 246 650 984 1042
0 0 0 0 0 0 0 0 0 0 0 0 0 0 0 0 0 0 0 0 0 0 0 0 0 0 0 0 0 0 0 0 0 0 0 0 0 0 0 25 419 915 869
0 0 0 0 0 0 0 0 0 0 0 0 0 0 0 0 0 0 0 0 0 0 0 0 0 0 0 0 0 0 0 0 0 0 0 0 0 0 1 17 53 117 479
0 0 0 0 0 0 0 0 0 0 0 0 0 0 0 0 0 0 0 0 0 0 0 0 0 0 0 0 0 0 0 0 0 0 0 0 5 7 3 7 39 109 226
0 0 0 0 0 0 0 0 0 0 0 0 0 0 0 0 0 0 0 0 0 0 0 0 0 0 0 0 0 0 0 0 0 0 0 1 1 3 13 9 3 0 82
0 0 0 0 0 0 0 0 0 0 0 0 0 0 0 0 0 0 0 0 0 0 0 0 0 0 0 0 0 0 0 0 0 4 1 2 0 4 2 0 0 0 0
0 0 0 0 0 0 0 0 0 0 0 0 0 0 0 0 0 0 0 0 0 0 0 0 0 0 0 0 0 0 0 0 0 0 0 0 0 0 3 0 0 2 2
0 0 0 0 0 0 0 0 0 0 0 0 0 0 0 0 0 0 0 0 0 0 0 0 0 0 0 0 0 0 0 0 0 0 0 0 0 0 0 0 0 0 0
0 0 0 0 0 0 0 0 0 0 0 0 0 0 0 0 0 0 0 0 0 0 0 0 0 0 0 0 0 0 0 0 0 0 0 0 0 0 0 0 3 1 4
0 0 0 0 0 0 0 0 0 0 0 0 0 0 0 0 0 0 0 0 0 0 0 0 0 0 0 0 0 0 0 0 0 0 0 0 0 0 0 0 0 0 0
0 0 0 0 0 0 0 0 0 0 0 0 0 0 0 0 0 0 0 0 0 0 0 0 0 0 0 0 0 0 0 0 0 0 0 0 0 0 0 0 1 4 3
0 0 0 0 0 0 0 0 0 0 0 0 0 0 0 0 0 0 0 0 0 0 0 0 0 0 0 0 0 0 0 0 0 0 0 0 0 0 0 0 0 0 3
0 0 0 0 0 0 0 0 0 0 0 0 0 0 0 0 0 0 0 0 0 0 0 0 0 0 0 0 0 1 1 1 1 2 5 5 4 2 1 1 0 1 4
0 0 0 0 0 0 0 0 0 0 0 0 0 0 0 0 0 0 0 0 0 0 0 0 0 0 0 2 2 4 5 5 7 6 3 4 5 6 5 4 3 5 2
0 0 0 0 0 0 0 0 0 0 0 0 0 0 0 0 0 0 0 0 0 0 0 1 2 2 2 2 3 1 0 2 4 7 7 3 3 3 3 3 3 3 3
0 0 0 0 0 0 0 0 0 0 0 0 0 0 0 0 0 0 0 0 0 0 0 0 1 2 3 4 1 1 0 0 0 0 1 5 4 4 4 2 2 3 3
0 0 0 0 0 0 0 0 0 0 0 0 0 0 0 0 0 0 0 0 0 0 0 0 1 2 4 3 4 1 0 0 0 0 0 3 4 4 4 3 4 4 2

GFSGL_con_mlcape_102.txt.gz
CAPE
514 375 402 542 417 568 526 396 748 561 787 1228 1283 1586 1323 1076 1231 1602 1493 1230 1422 1089 1216 1395 1577 2026 1049 772 722 781 788 796 699 330 491 512 1523 1659 1692 1846 1100 646 553
541 584 393 257 455 372 603 466 775 636 987 924 1019 1176 1172 925 1055 1472 1228 865 1139 910 876 980 1204 1024 1710 1467 1062 1058 903 1149 927 728 859 867 914 1313 1494 1927 1506 870 948
713 607 599 246 265 400 529 602 761 586 711 857 1092 1147 783 1183 782 1000 1115 1199 1104 969 809 910 883 955 1113 899 1366 1137 729 1066 1189 1149 804 615 808 1006 992 1009 1119 1055 621
490 619 339 347 386 420 603 833 773 1020 569 583 774 1181 955 836 991 1012 1078 1165 1096 919 1103 932 1015 1003 1092 1224 1071 1237 1096 1029 845 964 694 540 562 687 892 601 382 375 410
88 95 327 632 696 794 726 945 969 981 651 931 888 1235 1274 1074 737 1443 1471 1401 1431 1234 1270 1141 1034 1138 855 787 988 1134 1165 997 833 743 596 539 466 1259 731 631 410 376 476
6 7 31 42 191 483 729 914 967 1130 1307 1364 1448 1417 1297 1000 63 201 469 1336 1553 1259 1212 1409 1144 1099 1282 1166 980 792 783 999 1264 1129 885 622 917 986 707 606 814 782 862
13 3 6 44 43 135 221 416 576 676 804 823 873 884 185 25 0 32 156 1019 1439 1130 1336 1454 1303 480 477 521 687 712 933 905 817 1329 1286 1348 1540 1393 1499 1799 1423 1563 1407
95 43 49 23 4 1 21 42 148 215 315 436 256 47 0 0 0 95 337 1179 788 393 299 204 111 0 0 0 170 598 1031 1216 1174 1376 1511 1466 1489 1173 1011 1066 1115 1394 1511
0 2 4 1 0 0 0 14 44 106 199 281 45 0 0 0 0 0 227 198 138 19 0 0 0 0 0 0 0 0 3 40 16 0 0 0 0 0 0 205 610 905 1211
0 0 0 0 10 13 17 0 0 70 45 0 0 0 0 0 0 0 0 10 0 0 0 0 0 0 0 0 0 0 0 0 0 0 0 0 0 0 0 113 833 781 852
0 0 0 0 0 1 0 3 3 0 0 0 0 0 0 0 0 0 0 0 0 0 0 0 0 0 0 0 0 0 0 0 0 0 0 0 0 1 9 22 59 109 89
0 0 0 0 0 0 3 5 1 0 0 0 0 0 0 0 0 0 0 0 0 0 0 0 0 0 0 0 0 0 0 0 0 0 0 0 0 0 0 0 9 15 123
0 0 0 0 0 0 0 0 0 0 0 0 0 0 0 0 0 0 0 0 0 0 0 0 0 0 0 0 0 0 0 0 0 0 0 0 0 0 0 1 0 0 0
0 0 0 0 0 0 0 0 0 0 0 0 0 0 0 0 0 0 0 0 0 0 0 0 0 0 0 0 0 0 0 0 0 0 0 0 0 0 0 0 0 0 0
0 0 0 0 0 0 0 0 0 0 0 0 0 0 0 0 0 0 0 0 0 0 0 0 0 0 0 0 0 0 0 0 0 0 0 0 0 0 0 0 0 0 0
0 0 0 0 0 0 0 0 0 0 0 0 0 0 0 0 0 0 0 0 0 0 0 0 0 0 0 0 0 0 0 0 0 0 0 0 0 0 0 0 0 0 0
0 0 0 0 0 0 0 0 0 0 0 0 0 0 0 0 0 0 0 0 0 0 0 0 0 0 0 0 0 0 0 0 0 0 0 0 0 0 0 0 0 0 0
0 0 0 0 0 0 0 0 0 0 0 0 0 0 0 0 0 0 0 0 0 0 0 0 0 0 0 0 0 0 0 0 0 0 0 0 0 0 0 0 0 0 0
0 0 0 0 0 0 0 0 0 0 0 0 0 0 0 0 0 0 0 0 0 0 0 0 0 0 0 0 0 0 0 0 0 0 0 0 0 0 0 0 0 0 0
0 0 0 0 0 0 0 0 0 0 0 0 0 0 0 0 0 0 0 0 0 0 0 0 0 0 0 0 0 0 0 0 0 0 0 0 0 0 0 0 0 0 0
0 0 0 0 0 0 0 0 0 0 0 0 0 0 0 0 0 0 0 0 0 0 0 0 0 0 0 0 0 0 0 0 0 0 0 0 0 0 0 0 0 0 0
0 0 0 0 0 0 0 0 0 0 0 0 0 0 0 0 0 0 0 0 0 0 0 0 0 0 0 0 0 0 0 0 0 0 0 0 0 0 0 0 0 0 0
0 0 0 0 0 0 0 0 0 0 0 0 0 0 0 0 0 0 0 0 0 0 0 0 0 0 0 0 0 0 0 0 1 2 3 4 5 5 4 2 1 1 3
0 0 0 0 0 0 0 0 0 0 0 0 0 0 0 0 0 0 0 0 0 0 0 0 0 0 0 0 0 0 0 1 2 4 7 5 3 3 3 4 3 3 4
0 0 0 0 0 0 0 0 0 0 0 0 0 0 0 0 0 0 0 0 0 0 0 0 0 0 0 0 0 1 1 0 0 0 0 6 3 1 0 1 4 1 2
0 0 0 0 0 0 0 0 0 1 1 2 0 0 0 0 0 0 0 0 0 0 0 0 0 0 0 0 0 0 0 0 0 0 0 1 1 2 1 2 1 1 2

GFSGL_con_mlcape_105.txt.gz
CAPE
591 451 393 316 291 368 261 394 596 666 791 1104 1320 1319 1166 1513 1483 1445 1735 1294 1523 1248 1160 1244 962 1221 1221 907 1000 717 385 389 522 624 548 421 919 1490 1324 1601 1103 1404 683
657 688 589 585 396 281 296 373 734 899 1045 1084 1434 1252 971 1258 1329 1519 1732 901 982 1078 1044 1071 1112 788 1422 1567 1190 1161 665 819 555 744 643 1008 683 1185 1083 1627 924 848 698
979 866 949 573 444 368 291 339 470 874 892 1041 1029 1014 1130 1206 1064 1354 1518 1056 1049 854 792 938 1088 1104 1162 1271 1515 1138 709 1215 1158 1020 539 408 575 696 1048 947 1210 1231 505
241 743 867 943 517 569 598 355 533 894 858 818 968 1037 1160 1102 1237 1037 1211 1314 1296 1063 1070 1088 999 996 1193 1362 1322 1415 1289 1089 686 913 752 657 592 1293 1407 490 429 278 455
42 230 315 701 915 790 835 932 486 533 626 711 761 1040 962 952 565 913 1087 1326 1519 1223 969 1130 916 941 898 849 808 1094 1583 1133 914 892 666 464 570 1282 590 593 597 469 736
96 149 334 489 879 931 831 938 879 788 669 735 818 1025 1038 742 0 130 377 1344 1317 1546 1431 1083 825 1185 1284 1132 1036 799 897 1239 1512 1277 1012 626 1065 1107 1162 1276 1612 1185 1184
160 111 106 175 91 135 435 675 742 759 901 1040 958 1069 940 282 0 0 170 629 1193 1555 1383 1455 1427 599 841 975 830 671 635 622 665 1042 1467 1384 1328 1531 1598 1639 1379 1441 1407
360 135 39 7 5 58 69 125 262 395 599 585 526 216 43 0 0 0 39 1013 1385 1349 1271 1058 882 387 0 0 14 510 686 864 988 1128 1375 790 480 280 109 326 602 891 1317
340 278 204 148 58 15 11 25 47 125 218 177 116 58 0 0 0 0 0 893 464 272 53 19 19 0 0 0 1 8 10 27 0 0 0 0 0 0 0 0 188 553 746
28 29 16 9 0 0 0 0 0 8 17 27 0 0 0 0 0 0 0 253 303 46 0 0 0 0 0 0 0 0 0 0 0 0 0 0 0 6 0 2 263 259 242
0 0 0 0 0 1 1 12 2 1 0 0 0 0 0 0 0 0 0 0 0 9 1 0 0 0 0 0 0 0 0 0 0 0 0 0 1 0 0 0 11 0 5
0 0 0 0 0 0 8 1 1 2 0 0 0 0 0 0 0 0 0 0 0 0 0 0 0 0 0 0 0 0 0 0 0 0 0 0 0 0 0 0 7 0 0
0 0 0 0 1 11 6 4 1 0 0 0 0 0 0 0 0 0 0 0 0 0 0 0 0 0 0 0 0 0 0 0 0 0 0 0 0 0 0 0 0 0 0
0 0 0 0 0 4 8 0 1 7 7 6 2 0 0 0 0 0 0 0 0 0 0 0 0 0 0 0 0 0 0 0 0 0 0 0 0 0 0 0 0 0 0
0 0 0 0 0 0 0 0 0 0 0 0 0 0 0 0 0 0 0 0 0 0 0 0 0 0 0 0 0 0 0 0 0 0 0 0 0 0 0 0 0 0 0
0 0 0 0 0 0 0 0 0 0 0 0 0 0 0 0 0 0 0 0 0 0 0 0 0 0 0 0 0 0 0 0 0 0 0 0 0 0 0 0 0 0 0
0 0 0 0 0 0 0 0 0 0 0 0 0 0 0 0 0 0 0 0 0 0 0 0 0 0 0 0 0 0 0 0 0 0 0 0 0 0 0 0 0 0 0
0 0 0 0 0 0 0 0 0 0 0 0 0 0 0 0 0 0 0 0 0 0 0 0 0 0 0 0 0 0 0 0 0 0 0 0 0 0 0 0 0 0 0
0 0 0 0 0 0 0 0 0 0 0 0 0 0 0 0 0 0 0 0 0 0 0 0 0 0 0 0 0 0 0 0 0 0 0 0 0 0 0 0 0 0 0
0 0 0 0 0 0 0 0 0 0 0 0 0 0 0 0 0 0 0 0 0 0 0 0 0 0 0 0 0 0 0 0 0 0 0 0 0 0 0 0 0 0 0
0 0 0 0 0 0 0 0 0 0 0 0 0 0 0 0 0 0 0 0 0 0 0 0 0 0 0 0 0 0 0 0 0 0 0 0 0 0 0 0 0 0 0
0 0 0 0 0 0 0 0 0 0 0 0 0 0 0 0 0 0 0 0 0 0 0 0 0 0 0 0 0 0 0 0 0 0 0 0 0 0 0 0 0 0 0
0 0 0 0 0 0 0 0 0 0 0 0 0 0 0 0 0 0 0 0 0 0 0 0 0 0 0 0 0 0 0 0 0 0 0 0 0 0 0 0 1 1 0
0 0 0 0 0 0 0 0 0 0 0 0 0 0 0 0 0 0 0 0 0 0 0 0 0 0 0 0 0 0 0 0 0 0 0 0 2 3 2 2 2 0 2
0 0 0 0 0 0 0 0 0 0 0 0 0 0 0 0 0 0 0 0 0 0 0 0 0 0 0 0 0 0 0 0 0 0 0 1 2 2 2 2 1 1 1
8 0 0 0 0 0 0 0 0 0 1 0 0 0 0 0 0 0 0 0 0 0 1 0 0 0 0 0 0 0 0 0 0 0 0 0 1 2 2 2 3 3 3

GFSGL_con_mlcape_108.txt.gz
CAPE
783 865 943 537 689 479 575 484 125 82 604 152 716 1355 1230 1197 1277 1451 1197 881 1141 1087 1209 1110 1027 964 1181 1042 875 887 491 588 325 601 373 683 939 963 1453 1274 1409 1022 1003
272 619 626 366 296 421 308 498 357 902 1099 899 957 1228 1083 1194 1247 1371 1204 1115 940 782 914 1014 1001 1115 1135 1506 1337 1401 1051 1178 1143 582 1232 479 305 785 1814 1109 1371 830 955
700 693 576 458 664 282 211 114 396 773 907 971 1098 823 1013 1074 1082 1459 1292 1084 1103 1015 898 794 850 1046 930 826 1120 1254 1166 1223 1139 1105 944 752 540 878 832 1055 318 1336 1410
196 450 141 504 496 397 430 556 561 690 733 866 807 759 944 819 1178 1141 1332 1118 1109 1248 1068 847 621 833 972 930 1011 919 1100 987 795 973 911 905 791 1192 810 1296 1171 1659 1198
533 574 460 487 648 646 614 561 432 805 741 608 794 769 968 502 110 269 1081 1083 894 933 1464 1414 1126 902 565 549 694 609 881 1209 1231 1116 968 879 997 1059 1288 1574 1542 1434 1431
136 81 43 80 144 369 415 584 781 756 563 585 583 659 684 22 0 0 96 917 883 1045 550 684 992 917 967 883 855 712 628 563 695 870 1109 1170 1250 1424 1303 1363 1227 1362 1097
291 123 146 165 73 170 215 468 636 405 384 579 737 890 371 0 0 0 0 263 623 967 1237 1123 914 202 19 103 294 412 722 730 549 721 945 990 1089 1045 660 361 326 336 706
344 312 205 151 53 21 84 105 133 177 235 390 228 71 14 0 0 0 0 135 497 890 810 1001 216 0 0 0 14 287 264 351 213 126 26 6 0 0 0 0 15 313 842
379 214 159 78 0 0 8 11 41 82 90 29 1 0 0 0 0 0 0 1169 513 44 0 0 0 0 0 0 0 0 0 0 0 0 0 0 0 0 0 0 129 236 295
284 223 186 139 25 2 0 0 0 32 7 0 0 0 0 0 0 0 0 269 196 0 0 0 0 0 0 0 0 0 0 0 0 0 0 0 48 4 0 0 76 6 1
0 19 35 25 4 0 0 8 0 0 0 0 0 0 0 0 0 0 0 0 0 0 0 0 0 0 0 0 0 0 0 0 0 0 0 0 0 0 0 0 0 0 0
0 0 0 0 0 0 0 0 0 0 0 0 0 0 0 0 0 0 0 0 0 0 0 0 0 0 0 0 0 0 0 0 0 0 0 0 0 0 0 0 0 0 0
0 0 0 2 0 0 0 0 0 0 0 0 0 0 0 0 0 0 0 0 0 0 0 0 0 0 0 0 0 0 0 0 0 0 0 0 0 0 0 0 0 0 0
0 0 0 0 0 0 0 0 0 0 0 0 0 0 0 0 0 0 0 0 0 0 0 0 0 0 0 0 0 0 0 0 0 0 0 0 0 0 0 0 0 0 0
0 0 0 0 0 0 0 0 0 0 0 0 0 0 0 0 0 0 0 0 0 0 0 0 0 0 0 0 0 0 0 0 0 0 0 0 0 0 0 0 0 0 0
0 0 0 0 0 0 0 0 0 0 0 0 0 0 0 0 0 0 0 0 0 0 0 0 0 0 0 0 0 0 0 0 0 0 0 0 0 0 0 0 0 0 0
0 0 0 0 0 0 0 0 0 0 0 0 0 0 0 0 0 0 0 0 0 0 0 0 0 0 0 0 0 0 0 0 0 0 0 0 0 0 0 0 0 0 0
0 0 0 0 0 0 0 0 0 0 0 0 0 0 0 0 0 0 0 0 0 0 0 0 0 0 0 0 0 0 0 0 0 0 0 0 0 0 0 0 0 0 0
0 0 0 0 0 0 0 0 0 0 0 0 0 0 0 0 0 0 0 0 0 0 0 0 0 0 0 0 0 0 0 0 0 0 0 0 0 0 0 0 0 0 0
0 0 0 0 0 0 0 0 0 0 0 0 0 0 0 0 0 0 0 0 0 0 0 0 0 0 0 0 0 0 0 0 0 0 0 0 0 0 0 0 0 0 0
0 0 0 0 0 0 0 0 0 0 0 0 0 0 0 0 0 0 0 0 0 0 0 0 0 0 0 0 0 0 0 0 0 0 0 0 0 0 0 0 0 0 0
0 0 0 0 0 0 0 0 0 0 0 0 0 0 0 0 0 0 0 0 0 0 0 0 0 0 0 0 0 0 0 0 0 0 0 0 0 0 0 0 0 0 0
0 0 0 0 0 0 0 0 0 0 0 0 0 0 0 0 0 0 0 0 0 0 0 0 0 0 0 0 0 0 0 0 0 0 0 0 0 0 0 0 0 0 0
0 0 0 0 0 0 0 0 0 0 0 0 0 0 0 0 0 0 0 0 0 0 0 0 0 0 0 0 0 0 0 0 0 0 0 0 0 0 0 0 0 0 0
0 0 2 0 0 0 0 0 0 0 0 0 0 0 0 0 0 0 0 0 0 0 0 0 0 0 0 0 0 0 0 0 0 0 0 0 0 0 0 0 1 0 0
17 9 1 0 5 1 0 0 0 0 2 2 0 0 3 0 0 0 0 0 0 0 0 0 0 0 0 0 0 0 0 0 0 0 0 0 0 0 0 0 0 1 1

GFSGL_con_mlcape_111.txt.gz
CAPE
902 575 527 682 562 375 227 155 49 0 63 142 76 468 950 728 866 976 902 533 851 657 895 608 700 990 993 913 1202 1215 899 1072 543 532 623 618 515 633 987 1440 1301 1491 1013
495 731 616 394 420 539 509 266 2 0 157 82 9 656 770 792 1010 707 734 1031 729 583 630 726 697 705 865 673 872 919 718 929 636 428 525 632 749 575 187 566 1372 1622 1195
442 903 599 557 451 413 305 436 305 305 615 666 756 615 774 912 837 836 1108 684 663 959 748 751 652 620 769 473 594 830 575 717 512 632 575 752 794 620 450 774 964 1114 1197
677 553 684 521 564 539 491 196 552 705 506 422 805 744 493 592 356 849 962 906 652 790 973 962 621 469 597 626 638 772 680 482 724 696 554 475 804 1227 999 797 623 950 793
345 481 413 273 510 660 533 418 663 471 657 508 666 680 182 60 17 69 294 858 768 468 448 514 732 697 459 425 435 427 355 256 262 294 332 451 553 624 807 863 436 507 173
256 262 298 248 283 364 310 379 355 345 352 354 447 427 0 0 0 0 20 340 687 573 494 531 145 101 154 296 314 421 385 545 547 581 620 620 694 762 280 0 0 24 262
184 169 166 125 96 141 121 197 256 125 147 117 172 25 0 0 0 0 0 65 349 552 497 401 57 0 0 0 10 221 201 121 174 298 214 20 0 0 0 0 2 149 265
228 264 250 154 104 76 79 73 110 113 96 100 25 0 0 0 0 0 0 34 50 17 1 0 0 0 0 0 0 0 0 0 0 0 0 0 0 0 0 0 0 24 36
336 344 267 150 62 18 0 0 49 38 4 0 0 0 0 0 0 0 43 79 17 0 0 0 0 0 0 0 0 0 0 0 0 0 0 0 0 0 0 0 0 0 0
352 281 230 110 24 0 0 0 0 0 0 0 0 0 0 0 0 0 6 74 0 0 0 0 0 0 0 0 0 0 0 0 0 0 0 0 0 0 0 0 0 0 0
211 295 236 117 32 15 1 0 0 0 0 0 0 0 0 0 0 0 0 0 0 0 0 0 0 0 0 0 0 0 0 0 0 0 0 0 0 0 0 0 0 0 0
1 2 2 7 0 0 1 0 0 0 0 0 0 0 0 0 0 0 0 0 0 0 0 0 0 0 0 0 0 0 0 0 0 0 0 0 0 0 0 0 0 0 0
0 0 0 0 0 0 0 0 0 0 0 0 0 0 0 0 0 0 0 0 0 0 0 0 0 0 0 0 0 0 0 0 0 0 0 0 0 0 0 0 0 0 0
0 0 0 0 0 0 0 0 0 0 0 0 0 0 0 0 0 0 0 0 0 0 0 0 0 0 0 0 0 0 0 0 0 0 0 0 0 0 0 0 0 0 0
0 0 0 0 0 0 0 0 0 0 0 0 0 0 0 0 0 0 0 0 0 0 0 0 0 0 0 0 0 0 0 0 0 0 0 0 0 0 0 0 0 0 0
0 0 0 0 0 0 0 0 0 0 0 0 0 0 0 0 0 0 0 0 0 0 0 0 0 0 0 0 0 0 0 0 0 0 0 0 0 0 0 0 0 0 0
0 0 0 0 0 0 0 0 0 0 0 0 0 0 0 0 0 0 0 0 0 0 0 0 0 0 0 0 0 0 0 0 0 0 0 0 0 0 0 0 0 0 0
0 0 0 0 0 0 0 0 0 0 0 0 0 0 0 0 0 0 0 0 0 0 0 0 0 0 0 0 0 0 0 0 0 0 0 0 0 0 0 0 0 0 0
0 0 0 0 0 0 0 0 0 0 0 0 0 0 0 0 0 0 0 0 0 0 0 0 0 0 0 0 0 0 0 0 0 0 0 0 0 0 0 0 0 0 0
0 0 0 0 0 0 0 0 0 0 0 0 0 0 0 0 0 0 0 0 0 0 0 0 0 0 0 0 0 0 0 0 0 0 0 0 0 0 0 0 0 0 0
0 0 0 0 0 0 0 0 0 0 0 0 0 0 0 0 0 0 0 0 0 0 0 0 0 0 0 0 0 0 0 0 0 0 0 0 0 0 0 0 0 0 0
0 0 0 0 0 0 0 0 0 0 0 0 0 0 0 0 0 0 0 0 0 0 0 0 0 0 0 0 0 0 0 0 0 0 0 0 0 0 0 0 0 0 0
0 0 0 0 0 0 0 0 0 0 0 0 0 0 0 0 0 0 0 0 0 0 0 0 0 0 0 0 0 0 0 0 0 0 0 0 0 0 0 0 0 0 0
0 0 0 0 0 0 0 0 0 0 0 0 0 0 0 0 0 0 0 0 0 0 0 0 0 0 0 0 0 0 0 0 0 0 0 0 0 0 0 0 0 0 0
0 0 0 0 0 0 0 0 0 0 0 0 0 0 0 0 0 0 0 0 0 0 0 0 0 0 0 0 0 0 0 0 0 0 0 0 0 0 0 0 0 0 0
4 0 1 10 1 1 0 0 0 0 0 0 0 0 0 0 0 0 0 0 0 0 0 0 0 0 0 0 0 0 0 0 0 0 0 0 0 0 0 0 0 0 0

GFSGL_con_mlcape_114.txt.gz
CAPE
126 376 266 279 312 256 211 69 0 0 0 0 55 269 465 769 625 728 829 504 535 780 703 619 480 767 824 1093 901 867 826 668 229 280 481 737 572 213 170 1157 1401 1198 1049
274 375 372 250 319 198 232 94 101 0 0 24 68 239 354 772 727 581 610 912 325 397 434 573 625 701 730 558 648 713 554 543 384 366 433 667 658 611 532 676 811 1010 781
250 381 354 197 341 251 147 141 102 61 0 121 115 84 307 694 499 460 468 392 636 674 626 644 609 487 436 471 517 577 469 462 632 465 496 449 742 799 564 687 579 283 366
353 418 468 322 404 229 210 288 160 14 71 181 333 352 425 298 191 268 326 705 570 502 507 705 695 630 573 407 532 526 553 393 311 131 129 249 455 670 830 401 35 47 525
150 283 347 294 233 331 334 276 330 295 261 504 460 309 93 72 39 43 131 328 622 499 413 495 381 346 356 439 340 389 326 159 154 185 246 357 504 572 99 2 42 172 354
86 163 314 233 311 277 234 222 277 221 139 215 261 152 65 0 0 0 8 123 499 395 308 120 71 178 169 133 208 276 325 392 350 388 434 339 10 0 0 0 58 202 279
32 122 200 175 139 134 225 130 160 151 108 94 15 0 0 0 0 0 0 9 270 451 290 84 0 0 0 15 101 0 0 0 33 59 0 0 0 0 0 0 0 0 97
73 95 132 149 139 81 111 139 204 137 114 67 1 0 0 0 0 0 0 0 15 59 33 0 0 0 0 0 0 0 0 0 0 0 0 0 0 0 0 0 0 0 5
52 116 160 134 75 19 20 68 62 56 16 0 0 0 0 0 0 0 40 0 0 0 0 0 0 0 0 0 0 0 0 0 0 0 0 0 0 0 0 0 0 0 0
140 146 141 97 48 33 43 34 4 0 0 0 0 0 0 0 0 0 2 0 0 0 0 0 0 0 0 0 0 0 0 0 0 0 0 0 0 0 0 0 0 0 0
102 170 89 61 25 13 22 0 0 0 0 0 0 0 0 0 0 0 0 0 0 0 0 0 0 0 0 0 0 0 0 0 0 0 0 0 0 0 0 0 0 0 0
3 37 6 17 5 8 4 0 0 0 0 0 0 0 0 0 0 0 0 0 0 0 0 0 0 0 0 0 0 0 0 0 0 0 0 0 0 0 0 0 0 0 0
0 0 1 0 0 0 0 0 0 0 0 0 0 0 0 0 0 0 0 0 0 0 0 0 0 0 0 0 0 0 0 0 0 0 0 0 0 0 0 0 0 0 0
0 0 0 0 0 0 0 0 0 0 0 0 0 0 0 0 0 0 0 0 0 0 0 0 0 0 0 0 0 0 0 0 0 0 0 0 0 0 0 0 0 0 0
0 0 0 0 0 0 0 0 0 0 0 0 0 0 0 0 0 0 0 0 0 0 0 0 0 0 0 0 0 0 0 0 0 0 0 0 0 0 0 0 0 0 0
0 0 0 0 0 0 0 0 0 0 0 0 0 0 0 0 0 0 0 0 0 0 0 0 0 0 0 0 0 0 0 0 0 0 0 0 0 0 0 0 0 0 0
0 0 0 0 0 0 0 0 0 0 0 0 0 0 0 0 0 0 0 0 0 0 0 0 0 0 0 0 0 0 0 0 0 0 0 0 0 0 0 0 0 0 0
0 0 0 0 0 0 0 0 0 0 0 0 0 0 0 0 0 0 0 0 0 0 0 0 0 0 0 0 0 0 0 0 0 0 0 0 0 0 0 0 0 0 0
0 0 0 0 0 0 0 0 0 0 0 0 0 0 0 0 0 0 0 0 0 0 0 0 0 0 0 0 0 0 0 0 0 0 0 0 0 0 0 0 0 0 0
0 0 0 0 0 0 0 0 0 0 0 0 0 0 0 0 0 0 0 0 0 0 0 0 0 0 0 0 0 0 0 0 0 0 0 0 0 0 0 0 0 0 0
0 0 0 0 0 0 0 0 0 0 0 0 0 0 0 0 0 0 0 0 0 0 0 0 0 0 0 0 0 0 0 0 0 0 0 0 0 0 0 0 0 0 0
0 0 0 0 0 0 0 0 0 0 0 0 0 0 0 0 0 0 0 0 0 0 0 0 0 0 0 0 0 0 0 0 0 0 0 0 0 0 0 0 0 0 0
0 0 0 0 0 0 0 0 0 0 0 0 0 0 0 0 0 0 0 0 0 0 0 0 0 0 0 0 0 0 0 0 0 0 0 0 0 0 0 0 0 0 0
0 0 0 0 0 0 0 0 0 0 0 0 0 0 0 0 0 0 0 0 0 0 0 0 0 0 0 0 0 0 0 0 0 0 0 0 0 0 0 0 0 0 0
0 0 0 0 0 0 0 0 0 0 0 0 0 0 0 0 0 0 0 0 0 0 0 0 0 0 0 0 0 0 0 0 0 0 0 0 0 0 0 0 0 0 0
27 5 0 0 0 0 0 0 0 0 0 0 0 0 0 0 0 0 0 0 0 0 0 0 0 0 0 0 0 0 0 0 0 0 0 0 0 0 0 0 0 0 0

GFSGL_con_mlcape_117.txt.gz
CAPE
73 60 95 99 158 182 176 33 78 35 11 0 2 261 246 484 637 579 689 671 411 591 660 494 465 602 626 753 679 627 613 453 272 196 335 557 432 435 493 696 765 663 633
80 99 87 150 174 183 149 145 38 0 0 0 0 40 228 487 511 501 582 679 663 359 408 432 417 519 500 518 495 553 452 427 312 203 266 424 425 589 489 381 146 149 778
182 174 146 328 232 267 219 178 71 0 0 0 62 43 185 305 567 567 388 354 368 406 421 400 467 533 450 459 351 394 367 431 461 264 216 344 364 528 461 85 0 403 385
252 274 207 276 345 290 238 190 176 0 51 0 27 159 139 271 286 306 348 410 333 392 383 464 620 578 421 364 340 447 469 331 283 54 0 134 312 574 99 0 0 157 132
333 336 287 306 391 291 285 295 231 162 82 0 95 238 145 87 54 58 89 153 0 307 374 371 260 319 285 336 412 360 302 129 69 107 180 265 328 20 0 17 77 134 126
350 369 310 334 454 401 347 298 339 227 131 159 183 159 0 0 0 0 0 28 163 294 359 202 153 133 144 170 258 286 235 227 260 298 289 187 0 0 0 0 7 71 0
204 190 189 255 211 195 208 249 212 152 63 53 23 0 0 0 0 0 0 1 92 160 197 137 6 0 0 70 0 0 0 0 93 131 10 0 0 0 0 0 0 0 0
104 51 137 143 151 155 142 194 156 102 80 49 1 0 0 0 0 0 0 0 10 15 37 3 0 0 0 24 0 0 0 0 0 0 0 0 0 0 0 0 0 0 9
4 36 70 76 119 116 97 84 61 123 97 39 0 0 0 0 0 0 23 1 0 0 0 0 0 0 0 0 0 0 0 0 0 0 0 0 0 0 0 0 0 0 0
47 41 102 94 72 60 21 16 19 28 29 5 0 0 0 0 0 0 0 0 0 0 0 0 0 0 0 0 0 0 0 0 0 0 0 0 0 0 0 0 0 0 0
70 105 85 81 48 40 23 17 2 7 6 0 0 0 0 0 0 0 0 0 0 0 0 0 0 0 0 0 0 0 0 0 0 0 0 0 0 0 0 0 0 0 0
27 24 33 74 13 3 7 15 0 0 0 0 0 0 0 0 0 0 0 0 0 0 0 0 0 0 0 0 0 0 0 0 0 0 0 0 0 0 0 0 0 0 0
0 0 1 0 0 1 6 6 1 0 0 0 0 0 0 0 0 0 0 0 0 0 0 0 0 0 0 0 0 0 0 0 0 0 0 0 0 0 0 0 0 0 0
0 1 1 0 2 2 0 0 0 0 0 0 0 0 0 0 0 0 0 0 0 0 0 0 0 0 0 0 0 0 0 0 0 0 0 0 0 0 0 0 0 0 0
0 0 0 0 0 0 0 0 0 0 0 0 0 0 0 0 0 0 0 0 0 0 0 0 0 0 0 0 0 0 0 0 0 0 0 0 0 0 0 0 0 0 0
0 0 0 0 0 0 0 0 0 0 0 0 0 0 0 0 0 0 0 0 0 0 0 0 0 0 0 0 0 0 0 0 0 0 0 0 0 0 0 0 0 0 0
0 0 0 0 0 0 0 0 0 0 0 0 0 0 0 0 0 0 0 0 0 0 0 0 0 0 0 0 0 0 0 0 0 0 0 0 0 0 0 0 0 0 0
0 0 0 0 0 0 0 0 0 0 0 0 0 0 0 0 0 0 0 0 0 0 0 0 0 0 0 0 0 0 0 0 0 0 0 0 0 0 0 0 0 0 0
0 0 0 0 0 0 0 0 0 0 0 0 0 0 0 0 0 0 0 0 0 0 0 0 0 0 0 0 0 0 0 0 0 0 0 0 0 0 0 0 0 0 0
0 0 0 0 0 0 0 0 0 0 0 0 0 0 0 0 0 0 0 0 0 0 0 0 0 0 0 0 0 0 0 0 0 0 0 0 0 0 0 0 0 0 0
0 0 0 0 0 0 0 0 0 0 0 0 0 0 0 0 0 0 0 0 0 0 0 0 0 0 0 0 0 0 0 0 0 0 0 0 0 0 0 0 0 0 0
0 0 0 0 0 0 0 0 0 0 0 0 0 0 0 0 0 0 0 0 0 0 0 0 0 0 0 0 0 0 0 0 0 0 0 0 0 0 0 0 0 0 0
0 0 0 0 0 0 0 0 0 0 0 0 0 0 0 0 0 0 0 0 0 0 0 0 0 0 0 0 0 0 0 0 0 0 0 0 0 0 0 0 0 0 0
0 0 0 0 0 0 0 0 0 0 0 0 0 0 0 0 0 0 0 0 0 0 0 0 0 0 0 0 0 0 0 0 0 0 0 0 0 0 0 0 0 0 0
6 0 0 0 0 0 0 0 0 0 0 0 0 0 0 0 0 0 0 0 0 0 0 0 0 0 0 0 0 0 0 0 0 0 0 0 0 0 0 0 0 0 0
16 3 2 1 0 0 0 0 1 0 0 0 0 0 0 0 0 0 0 0 0 0 0 0 0 0 0 0 0 0 0 0 0 0 0 0 0 0 0 0 0 0 0

GFSGL_con_mlcape_120.txt.gz
CAPE
37 39 77 105 149 168 168 159 106 0 0 5 16 76 221 230 412 540 648 618 495 416 490 486 343 361 474 479 575 538 494 351 338 172 261 490 661 581 590 189 105 688 825
31 44 37 44 109 134 123 145 82 0 0 0 0 0 31 138 413 464 401 547 549 436 302 405 407 318 345 592 489 516 366 406 289 218 203 366 426 531 374 1 378 438 643
71 31 43 80 60 82 116 136 78 57 0 0 0 0 0 87 348 368 354 463 463 388 330 276 301 356 490 446 340 367 333 429 392 260 110 298 342 518 204 0 140 18 23
133 91 60 100 98 123 143 174 176 131 32 0 0 36 8 24 161 317 340 400 375 311 407 409 405 330 395 386 271 341 417 344 313 198 68 158 291 515 0 0 138 0 0
191 173 150 163 157 175 215 179 189 123 109 0 0 0 160 118 66 33 93 200 190 10 89 377 284 240 217 274 291 306 328 198 57 85 144 238 280 2 0 0 71 69 0
233 221 225 184 202 213 255 271 214 236 168 114 122 86 120 0 0 0 0 57 112 18 157 288 134 82 59 64 133 137 264 130 138 217 268 244 6 0 0 0 11 128 0
232 220 271 215 230 172 177 273 257 289 247 101 18 21 1 0 0 0 0 0 27 110 189 188 50 0 0 0 0 0 0 0 87 199 157 0 0 0 0 0 0 0 0
124 130 123 133 193 103 103 119 188 157 113 37 12 13 0 0 0 0 0 0 10 25 78 39 0 0 0 0 0 0 0 0 0 0 0 0 0 0 0 0 0 0 0
49 41 60 20 10 51 93 78 84 117 99 82 1 0 0 0 0 0 0 0 1 1 0 0 0 0 0 0 0 0 0 0 0 0 0 0 0 0 0 0 0 0 0
16 0 9 13 56 61 47 47 17 36 25 2 0 0 1 0 0 0 0 0 0 0 0 0 0 0 0 0 0 0 0 0 0 0 0 0 0 0 0 0 0 0 0
0 0 44 107 49 26 9 1 0 1 0 0 0 0 0 0 0 0 0 0 0 0 0 0 0 0 0 0 0 0 0 0 0 0 0 0 0 0 0 0 0 0 0
0 22 35 40 13 8 0 0 0 0 0 0 0 0 0 0 0 0 0 0 0 0 0 0 0 0 0 0 0 0 0 0 0 0 0 0 0 0 0 0 0 0 0
0 0 0 0 0 0 0 0 0 1 0 0 0 0 0 0 0 0 0 0 0 0 0 0 0 0 0 0 0 0 0 0 0 0 0 0 0 0 0 0 0 0 0
1 1 2 2 2 3 2 0 1 3 3 1 0 0 0 0 0 0 0 0 0 0 0 0 0 0 0 0 0 0 0 0 0 0 0 0 0 0 0 0 0 0 0
1 1 1 1 1 2 2 3 1 1 0 0 0 0 0 0 0 0 0 0 0 0 0 0 0 0 0 0 0 0 0 0 0 0 0 0 0 0 0 0 0 0 0
0 0 0 0 0 0 0 0 0 0 0 0 0 0 0 0 0 0 0 0 0 0 0 0 0 0 0 0 0 0 0 0 0 0 0 0 0 0 0 0 0 0 0
0 0 0 0 0 0 0 0 0 0 0 0 0 0 0 0 0 0 0 0 0 0 0 0 0 0 0 0 0 0 0 0 0 0 0 0 0 0 0 0 0 0 0
0 0 0 0 0 0 0 0 0 0 0 0 0 0 0 0 0 0 0 0 0 0 0 0 0 0 0 0 0 0 0 0 0 0 0 0 0 0 0 0 0 0 0
0 0 0 0 0 0 0 0 0 0 0 0 0 0 0 0 0 0 0 0 0 0 0 0 0 0 0 0 0 0 0 0 0 0 0 0 0 0 0 0 0 0 0
0 0 0 0 0 0 0 0 0 0 0 0 0 0 0 0 0 0 0 0 0 0 0 0 0 0 0 0 0 0 0 0 0 0 0 0 0 0 0 0 0 0 0
0 0 0 0 0 0 0 0 0 0 0 0 0 0 0 0 0 0 0 0 0 0 0 0 0 0 0 0 0 0 0 0 0 0 0 0 0 0 0 0 0 0 0
0 0 0 0 0 0 0 0 0 0 0 0 0 0 0 0 0 0 0 0 0 0 0 0 0 0 0 0 0 0 0 0 0 0 0 0 0 0 0 0 0 0 0
0 0 0 0 0 0 0 0 0 0 0 0 0 0 0 0 0 0 0 0 0 0 0 0 0 0 0 0 0 0 0 0 0 0 0 0 0 0 0 0 0 0 0
0 0 0 0 0 0 0 0 0 0 0 0 0 0 0 0 0 0 0 0 0 0 0 0 0 0 0 0 0 0 0 0 0 0 0 0 0 0 0 0 0 0 0
22 9 4 0 0 0 0 0 0 0 0 0 0 0 0 0 0 0 0 0 0 0 0 0 0 0 0 0 0 0 0 0 0 0 0 0 0 0 0 0 0 0 0
8 7 5 0 0 0 0 0 0 0 0 0 0 0 0 0 0 0 0 0 0 0 0 0 0 0 0 0 0 0 0 0 0 0 0 0 0 0 0 0 0 0 0

GFSGL_con_mlcape_123.txt.gz
CAPE
71 154 288 346 346 372 385 439 486 392 203 48 224 380 533 783 969 856 747 959 1114 1014 1090 1000 1132 1103 873 1082 1200 1100 1072 999 620 600 762 1263 1148 1267 1192 804 1152 1292 0
181 161 117 209 280 294 307 335 437 407 259 254 112 89 115 443 740 690 626 802 790 925 975 941 926 835 858 883 885 937 910 965 847 875 674 651 551 1007 661 994 782 845 0
219 211 192 206 231 206 271 302 264 293 188 118 0 0 7 29 267 719 878 603 549 656 915 913 597 939 757 854 719 936 681 1078 852 456 646 709 947 1092 431 622 283 211 101
248 188 200 182 212 231 226 233 251 271 244 147 44 0 10 193 233 492 799 567 630 662 467 364 555 504 340 406 503 476 419 460 612 699 596 342 700 1180 140 469 192 32 185
219 180 148 328 275 265 327 276 276 339 324 306 144 67 100 480 316 315 467 445 363 690 670 698 890 446 186 273 509 428 372 376 250 197 367 602 818 232 122 239 611 0 0
182 227 284 355 263 414 425 438 490 461 561 433 291 219 223 246 0 0 0 157 292 422 174 227 489 109 118 23 84 161 334 383 242 298 550 586 739 55 32 91 333 319 1
381 367 323 349 298 213 178 315 197 467 470 381 451 432 225 70 0 0 0 0 115 186 401 254 315 119 25 142 0 0 0 0 31 511 310 470 137 21 28 46 215 93 0
305 240 194 278 230 217 176 78 107 203 173 330 387 133 14 0 0 0 0 0 3 112 96 306 329 27 4 19 0 0 0 0 0 0 2 18 8 7 19 117 247 0 0
133 80 89 74 57 58 40 79 98 159 101 74 67 99 67 8 0 0 0 0 0 0 0 0 1 22 0 0 0 0 0 0 0 0 0 0 0 0 0 34 39 150 63
166 42 8 3 26 21 11 40 21 112 99 44 6 4 0 0 1 0 0 0 0 0 0 0 0 0 0 0 0 0 0 0 0 0 0 0 0 0 0 0 0 0 0
75 48 13 48 63 57 38 17 24 22 0 0 0 0 0 0 0 0 1 0 0 0 0 0 0 0 0 0 0 0 0 0 0 0 0 0 0 0 0 0 0 0 0
6 3 8 31 22 20 5 0 0 0 0 0 0 0 0 0 0 0 0 0 0 0 0 0 0 0 0 0 0 0 0 0 0 0 0 0 0 0 0 0 0 0 0
1 0 0 0 1 1 0 0 0 1 0 0 0 0 0 0 0 0 0 0 0 0 0 0 0 0 0 0 0 0 0 0 0 0 0 0 0 0 0 0 0 0 0
1 0 1 0 0 1 0 0 1 3 4 4 0 0 0 0 0 0 0 0 0 0 0 0 0 0 0 0 0 0 0 0 0 0 0 0 0 0 0 0 0 0 0
2 1 1 1 1 1 1 1 0 1 0 1 2 0 0 0 0 0 0 0 0 0 0 0 0 0 0 0 0 0 0 0 0 0 0 0 0 0 0 0 0 0 0
0 0 0 0 0 0 0 0 0 2 0 0 0 0 0 0 0 0 0 0 0 0 0 0 0 0 0 0 0 0 0 0 0 0 0 0 0 0 0 0 0 0 0
0 0 0 0 0 0 0 0 0 0 0 0 0 0 0 0 0 0 0 0 0 0 0 0 0 0 0 0 0 0 0 0 0 0 0 0 0 0 0 0 0 0 0
0 0 0 0 0 0 0 0 0 0 0 0 0 0 0 0 0 0 0 0 0 0 0 0 0 0 0 0 0 0 0 0 0 0 0 0 0 0 0 0 0 0 0
0 0 0 0 0 0 0 0 0 0 0 0 0 0 0 0 0 0 0 0 0 0 0 0 0 0 0 0 0 0 0 0 0 0 0 0 0 0 0 0 0 0 0
0 0 0 0 0 0 0 0 0 0 0 0 0 0 0 0 0 0 0 0 0 0 0 0 0 0 0 0 0 0 0 0 0 0 0 0 0 0 0 0 0 0 0
0 0 0 0 0 0 0 0 0 0 0 0 0 0 0 0 0 0 0 0 0 0 0 0 0 0 0 0 0 0 0 0 0 0 0 0 0 0 0 0 0 0 0
0 0 0 0 0 0 0 0 0 0 0 0 0 0 0 0 0 0 0 0 0 0 0 0 0 0 0 0 0 0 0 0 0 0 0 0 0 0 0 0 0 0 0
0 0 0 0 0 0 0 0 0 0 0 0 0 0 0 0 0 0 0 0 0 0 0 0 0 0 0 0 0 0 0 0 0 0 0 0 0 0 0 0 0 0 0
25 10 0 0 0 0 0 0 0 0 0 0 0 0 0 0 0 0 0 0 0 0 0 0 0 0 0 0 0 0 0 0 0 0 0 0 0 0 0 0 0 0 0
58 40 24 6 1 0 0 0 0 0 0 0 0 0 0 0 0 0 0 0 0 0 0 0 0 0 0 0 0 0 0 0 0 0 0 0 0 0 0 0 0 0 0
62 60 55 42 32 34 32 5 2 5 11 10 1 0 0 0 0 0 0 0 0 0 0 0 1 3 1 0 0 0 0 0 0 0 0 0 0 0 0 0 0 0 0

GFSGL_con_mlcape_126.txt.gz
CAPE
267 221 282 361 440 836 930 975 951 1119 1142 1173 952 850 1088 1273 1191 1380 1292 814 1032 1156 1200 1002 1089 1095 609 363 424 359 293 349 138 39 432 1178 1077 1246 1085 1318 1390 226 0
293 285 336 362 502 517 790 751 821 1029 1212 1160 920 971 1010 1020 1123 1268 1066 747 864 881 912 868 1006 849 997 1065 448 276 369 634 448 573 650 527 903 1166 1235 1346 883 0 0
477 347 420 440 480 402 395 634 694 871 1038 966 970 868 601 544 623 968 1120 881 879 826 883 931 951 994 917 610 759 667 629 824 1106 900 563 725 611 685 1011 1007 937 272 0
556 504 551 586 439 371 447 631 709 786 890 934 954 717 422 296 372 411 736 970 982 785 834 829 754 797 910 907 616 767 667 888 652 751 681 316 280 1038 590 681 507 234 0
624 688 697 798 798 709 621 677 880 809 696 877 1050 889 647 551 652 683 841 954 847 769 732 831 458 713 338 426 561 687 510 394 397 456 175 205 355 621 282 464 421 141 498
208 300 613 701 655 538 568 778 861 960 843 890 908 941 732 456 59 176 182 719 832 831 823 824 730 333 150 92 81 112 186 434 640 426 206 246 668 692 180 158 659 199 10
687 404 260 369 717 588 700 603 402 547 674 588 786 777 509 602 39 0 0 167 464 682 727 828 825 494 263 810 91 27 4 20 93 503 605 549 761 375 166 218 453 724 352
793 461 899 1025 662 438 600 622 631 182 84 202 374 426 529 853 0 0 0 12 80 263 638 701 866 812 494 578 351 228 109 17 24 40 78 356 247 180 197 278 500 231 0
454 586 416 529 518 621 176 254 320 227 102 85 76 102 280 267 0 0 0 27 6 23 26 17 197 356 0 0 224 128 69 0 0 0 0 0 0 0 2 74 159 127 139
385 242 191 110 51 39 52 30 46 107 91 62 38 42 7 0 0 0 0 0 1 0 0 0 0 0 0 0 124 78 15 0 0 0 0 0 0 0 0 0 49 24 28
199 254 211 253 279 265 182 38 43 52 64 1 0 2 0 1 1 0 0 0 1 0 0 0 0 0 0 0 0 0 0 0 0 0 0 0 0 0 0 0 0 0 0
57 9 5 7 0 17 19 2 0 0 0 1 0 0 3 4 1 0 1 1 0 1 0 1 0 0 0 0 0 0 0 0 0 0 0 0 0 0 0 0 0 0 0
0 0 1 0 1 1 1 3 4 4 2 2 5 4 3 3 2 0 0 0 0 0 0 0 0 0 0 0 0 0 0 0 0 0 0 0 0 0 0 0 0 0 0
1 6 5 1 3 3 2 4 3 4 3 2 5 3 0 0 0 0 1 0 0 0 0 0 0 0 0 0 0 0 0 0 0 0 0 0 0 0 0 0 0 0 0
5 4 3 2 2 2 3 3 1 1 0 2 3 2 0 0 0 0 0 0 0 0 0 0 0 0 0 0 0 0 0 0 0 0 0 0 0 0 0 0 0 0 0
0 0 1 1 1 0 0 1 0 0 0 0 0 0 0 0 0 0 0 0 0 0 0 0 0 0 0 0 0 0 0 0 0 0 0 0 0 0 0 0 0 0 0
0 0 0 0 0 0 0 0 0 0 0 0 0 0 0 0 0 0 0 0 0 0 0 0 0 0 0 0 0 0 0 0 0 0 0 0 0 0 0 0 0 0 0
0 0 0 0 0 0 0 0 0 0 0 0 0 0 0 0 0 0 0 0 0 0 0 0 0 0 0 0 0 0 0 0 0 0 0 0 0 0 0 0 0 0 0
0 0 0 0 0 0 0 0 0 0 0 0 0 0 0 0 0 0 0 0 0 0 0 0 0 0 0 0 0 0 0 0 0 0 0 0 0 0 0 0 0 0 0
0 0 0 0 0 0 0 0 0 0 0 0 0 0 0 0 0 0 0 0 0 0 0 0 0 0 0 0 0 0 0 0 0 0 0 0 0 0 0 0 0 0 0
0 0 0 0 0 0 0 0 0 0 0 0 0 0 0 0 0 0 0 0 0 0 0 0 0 0 0 0 0 0 0 0 0 0 0 0 0 0 0 0 0 0 0
0 0 0 0 0 0 0 0 0 0 0 0 0 0 0 0 0 0 0 0 0 0 0 0 0 1 2 1 0 0 0 0 0 0 0 0 0 0 0 0 0 0 0
9 7 4 0 0 0 0 0 0 0 0 0 0 0 0 0 0 0 0 0 0 0 0 0 0 1 2 0 0 0 0 0 0 0 0 0 0 0 0 0 0 0 0
15 11 8 9 11 0 0 0 0 0 0 0 0 0 0 0 0 0 0 0 0 0 0 0 0 0 1 0 0 0 0 0 0 0 0 0 0 0 0 0 0 0 0
32 23 31 20 22 10 1 0 0 0 5 14 17 17 21 14 8 5 4 5 5 1 1 1 3 9 7 3 0 0 0 0 0 0 0 0 0 0 0 0 0 0 0
28 34 39 38 50 45 42 47 48 30 22 38 22 9 25 30 21 8 1 0 5 8 11 13 15 17 16 16 12 0 0 0 0 0 0 0 0 0 0 0 0 0 0